<?xml version="1.0" encoding="UTF-8" standalone="no" ?>
<gpx xmlns="http://www.topografix.com/GPX/1/1" xmlns:xsi="http://www.w3.org/2001/XMLSchema-instance" xsi:schemaLocation="http://www.topografix.com/GPX/1/1 http://www.topografix.com/GPX/1/1/gpx.xsd" version="1.1" creator="VisuGPX - https://www.visugpx.com">
  <metadata>
    <name>Rando tour de chalain </name>
    <desc><![CDATA[Rando tour de chalain et fontenu]]></desc>
  </metadata>
  <trk>
    <name><![CDATA[2020-08-29 15:33:18]]></name>
    <trkseg>
      <trkpt lat="46.68281" lon="5.78245">
        <ele>521.65</ele>
        <time>2020-08-29T08:06:14Z</time>
      </trkpt>
      <trkpt lat="46.68281" lon="5.78245">
        <ele>521.65</ele>
        <time>2020-08-29T08:06:15Z</time>
      </trkpt>
      <trkpt lat="46.68282" lon="5.78247">
        <ele>521.65</ele>
        <time>2020-08-29T08:06:29Z</time>
      </trkpt>
      <trkpt lat="46.68284" lon="5.78254">
        <ele>521.17</ele>
        <time>2020-08-29T08:06:46Z</time>
      </trkpt>
      <trkpt lat="46.68275" lon="5.78267">
        <ele>521.17</ele>
        <time>2020-08-29T08:07:06Z</time>
      </trkpt>
      <trkpt lat="46.68272" lon="5.78271">
        <ele>522.61</ele>
        <time>2020-08-29T08:07:09Z</time>
      </trkpt>
      <trkpt lat="46.68269" lon="5.78278">
        <ele>522.61</ele>
        <time>2020-08-29T08:07:28Z</time>
      </trkpt>
      <trkpt lat="46.68266" lon="5.78287">
        <ele>522.61</ele>
        <time>2020-08-29T08:07:45Z</time>
      </trkpt>
      <trkpt lat="46.68263" lon="5.783">
        <ele>522.13</ele>
        <time>2020-08-29T08:08:07Z</time>
      </trkpt>
      <trkpt lat="46.6825" lon="5.78316">
        <ele>523.09</ele>
        <time>2020-08-29T08:08:23Z</time>
      </trkpt>
      <trkpt lat="46.68236" lon="5.78331">
        <ele>523.09</ele>
        <time>2020-08-29T08:08:40Z</time>
      </trkpt>
      <trkpt lat="46.68218" lon="5.78341">
        <ele>523.09</ele>
        <time>2020-08-29T08:08:59Z</time>
      </trkpt>
      <trkpt lat="46.68209" lon="5.78342">
        <ele>523.09</ele>
        <time>2020-08-29T08:09:17Z</time>
      </trkpt>
      <trkpt lat="46.68189" lon="5.78342">
        <ele>523.09</ele>
        <time>2020-08-29T08:09:35Z</time>
      </trkpt>
      <trkpt lat="46.68187" lon="5.78342">
        <ele>523.09</ele>
        <time>2020-08-29T08:09:40Z</time>
      </trkpt>
      <trkpt lat="46.68185" lon="5.78343">
        <ele>523.09</ele>
        <time>2020-08-29T08:09:42Z</time>
      </trkpt>
      <trkpt lat="46.68181" lon="5.78345">
        <ele>523.09</ele>
        <time>2020-08-29T08:09:47Z</time>
      </trkpt>
      <trkpt lat="46.68178" lon="5.78345">
        <ele>523.09</ele>
        <time>2020-08-29T08:09:49Z</time>
      </trkpt>
      <trkpt lat="46.68177" lon="5.78344">
        <ele>523.09</ele>
        <time>2020-08-29T08:09:50Z</time>
      </trkpt>
      <trkpt lat="46.68169" lon="5.78343">
        <ele>523.09</ele>
        <time>2020-08-29T08:09:59Z</time>
      </trkpt>
      <trkpt lat="46.68167" lon="5.78343">
        <ele>523.09</ele>
        <time>2020-08-29T08:10:01Z</time>
      </trkpt>
      <trkpt lat="46.68166" lon="5.78343">
        <ele>523.09</ele>
        <time>2020-08-29T08:10:02Z</time>
      </trkpt>
      <trkpt lat="46.68164" lon="5.78343">
        <ele>523.09</ele>
        <time>2020-08-29T08:10:03Z</time>
      </trkpt>
      <trkpt lat="46.68162" lon="5.78343">
        <ele>523.09</ele>
        <time>2020-08-29T08:10:04Z</time>
      </trkpt>
      <trkpt lat="46.68153" lon="5.78339">
        <ele>523.09</ele>
        <time>2020-08-29T08:10:13Z</time>
      </trkpt>
      <trkpt lat="46.68149" lon="5.78338">
        <ele>523.09</ele>
        <time>2020-08-29T08:10:18Z</time>
      </trkpt>
      <trkpt lat="46.68147" lon="5.78338">
        <ele>523.09</ele>
        <time>2020-08-29T08:10:19Z</time>
      </trkpt>
      <trkpt lat="46.68135" lon="5.78339">
        <ele>523.09</ele>
        <time>2020-08-29T08:10:29Z</time>
      </trkpt>
      <trkpt lat="46.68133" lon="5.7834">
        <ele>523.09</ele>
        <time>2020-08-29T08:10:33Z</time>
      </trkpt>
      <trkpt lat="46.68131" lon="5.78341">
        <ele>523.09</ele>
        <time>2020-08-29T08:10:34Z</time>
      </trkpt>
      <trkpt lat="46.68127" lon="5.78346">
        <ele>523.09</ele>
        <time>2020-08-29T08:10:40Z</time>
      </trkpt>
      <trkpt lat="46.68125" lon="5.78351">
        <ele>523.09</ele>
        <time>2020-08-29T08:10:42Z</time>
      </trkpt>
      <trkpt lat="46.68124" lon="5.78359">
        <ele>523.09</ele>
        <time>2020-08-29T08:10:48Z</time>
      </trkpt>
      <trkpt lat="46.68125" lon="5.78362">
        <ele>523.09</ele>
        <time>2020-08-29T08:10:49Z</time>
      </trkpt>
      <trkpt lat="46.68125" lon="5.78364">
        <ele>523.09</ele>
        <time>2020-08-29T08:10:50Z</time>
      </trkpt>
      <trkpt lat="46.68124" lon="5.78367">
        <ele>523.09</ele>
        <time>2020-08-29T08:10:51Z</time>
      </trkpt>
      <trkpt lat="46.68124" lon="5.78369">
        <ele>523.09</ele>
        <time>2020-08-29T08:10:52Z</time>
      </trkpt>
      <trkpt lat="46.68124" lon="5.7837">
        <ele>523.09</ele>
        <time>2020-08-29T08:10:53Z</time>
      </trkpt>
      <trkpt lat="46.68124" lon="5.78372">
        <ele>524.06</ele>
        <time>2020-08-29T08:10:54Z</time>
      </trkpt>
      <trkpt lat="46.6812" lon="5.78387">
        <ele>524.06</ele>
        <time>2020-08-29T08:11:05Z</time>
      </trkpt>
      <trkpt lat="46.6812" lon="5.7839">
        <ele>524.06</ele>
        <time>2020-08-29T08:11:06Z</time>
      </trkpt>
      <trkpt lat="46.68119" lon="5.78392">
        <ele>524.06</ele>
        <time>2020-08-29T08:11:07Z</time>
      </trkpt>
      <trkpt lat="46.68119" lon="5.78395">
        <ele>524.06</ele>
        <time>2020-08-29T08:11:08Z</time>
      </trkpt>
      <trkpt lat="46.68119" lon="5.78399">
        <ele>524.06</ele>
        <time>2020-08-29T08:11:09Z</time>
      </trkpt>
      <trkpt lat="46.68118" lon="5.78404">
        <ele>524.06</ele>
        <time>2020-08-29T08:11:16Z</time>
      </trkpt>
      <trkpt lat="46.68117" lon="5.78406">
        <ele>524.06</ele>
        <time>2020-08-29T08:11:17Z</time>
      </trkpt>
      <trkpt lat="46.68117" lon="5.78409">
        <ele>524.06</ele>
        <time>2020-08-29T08:11:18Z</time>
      </trkpt>
      <trkpt lat="46.68115" lon="5.78426">
        <ele>524.06</ele>
        <time>2020-08-29T08:11:28Z</time>
      </trkpt>
      <trkpt lat="46.68113" lon="5.78446">
        <ele>524.06</ele>
        <time>2020-08-29T08:11:40Z</time>
      </trkpt>
      <trkpt lat="46.6811" lon="5.7847">
        <ele>524.06</ele>
        <time>2020-08-29T08:11:54Z</time>
      </trkpt>
      <trkpt lat="46.68106" lon="5.7849">
        <ele>524.06</ele>
        <time>2020-08-29T08:12:07Z</time>
      </trkpt>
      <trkpt lat="46.68102" lon="5.78504">
        <ele>524.06</ele>
        <time>2020-08-29T08:12:18Z</time>
      </trkpt>
      <trkpt lat="46.68102" lon="5.78509">
        <ele>524.06</ele>
        <time>2020-08-29T08:12:20Z</time>
      </trkpt>
      <trkpt lat="46.68102" lon="5.78534">
        <ele>524.06</ele>
        <time>2020-08-29T08:12:31Z</time>
      </trkpt>
      <trkpt lat="46.68103" lon="5.78562">
        <ele>524.54</ele>
        <time>2020-08-29T08:12:46Z</time>
      </trkpt>
      <trkpt lat="46.68104" lon="5.78573">
        <ele>523.58</ele>
        <time>2020-08-29T08:12:53Z</time>
      </trkpt>
      <trkpt lat="46.68104" lon="5.78575">
        <ele>523.58</ele>
        <time>2020-08-29T08:13:05Z</time>
      </trkpt>
      <trkpt lat="46.68103" lon="5.78576">
        <ele>523.58</ele>
        <time>2020-08-29T08:13:07Z</time>
      </trkpt>
      <trkpt lat="46.68101" lon="5.78589">
        <ele>522.61</ele>
        <time>2020-08-29T08:13:16Z</time>
      </trkpt>
      <trkpt lat="46.681" lon="5.78597">
        <ele>521.65</ele>
        <time>2020-08-29T08:13:22Z</time>
      </trkpt>
      <trkpt lat="46.68095" lon="5.78608">
        <ele>520.21</ele>
        <time>2020-08-29T08:13:33Z</time>
      </trkpt>
      <trkpt lat="46.68093" lon="5.78612">
        <ele>520.21</ele>
        <time>2020-08-29T08:13:41Z</time>
      </trkpt>
      <trkpt lat="46.68092" lon="5.78615">
        <ele>519.73</ele>
        <time>2020-08-29T08:13:43Z</time>
      </trkpt>
      <trkpt lat="46.68092" lon="5.78616">
        <ele>519.73</ele>
        <time>2020-08-29T08:13:44Z</time>
      </trkpt>
      <trkpt lat="46.68091" lon="5.78618">
        <ele>519.73</ele>
        <time>2020-08-29T08:13:45Z</time>
      </trkpt>
      <trkpt lat="46.68084" lon="5.78643">
        <ele>519.25</ele>
        <time>2020-08-29T08:14:00Z</time>
      </trkpt>
      <trkpt lat="46.68077" lon="5.78663">
        <ele>518.77</ele>
        <time>2020-08-29T08:14:14Z</time>
      </trkpt>
      <trkpt lat="46.68077" lon="5.78664">
        <ele>518.77</ele>
        <time>2020-08-29T08:14:15Z</time>
      </trkpt>
      <trkpt lat="46.68073" lon="5.7867">
        <ele>518.29</ele>
        <time>2020-08-29T08:14:26Z</time>
      </trkpt>
      <trkpt lat="46.68071" lon="5.78668">
        <ele>518.29</ele>
        <time>2020-08-29T08:14:40Z</time>
      </trkpt>
      <trkpt lat="46.6807" lon="5.78672">
        <ele>518.77</ele>
        <time>2020-08-29T08:14:48Z</time>
      </trkpt>
      <trkpt lat="46.68066" lon="5.78693">
        <ele>518.77</ele>
        <time>2020-08-29T08:14:59Z</time>
      </trkpt>
      <trkpt lat="46.68065" lon="5.78703">
        <ele>517.33</ele>
        <time>2020-08-29T08:15:07Z</time>
      </trkpt>
      <trkpt lat="46.68064" lon="5.78717">
        <ele>516.37</ele>
        <time>2020-08-29T08:15:17Z</time>
      </trkpt>
      <trkpt lat="46.68063" lon="5.7873">
        <ele>515.4</ele>
        <time>2020-08-29T08:15:29Z</time>
      </trkpt>
      <trkpt lat="46.6806" lon="5.78743">
        <ele>514.92</ele>
        <time>2020-08-29T08:15:40Z</time>
      </trkpt>
      <trkpt lat="46.68059" lon="5.78762">
        <ele>514.44</ele>
        <time>2020-08-29T08:15:51Z</time>
      </trkpt>
      <trkpt lat="46.68062" lon="5.78777">
        <ele>513.48</ele>
        <time>2020-08-29T08:16:03Z</time>
      </trkpt>
      <trkpt lat="46.68062" lon="5.78786">
        <ele>513.48</ele>
        <time>2020-08-29T08:16:07Z</time>
      </trkpt>
      <trkpt lat="46.68062" lon="5.78794">
        <ele>513</ele>
        <time>2020-08-29T08:16:10Z</time>
      </trkpt>
      <trkpt lat="46.68062" lon="5.78795">
        <ele>513</ele>
        <time>2020-08-29T08:16:11Z</time>
      </trkpt>
      <trkpt lat="46.68063" lon="5.78797">
        <ele>512.52</ele>
        <time>2020-08-29T08:16:12Z</time>
      </trkpt>
      <trkpt lat="46.68066" lon="5.78816">
        <ele>512.04</ele>
        <time>2020-08-29T08:16:24Z</time>
      </trkpt>
      <trkpt lat="46.68067" lon="5.78818">
        <ele>512.04</ele>
        <time>2020-08-29T08:16:25Z</time>
      </trkpt>
      <trkpt lat="46.68068" lon="5.78819">
        <ele>512.04</ele>
        <time>2020-08-29T08:16:26Z</time>
      </trkpt>
      <trkpt lat="46.6807" lon="5.78836">
        <ele>511.08</ele>
        <time>2020-08-29T08:16:39Z</time>
      </trkpt>
      <trkpt lat="46.68071" lon="5.78846">
        <ele>510.6</ele>
        <time>2020-08-29T08:16:48Z</time>
      </trkpt>
      <trkpt lat="46.68071" lon="5.78848">
        <ele>510.6</ele>
        <time>2020-08-29T08:16:49Z</time>
      </trkpt>
      <trkpt lat="46.68072" lon="5.7885">
        <ele>510.6</ele>
        <time>2020-08-29T08:16:50Z</time>
      </trkpt>
      <trkpt lat="46.68073" lon="5.78852">
        <ele>510.6</ele>
        <time>2020-08-29T08:16:51Z</time>
      </trkpt>
      <trkpt lat="46.68073" lon="5.78854">
        <ele>510.6</ele>
        <time>2020-08-29T08:16:52Z</time>
      </trkpt>
      <trkpt lat="46.68076" lon="5.7887">
        <ele>509.16</ele>
        <time>2020-08-29T08:17:02Z</time>
      </trkpt>
      <trkpt lat="46.68079" lon="5.78885">
        <ele>508.67</ele>
        <time>2020-08-29T08:17:13Z</time>
      </trkpt>
      <trkpt lat="46.68079" lon="5.78888">
        <ele>508.19</ele>
        <time>2020-08-29T08:17:14Z</time>
      </trkpt>
      <trkpt lat="46.6808" lon="5.7889">
        <ele>508.19</ele>
        <time>2020-08-29T08:17:15Z</time>
      </trkpt>
      <trkpt lat="46.68081" lon="5.78894">
        <ele>508.19</ele>
        <time>2020-08-29T08:17:16Z</time>
      </trkpt>
      <trkpt lat="46.68081" lon="5.78897">
        <ele>508.19</ele>
        <time>2020-08-29T08:17:17Z</time>
      </trkpt>
      <trkpt lat="46.68082" lon="5.78899">
        <ele>508.19</ele>
        <time>2020-08-29T08:17:18Z</time>
      </trkpt>
      <trkpt lat="46.68082" lon="5.78901">
        <ele>507.71</ele>
        <time>2020-08-29T08:17:19Z</time>
      </trkpt>
      <trkpt lat="46.68083" lon="5.78914">
        <ele>506.27</ele>
        <time>2020-08-29T08:17:29Z</time>
      </trkpt>
      <trkpt lat="46.68084" lon="5.78916">
        <ele>506.75</ele>
        <time>2020-08-29T08:17:30Z</time>
      </trkpt>
      <trkpt lat="46.68085" lon="5.78929">
        <ele>506.27</ele>
        <time>2020-08-29T08:17:40Z</time>
      </trkpt>
      <trkpt lat="46.68085" lon="5.78933">
        <ele>506.27</ele>
        <time>2020-08-29T08:17:41Z</time>
      </trkpt>
      <trkpt lat="46.68085" lon="5.78936">
        <ele>506.27</ele>
        <time>2020-08-29T08:17:42Z</time>
      </trkpt>
      <trkpt lat="46.68085" lon="5.78939">
        <ele>506.27</ele>
        <time>2020-08-29T08:17:43Z</time>
      </trkpt>
      <trkpt lat="46.68084" lon="5.78942">
        <ele>506.27</ele>
        <time>2020-08-29T08:17:44Z</time>
      </trkpt>
      <trkpt lat="46.68083" lon="5.78944">
        <ele>505.79</ele>
        <time>2020-08-29T08:17:45Z</time>
      </trkpt>
      <trkpt lat="46.68082" lon="5.78947">
        <ele>505.79</ele>
        <time>2020-08-29T08:17:46Z</time>
      </trkpt>
      <trkpt lat="46.68081" lon="5.78948">
        <ele>505.79</ele>
        <time>2020-08-29T08:17:47Z</time>
      </trkpt>
      <trkpt lat="46.68078" lon="5.78958">
        <ele>505.79</ele>
        <time>2020-08-29T08:17:54Z</time>
      </trkpt>
      <trkpt lat="46.68077" lon="5.78961">
        <ele>505.79</ele>
        <time>2020-08-29T08:17:56Z</time>
      </trkpt>
      <trkpt lat="46.68076" lon="5.78962">
        <ele>505.79</ele>
        <time>2020-08-29T08:17:57Z</time>
      </trkpt>
      <trkpt lat="46.68073" lon="5.78967">
        <ele>505.79</ele>
        <time>2020-08-29T08:18:03Z</time>
      </trkpt>
      <trkpt lat="46.68072" lon="5.78968">
        <ele>505.79</ele>
        <time>2020-08-29T08:18:04Z</time>
      </trkpt>
      <trkpt lat="46.6807" lon="5.7897">
        <ele>505.79</ele>
        <time>2020-08-29T08:18:05Z</time>
      </trkpt>
      <trkpt lat="46.68069" lon="5.78972">
        <ele>505.79</ele>
        <time>2020-08-29T08:18:06Z</time>
      </trkpt>
      <trkpt lat="46.68068" lon="5.78973">
        <ele>505.79</ele>
        <time>2020-08-29T08:18:07Z</time>
      </trkpt>
      <trkpt lat="46.68066" lon="5.78975">
        <ele>505.79</ele>
        <time>2020-08-29T08:18:08Z</time>
      </trkpt>
      <trkpt lat="46.68064" lon="5.7898">
        <ele>505.79</ele>
        <time>2020-08-29T08:18:13Z</time>
      </trkpt>
      <trkpt lat="46.68063" lon="5.78981">
        <ele>505.79</ele>
        <time>2020-08-29T08:18:14Z</time>
      </trkpt>
      <trkpt lat="46.68053" lon="5.78995">
        <ele>505.79</ele>
        <time>2020-08-29T08:18:25Z</time>
      </trkpt>
      <trkpt lat="46.68046" lon="5.79004">
        <ele>505.79</ele>
        <time>2020-08-29T08:18:34Z</time>
      </trkpt>
      <trkpt lat="46.68046" lon="5.79006">
        <ele>505.79</ele>
        <time>2020-08-29T08:18:35Z</time>
      </trkpt>
      <trkpt lat="46.68046" lon="5.79009">
        <ele>505.79</ele>
        <time>2020-08-29T08:18:36Z</time>
      </trkpt>
      <trkpt lat="46.68045" lon="5.79012">
        <ele>505.79</ele>
        <time>2020-08-29T08:18:37Z</time>
      </trkpt>
      <trkpt lat="46.68044" lon="5.79014">
        <ele>505.79</ele>
        <time>2020-08-29T08:18:38Z</time>
      </trkpt>
      <trkpt lat="46.68038" lon="5.79028">
        <ele>505.79</ele>
        <time>2020-08-29T08:18:50Z</time>
      </trkpt>
      <trkpt lat="46.68036" lon="5.79037">
        <ele>505.79</ele>
        <time>2020-08-29T08:18:57Z</time>
      </trkpt>
      <trkpt lat="46.68035" lon="5.79039">
        <ele>505.79</ele>
        <time>2020-08-29T08:18:58Z</time>
      </trkpt>
      <trkpt lat="46.68035" lon="5.79062">
        <ele>507.71</ele>
        <time>2020-08-29T08:19:12Z</time>
      </trkpt>
      <trkpt lat="46.68034" lon="5.79079">
        <ele>508.67</ele>
        <time>2020-08-29T08:19:22Z</time>
      </trkpt>
      <trkpt lat="46.68028" lon="5.79098">
        <ele>509.64</ele>
        <time>2020-08-29T08:19:33Z</time>
      </trkpt>
      <trkpt lat="46.68027" lon="5.79101">
        <ele>510.12</ele>
        <time>2020-08-29T08:19:35Z</time>
      </trkpt>
      <trkpt lat="46.68022" lon="5.79121">
        <ele>511.08</ele>
        <time>2020-08-29T08:19:47Z</time>
      </trkpt>
      <trkpt lat="46.68015" lon="5.79141">
        <ele>513</ele>
        <time>2020-08-29T08:20:00Z</time>
      </trkpt>
      <trkpt lat="46.68005" lon="5.79161">
        <ele>513.96</ele>
        <time>2020-08-29T08:20:15Z</time>
      </trkpt>
      <trkpt lat="46.68002" lon="5.79169">
        <ele>514.92</ele>
        <time>2020-08-29T08:20:21Z</time>
      </trkpt>
      <trkpt lat="46.68001" lon="5.79171">
        <ele>514.92</ele>
        <time>2020-08-29T08:20:22Z</time>
      </trkpt>
      <trkpt lat="46.67996" lon="5.79184">
        <ele>515.4</ele>
        <time>2020-08-29T08:20:31Z</time>
      </trkpt>
      <trkpt lat="46.67988" lon="5.79196">
        <ele>517.33</ele>
        <time>2020-08-29T08:20:43Z</time>
      </trkpt>
      <trkpt lat="46.67977" lon="5.79207">
        <ele>518.29</ele>
        <time>2020-08-29T08:20:56Z</time>
      </trkpt>
      <trkpt lat="46.67963" lon="5.79214">
        <ele>520.69</ele>
        <time>2020-08-29T08:21:10Z</time>
      </trkpt>
      <trkpt lat="46.67949" lon="5.79218">
        <ele>522.61</ele>
        <time>2020-08-29T08:21:24Z</time>
      </trkpt>
      <trkpt lat="46.67936" lon="5.79224">
        <ele>524.06</ele>
        <time>2020-08-29T08:21:37Z</time>
      </trkpt>
      <trkpt lat="46.67923" lon="5.79229">
        <ele>525.5</ele>
        <time>2020-08-29T08:21:50Z</time>
      </trkpt>
      <trkpt lat="46.67913" lon="5.7924">
        <ele>526.94</ele>
        <time>2020-08-29T08:22:03Z</time>
      </trkpt>
      <trkpt lat="46.67903" lon="5.79248">
        <ele>527.9</ele>
        <time>2020-08-29T08:22:15Z</time>
      </trkpt>
      <trkpt lat="46.67901" lon="5.79251">
        <ele>528.38</ele>
        <time>2020-08-29T08:22:17Z</time>
      </trkpt>
      <trkpt lat="46.679" lon="5.79253">
        <ele>528.86</ele>
        <time>2020-08-29T08:22:18Z</time>
      </trkpt>
      <trkpt lat="46.67899" lon="5.79254">
        <ele>528.86</ele>
        <time>2020-08-29T08:22:19Z</time>
      </trkpt>
      <trkpt lat="46.67897" lon="5.79255">
        <ele>528.86</ele>
        <time>2020-08-29T08:22:20Z</time>
      </trkpt>
      <trkpt lat="46.67896" lon="5.79256">
        <ele>528.86</ele>
        <time>2020-08-29T08:22:21Z</time>
      </trkpt>
      <trkpt lat="46.67886" lon="5.79265">
        <ele>529.34</ele>
        <time>2020-08-29T08:22:32Z</time>
      </trkpt>
      <trkpt lat="46.67884" lon="5.79268">
        <ele>529.34</ele>
        <time>2020-08-29T08:22:36Z</time>
      </trkpt>
      <trkpt lat="46.67883" lon="5.79269">
        <ele>529.34</ele>
        <time>2020-08-29T08:22:37Z</time>
      </trkpt>
      <trkpt lat="46.67869" lon="5.79278">
        <ele>529.82</ele>
        <time>2020-08-29T08:22:50Z</time>
      </trkpt>
      <trkpt lat="46.67868" lon="5.79281">
        <ele>530.3</ele>
        <time>2020-08-29T08:22:53Z</time>
      </trkpt>
      <trkpt lat="46.67867" lon="5.79282">
        <ele>530.3</ele>
        <time>2020-08-29T08:22:54Z</time>
      </trkpt>
      <trkpt lat="46.67852" lon="5.79295">
        <ele>530.79</ele>
        <time>2020-08-29T08:23:08Z</time>
      </trkpt>
      <trkpt lat="46.67825" lon="5.79306">
        <ele>531.27</ele>
        <time>2020-08-29T08:23:32Z</time>
      </trkpt>
      <trkpt lat="46.67817" lon="5.79307">
        <ele>531.75</ele>
        <time>2020-08-29T08:23:51Z</time>
      </trkpt>
      <trkpt lat="46.67819" lon="5.79304">
        <ele>531.75</ele>
        <time>2020-08-29T08:24:21Z</time>
      </trkpt>
      <trkpt lat="46.67813" lon="5.79312">
        <ele>532.23</ele>
        <time>2020-08-29T08:24:47Z</time>
      </trkpt>
      <trkpt lat="46.67813" lon="5.79314">
        <ele>532.23</ele>
        <time>2020-08-29T08:24:48Z</time>
      </trkpt>
      <trkpt lat="46.67793" lon="5.79315">
        <ele>532.23</ele>
        <time>2020-08-29T08:25:08Z</time>
      </trkpt>
      <trkpt lat="46.67773" lon="5.79311">
        <ele>532.23</ele>
        <time>2020-08-29T08:25:20Z</time>
      </trkpt>
      <trkpt lat="46.67749" lon="5.79324">
        <ele>533.19</ele>
        <time>2020-08-29T08:25:41Z</time>
      </trkpt>
      <trkpt lat="46.67722" lon="5.79327">
        <ele>534.63</ele>
        <time>2020-08-29T08:26:03Z</time>
      </trkpt>
      <trkpt lat="46.67713" lon="5.79319">
        <ele>534.63</ele>
        <time>2020-08-29T08:26:12Z</time>
      </trkpt>
      <trkpt lat="46.67705" lon="5.79309">
        <ele>535.11</ele>
        <time>2020-08-29T08:26:23Z</time>
      </trkpt>
      <trkpt lat="46.67703" lon="5.79305">
        <ele>535.59</ele>
        <time>2020-08-29T08:26:28Z</time>
      </trkpt>
      <trkpt lat="46.67702" lon="5.79304">
        <ele>535.59</ele>
        <time>2020-08-29T08:26:29Z</time>
      </trkpt>
      <trkpt lat="46.67701" lon="5.79302">
        <ele>535.59</ele>
        <time>2020-08-29T08:26:30Z</time>
      </trkpt>
      <trkpt lat="46.67697" lon="5.79295">
        <ele>536.07</ele>
        <time>2020-08-29T08:26:38Z</time>
      </trkpt>
      <trkpt lat="46.67686" lon="5.79282">
        <ele>536.55</ele>
        <time>2020-08-29T08:26:50Z</time>
      </trkpt>
      <trkpt lat="46.67685" lon="5.79281">
        <ele>536.55</ele>
        <time>2020-08-29T08:26:52Z</time>
      </trkpt>
      <trkpt lat="46.67683" lon="5.79281">
        <ele>536.55</ele>
        <time>2020-08-29T08:26:53Z</time>
      </trkpt>
      <trkpt lat="46.67682" lon="5.79281">
        <ele>536.55</ele>
        <time>2020-08-29T08:26:54Z</time>
      </trkpt>
      <trkpt lat="46.6768" lon="5.79281">
        <ele>536.55</ele>
        <time>2020-08-29T08:26:55Z</time>
      </trkpt>
      <trkpt lat="46.67678" lon="5.7928">
        <ele>536.55</ele>
        <time>2020-08-29T08:26:56Z</time>
      </trkpt>
      <trkpt lat="46.67676" lon="5.79279">
        <ele>536.55</ele>
        <time>2020-08-29T08:26:57Z</time>
      </trkpt>
      <trkpt lat="46.67674" lon="5.79278">
        <ele>536.55</ele>
        <time>2020-08-29T08:26:58Z</time>
      </trkpt>
      <trkpt lat="46.67661" lon="5.79276">
        <ele>535.59</ele>
        <time>2020-08-29T08:27:09Z</time>
      </trkpt>
      <trkpt lat="46.67653" lon="5.79276">
        <ele>535.11</ele>
        <time>2020-08-29T08:27:13Z</time>
      </trkpt>
      <trkpt lat="46.67652" lon="5.79275">
        <ele>535.11</ele>
        <time>2020-08-29T08:27:14Z</time>
      </trkpt>
      <trkpt lat="46.67646" lon="5.79274">
        <ele>535.11</ele>
        <time>2020-08-29T08:27:21Z</time>
      </trkpt>
      <trkpt lat="46.67632" lon="5.7928">
        <ele>534.15</ele>
        <time>2020-08-29T08:27:31Z</time>
      </trkpt>
      <trkpt lat="46.67614" lon="5.79291">
        <ele>533.67</ele>
        <time>2020-08-29T08:27:44Z</time>
      </trkpt>
      <trkpt lat="46.67606" lon="5.79302">
        <ele>533.19</ele>
        <time>2020-08-29T08:27:53Z</time>
      </trkpt>
      <trkpt lat="46.67597" lon="5.79322">
        <ele>532.71</ele>
        <time>2020-08-29T08:28:06Z</time>
      </trkpt>
      <trkpt lat="46.67591" lon="5.79337">
        <ele>532.71</ele>
        <time>2020-08-29T08:28:18Z</time>
      </trkpt>
      <trkpt lat="46.67584" lon="5.79353">
        <ele>532.23</ele>
        <time>2020-08-29T08:28:33Z</time>
      </trkpt>
      <trkpt lat="46.67584" lon="5.79361">
        <ele>532.23</ele>
        <time>2020-08-29T08:28:46Z</time>
      </trkpt>
      <trkpt lat="46.67577" lon="5.79385">
        <ele>533.67</ele>
        <time>2020-08-29T08:29:01Z</time>
      </trkpt>
      <trkpt lat="46.67572" lon="5.79403">
        <ele>535.11</ele>
        <time>2020-08-29T08:29:11Z</time>
      </trkpt>
      <trkpt lat="46.67569" lon="5.79417">
        <ele>535.11</ele>
        <time>2020-08-29T08:29:21Z</time>
      </trkpt>
      <trkpt lat="46.67568" lon="5.7942">
        <ele>535.59</ele>
        <time>2020-08-29T08:29:23Z</time>
      </trkpt>
      <trkpt lat="46.67568" lon="5.79423">
        <ele>535.11</ele>
        <time>2020-08-29T08:29:24Z</time>
      </trkpt>
      <trkpt lat="46.67567" lon="5.79425">
        <ele>535.11</ele>
        <time>2020-08-29T08:29:25Z</time>
      </trkpt>
      <trkpt lat="46.67565" lon="5.79429">
        <ele>535.11</ele>
        <time>2020-08-29T08:29:28Z</time>
      </trkpt>
      <trkpt lat="46.67556" lon="5.79441">
        <ele>535.59</ele>
        <time>2020-08-29T08:29:40Z</time>
      </trkpt>
      <trkpt lat="46.67553" lon="5.79454">
        <ele>536.55</ele>
        <time>2020-08-29T08:29:54Z</time>
      </trkpt>
      <trkpt lat="46.67556" lon="5.79465">
        <ele>537.03</ele>
        <time>2020-08-29T08:30:18Z</time>
      </trkpt>
      <trkpt lat="46.67557" lon="5.79474">
        <ele>537.03</ele>
        <time>2020-08-29T08:30:52Z</time>
      </trkpt>
      <trkpt lat="46.67553" lon="5.79474">
        <ele>537.03</ele>
        <time>2020-08-29T08:31:22Z</time>
      </trkpt>
      <trkpt lat="46.67533" lon="5.79471">
        <ele>534.63</ele>
        <time>2020-08-29T08:31:42Z</time>
      </trkpt>
      <trkpt lat="46.67514" lon="5.79464">
        <ele>534.63</ele>
        <time>2020-08-29T08:31:54Z</time>
      </trkpt>
      <trkpt lat="46.675" lon="5.7946">
        <ele>534.15</ele>
        <time>2020-08-29T08:32:05Z</time>
      </trkpt>
      <trkpt lat="46.67492" lon="5.79461">
        <ele>533.19</ele>
        <time>2020-08-29T08:32:16Z</time>
      </trkpt>
      <trkpt lat="46.67484" lon="5.79468">
        <ele>532.23</ele>
        <time>2020-08-29T08:32:28Z</time>
      </trkpt>
      <trkpt lat="46.67482" lon="5.79469">
        <ele>532.23</ele>
        <time>2020-08-29T08:32:29Z</time>
      </trkpt>
      <trkpt lat="46.6748" lon="5.79472">
        <ele>532.23</ele>
        <time>2020-08-29T08:32:31Z</time>
      </trkpt>
      <trkpt lat="46.67476" lon="5.79474">
        <ele>531.27</ele>
        <time>2020-08-29T08:32:34Z</time>
      </trkpt>
      <trkpt lat="46.67467" lon="5.79481">
        <ele>530.79</ele>
        <time>2020-08-29T08:32:46Z</time>
      </trkpt>
      <trkpt lat="46.67466" lon="5.79482">
        <ele>530.3</ele>
        <time>2020-08-29T08:32:47Z</time>
      </trkpt>
      <trkpt lat="46.67464" lon="5.79483">
        <ele>529.82</ele>
        <time>2020-08-29T08:32:48Z</time>
      </trkpt>
      <trkpt lat="46.67462" lon="5.79483">
        <ele>529.82</ele>
        <time>2020-08-29T08:32:49Z</time>
      </trkpt>
      <trkpt lat="46.67461" lon="5.79484">
        <ele>529.82</ele>
        <time>2020-08-29T08:32:50Z</time>
      </trkpt>
      <trkpt lat="46.6745" lon="5.79486">
        <ele>529.34</ele>
        <time>2020-08-29T08:33:01Z</time>
      </trkpt>
      <trkpt lat="46.67449" lon="5.79487">
        <ele>529.34</ele>
        <time>2020-08-29T08:33:02Z</time>
      </trkpt>
      <trkpt lat="46.67434" lon="5.79492">
        <ele>527.42</ele>
        <time>2020-08-29T08:33:15Z</time>
      </trkpt>
      <trkpt lat="46.67428" lon="5.79504">
        <ele>526.94</ele>
        <time>2020-08-29T08:33:22Z</time>
      </trkpt>
      <trkpt lat="46.67424" lon="5.79507">
        <ele>526.46</ele>
        <time>2020-08-29T08:33:29Z</time>
      </trkpt>
      <trkpt lat="46.67421" lon="5.7951">
        <ele>526.46</ele>
        <time>2020-08-29T08:33:32Z</time>
      </trkpt>
      <trkpt lat="46.67413" lon="5.79521">
        <ele>525.98</ele>
        <time>2020-08-29T08:33:42Z</time>
      </trkpt>
      <trkpt lat="46.67412" lon="5.79523">
        <ele>525.5</ele>
        <time>2020-08-29T08:33:43Z</time>
      </trkpt>
      <trkpt lat="46.67411" lon="5.79526">
        <ele>525.5</ele>
        <time>2020-08-29T08:33:44Z</time>
      </trkpt>
      <trkpt lat="46.67406" lon="5.79536">
        <ele>525.02</ele>
        <time>2020-08-29T08:33:52Z</time>
      </trkpt>
      <trkpt lat="46.67405" lon="5.79538">
        <ele>525.02</ele>
        <time>2020-08-29T08:33:53Z</time>
      </trkpt>
      <trkpt lat="46.67396" lon="5.79548">
        <ele>524.06</ele>
        <time>2020-08-29T08:34:03Z</time>
      </trkpt>
      <trkpt lat="46.67386" lon="5.7956">
        <ele>523.58</ele>
        <time>2020-08-29T08:34:14Z</time>
      </trkpt>
      <trkpt lat="46.67385" lon="5.79562">
        <ele>524.06</ele>
        <time>2020-08-29T08:34:16Z</time>
      </trkpt>
      <trkpt lat="46.67384" lon="5.79564">
        <ele>523.58</ele>
        <time>2020-08-29T08:34:17Z</time>
      </trkpt>
      <trkpt lat="46.6738" lon="5.79577">
        <ele>523.58</ele>
        <time>2020-08-29T08:34:27Z</time>
      </trkpt>
      <trkpt lat="46.67379" lon="5.79579">
        <ele>523.58</ele>
        <time>2020-08-29T08:34:28Z</time>
      </trkpt>
      <trkpt lat="46.67378" lon="5.79581">
        <ele>523.58</ele>
        <time>2020-08-29T08:34:29Z</time>
      </trkpt>
      <trkpt lat="46.67378" lon="5.79584">
        <ele>523.58</ele>
        <time>2020-08-29T08:34:30Z</time>
      </trkpt>
      <trkpt lat="46.67376" lon="5.79586">
        <ele>523.58</ele>
        <time>2020-08-29T08:34:31Z</time>
      </trkpt>
      <trkpt lat="46.67375" lon="5.79587">
        <ele>523.58</ele>
        <time>2020-08-29T08:34:32Z</time>
      </trkpt>
      <trkpt lat="46.67371" lon="5.79595">
        <ele>523.58</ele>
        <time>2020-08-29T08:34:39Z</time>
      </trkpt>
      <trkpt lat="46.6737" lon="5.79597">
        <ele>523.58</ele>
        <time>2020-08-29T08:34:40Z</time>
      </trkpt>
      <trkpt lat="46.6737" lon="5.79604">
        <ele>523.58</ele>
        <time>2020-08-29T08:34:42Z</time>
      </trkpt>
      <trkpt lat="46.6737" lon="5.79607">
        <ele>523.58</ele>
        <time>2020-08-29T08:34:43Z</time>
      </trkpt>
      <trkpt lat="46.67369" lon="5.79609">
        <ele>523.58</ele>
        <time>2020-08-29T08:34:44Z</time>
      </trkpt>
      <trkpt lat="46.67368" lon="5.79611">
        <ele>523.58</ele>
        <time>2020-08-29T08:34:45Z</time>
      </trkpt>
      <trkpt lat="46.67366" lon="5.79616">
        <ele>522.61</ele>
        <time>2020-08-29T08:34:51Z</time>
      </trkpt>
      <trkpt lat="46.67366" lon="5.79619">
        <ele>522.61</ele>
        <time>2020-08-29T08:34:52Z</time>
      </trkpt>
      <trkpt lat="46.67366" lon="5.79621">
        <ele>522.61</ele>
        <time>2020-08-29T08:34:53Z</time>
      </trkpt>
      <trkpt lat="46.67365" lon="5.79624">
        <ele>522.61</ele>
        <time>2020-08-29T08:34:54Z</time>
      </trkpt>
      <trkpt lat="46.67365" lon="5.79625">
        <ele>522.61</ele>
        <time>2020-08-29T08:34:55Z</time>
      </trkpt>
      <trkpt lat="46.67362" lon="5.79638">
        <ele>521.65</ele>
        <time>2020-08-29T08:35:04Z</time>
      </trkpt>
      <trkpt lat="46.67361" lon="5.79644">
        <ele>521.65</ele>
        <time>2020-08-29T08:35:06Z</time>
      </trkpt>
      <trkpt lat="46.67358" lon="5.79658">
        <ele>521.17</ele>
        <time>2020-08-29T08:35:16Z</time>
      </trkpt>
      <trkpt lat="46.67356" lon="5.79662">
        <ele>521.17</ele>
        <time>2020-08-29T08:35:20Z</time>
      </trkpt>
      <trkpt lat="46.67356" lon="5.79663">
        <ele>521.17</ele>
        <time>2020-08-29T08:35:21Z</time>
      </trkpt>
      <trkpt lat="46.67354" lon="5.79676">
        <ele>520.21</ele>
        <time>2020-08-29T08:35:30Z</time>
      </trkpt>
      <trkpt lat="46.67355" lon="5.79679">
        <ele>520.21</ele>
        <time>2020-08-29T08:35:31Z</time>
      </trkpt>
      <trkpt lat="46.67351" lon="5.79695">
        <ele>518.77</ele>
        <time>2020-08-29T08:35:43Z</time>
      </trkpt>
      <trkpt lat="46.67351" lon="5.79698">
        <ele>518.77</ele>
        <time>2020-08-29T08:35:44Z</time>
      </trkpt>
      <trkpt lat="46.67349" lon="5.79714">
        <ele>517.81</ele>
        <time>2020-08-29T08:35:54Z</time>
      </trkpt>
      <trkpt lat="46.67346" lon="5.79731">
        <ele>515.88</ele>
        <time>2020-08-29T08:36:06Z</time>
      </trkpt>
      <trkpt lat="46.67344" lon="5.79735">
        <ele>515.4</ele>
        <time>2020-08-29T08:36:11Z</time>
      </trkpt>
      <trkpt lat="46.67342" lon="5.79736">
        <ele>515.4</ele>
        <time>2020-08-29T08:36:12Z</time>
      </trkpt>
      <trkpt lat="46.67337" lon="5.79751">
        <ele>513.96</ele>
        <time>2020-08-29T08:36:25Z</time>
      </trkpt>
      <trkpt lat="46.67336" lon="5.79776">
        <ele>513.48</ele>
        <time>2020-08-29T08:36:39Z</time>
      </trkpt>
      <trkpt lat="46.67335" lon="5.79781">
        <ele>513.48</ele>
        <time>2020-08-29T08:36:41Z</time>
      </trkpt>
      <trkpt lat="46.67335" lon="5.79784">
        <ele>513.48</ele>
        <time>2020-08-29T08:36:42Z</time>
      </trkpt>
      <trkpt lat="46.67334" lon="5.79798">
        <ele>513.48</ele>
        <time>2020-08-29T08:36:52Z</time>
      </trkpt>
      <trkpt lat="46.67333" lon="5.798">
        <ele>513</ele>
        <time>2020-08-29T08:36:53Z</time>
      </trkpt>
      <trkpt lat="46.67331" lon="5.79809">
        <ele>512.52</ele>
        <time>2020-08-29T08:37:00Z</time>
      </trkpt>
      <trkpt lat="46.6733" lon="5.79813">
        <ele>511.56</ele>
        <time>2020-08-29T08:37:02Z</time>
      </trkpt>
      <trkpt lat="46.67327" lon="5.79828">
        <ele>510.6</ele>
        <time>2020-08-29T08:37:14Z</time>
      </trkpt>
      <trkpt lat="46.67327" lon="5.79848">
        <ele>509.64</ele>
        <time>2020-08-29T08:37:27Z</time>
      </trkpt>
      <trkpt lat="46.67325" lon="5.79868">
        <ele>508.19</ele>
        <time>2020-08-29T08:37:39Z</time>
      </trkpt>
      <trkpt lat="46.67324" lon="5.7987">
        <ele>508.19</ele>
        <time>2020-08-29T08:37:40Z</time>
      </trkpt>
      <trkpt lat="46.67321" lon="5.79887">
        <ele>506.75</ele>
        <time>2020-08-29T08:37:50Z</time>
      </trkpt>
      <trkpt lat="46.6732" lon="5.79891">
        <ele>506.27</ele>
        <time>2020-08-29T08:37:52Z</time>
      </trkpt>
      <trkpt lat="46.67319" lon="5.79893">
        <ele>506.27</ele>
        <time>2020-08-29T08:37:53Z</time>
      </trkpt>
      <trkpt lat="46.67319" lon="5.79896">
        <ele>506.27</ele>
        <time>2020-08-29T08:37:54Z</time>
      </trkpt>
      <trkpt lat="46.67313" lon="5.7991">
        <ele>505.31</ele>
        <time>2020-08-29T08:38:06Z</time>
      </trkpt>
      <trkpt lat="46.67312" lon="5.7991">
        <ele>504.35</ele>
        <time>2020-08-29T08:38:10Z</time>
      </trkpt>
      <trkpt lat="46.67313" lon="5.79909">
        <ele>504.35</ele>
        <time>2020-08-29T08:38:11Z</time>
      </trkpt>
      <trkpt lat="46.67314" lon="5.79904">
        <ele>504.35</ele>
        <time>2020-08-29T08:38:15Z</time>
      </trkpt>
      <trkpt lat="46.67317" lon="5.79896">
        <ele>504.35</ele>
        <time>2020-08-29T08:38:23Z</time>
      </trkpt>
      <trkpt lat="46.67318" lon="5.79882">
        <ele>502.91</ele>
        <time>2020-08-29T08:38:40Z</time>
      </trkpt>
      <trkpt lat="46.67315" lon="5.79892">
        <ele>502.43</ele>
        <time>2020-08-29T08:39:05Z</time>
      </trkpt>
      <trkpt lat="46.67304" lon="5.79895">
        <ele>499.54</ele>
        <time>2020-08-29T08:39:28Z</time>
      </trkpt>
      <trkpt lat="46.67307" lon="5.7988">
        <ele>499.06</ele>
        <time>2020-08-29T08:39:48Z</time>
      </trkpt>
      <trkpt lat="46.67302" lon="5.79875">
        <ele>500.5</ele>
        <time>2020-08-29T08:40:07Z</time>
      </trkpt>
      <trkpt lat="46.67298" lon="5.79882">
        <ele>500.5</ele>
        <time>2020-08-29T08:40:14Z</time>
      </trkpt>
      <trkpt lat="46.67285" lon="5.79922">
        <ele>500.98</ele>
        <time>2020-08-29T08:40:33Z</time>
      </trkpt>
      <trkpt lat="46.67296" lon="5.79912">
        <ele>501.46</ele>
        <time>2020-08-29T08:40:53Z</time>
      </trkpt>
      <trkpt lat="46.67304" lon="5.7991">
        <ele>500.98</ele>
        <time>2020-08-29T08:41:13Z</time>
      </trkpt>
      <trkpt lat="46.67298" lon="5.79906">
        <ele>500.5</ele>
        <time>2020-08-29T08:41:37Z</time>
      </trkpt>
      <trkpt lat="46.67305" lon="5.79915">
        <ele>500.5</ele>
        <time>2020-08-29T08:42:01Z</time>
      </trkpt>
      <trkpt lat="46.67299" lon="5.79924">
        <ele>501.46</ele>
        <time>2020-08-29T08:42:22Z</time>
      </trkpt>
      <trkpt lat="46.67303" lon="5.79951">
        <ele>500.02</ele>
        <time>2020-08-29T08:42:39Z</time>
      </trkpt>
      <trkpt lat="46.67306" lon="5.79957">
        <ele>500.02</ele>
        <time>2020-08-29T08:43:00Z</time>
      </trkpt>
      <trkpt lat="46.67308" lon="5.79962">
        <ele>499.54</ele>
        <time>2020-08-29T08:43:18Z</time>
      </trkpt>
      <trkpt lat="46.67311" lon="5.79967">
        <ele>500.98</ele>
        <time>2020-08-29T08:43:21Z</time>
      </trkpt>
      <trkpt lat="46.67313" lon="5.80012">
        <ele>502.43</ele>
        <time>2020-08-29T08:43:45Z</time>
      </trkpt>
      <trkpt lat="46.67317" lon="5.80022">
        <ele>501.46</ele>
        <time>2020-08-29T08:44:07Z</time>
      </trkpt>
      <trkpt lat="46.67309" lon="5.80035">
        <ele>500.98</ele>
        <time>2020-08-29T08:44:29Z</time>
      </trkpt>
      <trkpt lat="46.67302" lon="5.80046">
        <ele>501.46</ele>
        <time>2020-08-29T08:44:45Z</time>
      </trkpt>
      <trkpt lat="46.67315" lon="5.80059">
        <ele>502.43</ele>
        <time>2020-08-29T08:45:11Z</time>
      </trkpt>
      <trkpt lat="46.67322" lon="5.80076">
        <ele>501.46</ele>
        <time>2020-08-29T08:45:21Z</time>
      </trkpt>
      <trkpt lat="46.67306" lon="5.80132">
        <ele>499.54</ele>
        <time>2020-08-29T08:45:43Z</time>
      </trkpt>
      <trkpt lat="46.67295" lon="5.80148">
        <ele>500.5</ele>
        <time>2020-08-29T08:46:01Z</time>
      </trkpt>
      <trkpt lat="46.67299" lon="5.80144">
        <ele>501.46</ele>
        <time>2020-08-29T08:46:09Z</time>
      </trkpt>
      <trkpt lat="46.67307" lon="5.80143">
        <ele>501.46</ele>
        <time>2020-08-29T08:46:21Z</time>
      </trkpt>
      <trkpt lat="46.67326" lon="5.8015">
        <ele>501.46</ele>
        <time>2020-08-29T08:46:43Z</time>
      </trkpt>
      <trkpt lat="46.673" lon="5.80144">
        <ele>499.06</ele>
        <time>2020-08-29T08:47:08Z</time>
      </trkpt>
      <trkpt lat="46.67294" lon="5.8014">
        <ele>498.58</ele>
        <time>2020-08-29T08:47:32Z</time>
      </trkpt>
      <trkpt lat="46.67296" lon="5.80136">
        <ele>501.95</ele>
        <time>2020-08-29T08:47:42Z</time>
      </trkpt>
      <trkpt lat="46.67295" lon="5.80148">
        <ele>501.95</ele>
        <time>2020-08-29T08:47:58Z</time>
      </trkpt>
      <trkpt lat="46.67299" lon="5.80184">
        <ele>499.54</ele>
        <time>2020-08-29T08:48:20Z</time>
      </trkpt>
      <trkpt lat="46.67298" lon="5.80185">
        <ele>500.98</ele>
        <time>2020-08-29T08:48:22Z</time>
      </trkpt>
      <trkpt lat="46.67289" lon="5.8018">
        <ele>500.98</ele>
        <time>2020-08-29T08:48:38Z</time>
      </trkpt>
      <trkpt lat="46.6729" lon="5.80187">
        <ele>500.02</ele>
        <time>2020-08-29T08:48:58Z</time>
      </trkpt>
      <trkpt lat="46.67279" lon="5.80201">
        <ele>499.06</ele>
        <time>2020-08-29T08:49:22Z</time>
      </trkpt>
      <trkpt lat="46.6728" lon="5.80243">
        <ele>498.58</ele>
        <time>2020-08-29T08:49:49Z</time>
      </trkpt>
      <trkpt lat="46.67275" lon="5.80268">
        <ele>499.54</ele>
        <time>2020-08-29T08:50:18Z</time>
      </trkpt>
      <trkpt lat="46.67266" lon="5.80285">
        <ele>499.54</ele>
        <time>2020-08-29T08:50:44Z</time>
      </trkpt>
      <trkpt lat="46.67277" lon="5.80279">
        <ele>499.54</ele>
        <time>2020-08-29T08:51:07Z</time>
      </trkpt>
      <trkpt lat="46.67268" lon="5.80308">
        <ele>499.54</ele>
        <time>2020-08-29T08:51:24Z</time>
      </trkpt>
      <trkpt lat="46.67264" lon="5.80313">
        <ele>498.58</ele>
        <time>2020-08-29T08:51:47Z</time>
      </trkpt>
      <trkpt lat="46.67264" lon="5.8033">
        <ele>500.5</ele>
        <time>2020-08-29T08:52:11Z</time>
      </trkpt>
      <trkpt lat="46.67264" lon="5.80324">
        <ele>500.98</ele>
        <time>2020-08-29T08:52:31Z</time>
      </trkpt>
      <trkpt lat="46.67265" lon="5.80318">
        <ele>500.02</ele>
        <time>2020-08-29T08:52:56Z</time>
      </trkpt>
      <trkpt lat="46.67268" lon="5.80317">
        <ele>502.43</ele>
        <time>2020-08-29T08:53:16Z</time>
      </trkpt>
      <trkpt lat="46.67265" lon="5.80321">
        <ele>498.58</ele>
        <time>2020-08-29T08:53:36Z</time>
      </trkpt>
      <trkpt lat="46.67265" lon="5.80322">
        <ele>503.39</ele>
        <time>2020-08-29T08:53:37Z</time>
      </trkpt>
      <trkpt lat="46.67263" lon="5.80325">
        <ele>501.95</ele>
        <time>2020-08-29T08:53:41Z</time>
      </trkpt>
      <trkpt lat="46.67263" lon="5.80329">
        <ele>503.87</ele>
        <time>2020-08-29T08:53:45Z</time>
      </trkpt>
      <trkpt lat="46.67265" lon="5.80319">
        <ele>504.35</ele>
        <time>2020-08-29T08:54:03Z</time>
      </trkpt>
      <trkpt lat="46.67265" lon="5.8033">
        <ele>504.35</ele>
        <time>2020-08-29T08:54:25Z</time>
      </trkpt>
      <trkpt lat="46.67254" lon="5.80373">
        <ele>504.35</ele>
        <time>2020-08-29T08:54:48Z</time>
      </trkpt>
      <trkpt lat="46.67251" lon="5.80391">
        <ele>504.83</ele>
        <time>2020-08-29T08:55:01Z</time>
      </trkpt>
      <trkpt lat="46.67247" lon="5.80403">
        <ele>504.83</ele>
        <time>2020-08-29T08:55:15Z</time>
      </trkpt>
      <trkpt lat="46.6724" lon="5.80419">
        <ele>504.83</ele>
        <time>2020-08-29T08:55:31Z</time>
      </trkpt>
      <trkpt lat="46.67235" lon="5.80437">
        <ele>503.39</ele>
        <time>2020-08-29T08:55:43Z</time>
      </trkpt>
      <trkpt lat="46.67231" lon="5.8046">
        <ele>503.87</ele>
        <time>2020-08-29T08:56:07Z</time>
      </trkpt>
      <trkpt lat="46.67228" lon="5.80496">
        <ele>503.39</ele>
        <time>2020-08-29T08:56:29Z</time>
      </trkpt>
      <trkpt lat="46.67226" lon="5.80512">
        <ele>504.35</ele>
        <time>2020-08-29T08:56:37Z</time>
      </trkpt>
      <trkpt lat="46.67225" lon="5.80524">
        <ele>502.91</ele>
        <time>2020-08-29T08:56:43Z</time>
      </trkpt>
      <trkpt lat="46.67219" lon="5.80552">
        <ele>503.87</ele>
        <time>2020-08-29T08:57:04Z</time>
      </trkpt>
      <trkpt lat="46.67211" lon="5.80582">
        <ele>503.87</ele>
        <time>2020-08-29T08:57:24Z</time>
      </trkpt>
      <trkpt lat="46.67212" lon="5.80585">
        <ele>502.43</ele>
        <time>2020-08-29T08:57:27Z</time>
      </trkpt>
      <trkpt lat="46.67209" lon="5.80603">
        <ele>503.87</ele>
        <time>2020-08-29T08:57:39Z</time>
      </trkpt>
      <trkpt lat="46.67208" lon="5.8061">
        <ele>502.43</ele>
        <time>2020-08-29T08:57:43Z</time>
      </trkpt>
      <trkpt lat="46.67208" lon="5.80613">
        <ele>503.87</ele>
        <time>2020-08-29T08:57:45Z</time>
      </trkpt>
      <trkpt lat="46.67209" lon="5.80624">
        <ele>502.43</ele>
        <time>2020-08-29T08:57:52Z</time>
      </trkpt>
      <trkpt lat="46.67209" lon="5.80628">
        <ele>503.87</ele>
        <time>2020-08-29T08:57:54Z</time>
      </trkpt>
      <trkpt lat="46.67206" lon="5.80637">
        <ele>502.43</ele>
        <time>2020-08-29T08:58:00Z</time>
      </trkpt>
      <trkpt lat="46.67202" lon="5.80672">
        <ele>503.87</ele>
        <time>2020-08-29T08:58:18Z</time>
      </trkpt>
      <trkpt lat="46.67199" lon="5.80682">
        <ele>502.43</ele>
        <time>2020-08-29T08:58:25Z</time>
      </trkpt>
      <trkpt lat="46.67193" lon="5.80713">
        <ele>502.43</ele>
        <time>2020-08-29T08:58:47Z</time>
      </trkpt>
      <trkpt lat="46.67187" lon="5.80752">
        <ele>502.43</ele>
        <time>2020-08-29T08:59:09Z</time>
      </trkpt>
      <trkpt lat="46.67181" lon="5.80776">
        <ele>503.87</ele>
        <time>2020-08-29T08:59:25Z</time>
      </trkpt>
      <trkpt lat="46.67177" lon="5.80784">
        <ele>502.43</ele>
        <time>2020-08-29T08:59:31Z</time>
      </trkpt>
      <trkpt lat="46.67176" lon="5.80787">
        <ele>503.87</ele>
        <time>2020-08-29T08:59:34Z</time>
      </trkpt>
      <trkpt lat="46.67174" lon="5.80805">
        <ele>503.87</ele>
        <time>2020-08-29T08:59:58Z</time>
      </trkpt>
      <trkpt lat="46.67168" lon="5.80822">
        <ele>501.95</ele>
        <time>2020-08-29T09:00:07Z</time>
      </trkpt>
      <trkpt lat="46.67158" lon="5.80864">
        <ele>502.91</ele>
        <time>2020-08-29T09:00:30Z</time>
      </trkpt>
      <trkpt lat="46.67154" lon="5.80879">
        <ele>503.39</ele>
        <time>2020-08-29T09:00:41Z</time>
      </trkpt>
      <trkpt lat="46.67149" lon="5.809">
        <ele>501.95</ele>
        <time>2020-08-29T09:00:59Z</time>
      </trkpt>
      <trkpt lat="46.67144" lon="5.80918">
        <ele>502.91</ele>
        <time>2020-08-29T09:01:12Z</time>
      </trkpt>
      <trkpt lat="46.67139" lon="5.80927">
        <ele>500.98</ele>
        <time>2020-08-29T09:01:18Z</time>
      </trkpt>
      <trkpt lat="46.67138" lon="5.80931">
        <ele>502.91</ele>
        <time>2020-08-29T09:01:21Z</time>
      </trkpt>
      <trkpt lat="46.67135" lon="5.80943">
        <ele>500.98</ele>
        <time>2020-08-29T09:01:31Z</time>
      </trkpt>
      <trkpt lat="46.67133" lon="5.80946">
        <ele>502.91</ele>
        <time>2020-08-29T09:01:33Z</time>
      </trkpt>
      <trkpt lat="46.67115" lon="5.80971">
        <ele>502.91</ele>
        <time>2020-08-29T09:01:57Z</time>
      </trkpt>
      <trkpt lat="46.67113" lon="5.80972">
        <ele>501.46</ele>
        <time>2020-08-29T09:01:59Z</time>
      </trkpt>
      <trkpt lat="46.67096" lon="5.80989">
        <ele>502.43</ele>
        <time>2020-08-29T09:02:16Z</time>
      </trkpt>
      <trkpt lat="46.67077" lon="5.81015">
        <ele>500.98</ele>
        <time>2020-08-29T09:02:38Z</time>
      </trkpt>
      <trkpt lat="46.67076" lon="5.81017">
        <ele>502.43</ele>
        <time>2020-08-29T09:02:40Z</time>
      </trkpt>
      <trkpt lat="46.67053" lon="5.81036">
        <ele>502.43</ele>
        <time>2020-08-29T09:03:02Z</time>
      </trkpt>
      <trkpt lat="46.67045" lon="5.8103">
        <ele>498.58</ele>
        <time>2020-08-29T09:03:26Z</time>
      </trkpt>
      <trkpt lat="46.67038" lon="5.81035">
        <ele>498.1</ele>
        <time>2020-08-29T09:03:46Z</time>
      </trkpt>
      <trkpt lat="46.67034" lon="5.81042">
        <ele>496.66</ele>
        <time>2020-08-29T09:03:55Z</time>
      </trkpt>
      <trkpt lat="46.67043" lon="5.81036">
        <ele>498.1</ele>
        <time>2020-08-29T09:04:03Z</time>
      </trkpt>
      <trkpt lat="46.67046" lon="5.81024">
        <ele>494.26</ele>
        <time>2020-08-29T09:04:21Z</time>
      </trkpt>
      <trkpt lat="46.67047" lon="5.81016">
        <ele>497.14</ele>
        <time>2020-08-29T09:04:31Z</time>
      </trkpt>
      <trkpt lat="46.67047" lon="5.81015">
        <ele>497.14</ele>
        <time>2020-08-29T09:04:32Z</time>
      </trkpt>
      <trkpt lat="46.67046" lon="5.81011">
        <ele>495.7</ele>
        <time>2020-08-29T09:04:35Z</time>
      </trkpt>
      <trkpt lat="46.67053" lon="5.80995">
        <ele>493.77</ele>
        <time>2020-08-29T09:04:53Z</time>
      </trkpt>
      <trkpt lat="46.67054" lon="5.80976">
        <ele>493.29</ele>
        <time>2020-08-29T09:05:09Z</time>
      </trkpt>
      <trkpt lat="46.67053" lon="5.80967">
        <ele>492.81</ele>
        <time>2020-08-29T09:05:28Z</time>
      </trkpt>
      <trkpt lat="46.67064" lon="5.80971">
        <ele>492.81</ele>
        <time>2020-08-29T09:05:44Z</time>
      </trkpt>
      <trkpt lat="46.67074" lon="5.80966">
        <ele>492.81</ele>
        <time>2020-08-29T09:05:59Z</time>
      </trkpt>
      <trkpt lat="46.67074" lon="5.80961">
        <ele>492.81</ele>
        <time>2020-08-29T09:06:15Z</time>
      </trkpt>
      <trkpt lat="46.67071" lon="5.80957">
        <ele>492.81</ele>
        <time>2020-08-29T09:06:29Z</time>
      </trkpt>
      <trkpt lat="46.67054" lon="5.80993">
        <ele>494.74</ele>
        <time>2020-08-29T09:09:22Z</time>
      </trkpt>
      <trkpt lat="46.67054" lon="5.80991">
        <ele>494.74</ele>
        <time>2020-08-29T09:09:23Z</time>
      </trkpt>
      <trkpt lat="46.67056" lon="5.80994">
        <ele>494.74</ele>
        <time>2020-08-29T09:09:48Z</time>
      </trkpt>
      <trkpt lat="46.67053" lon="5.80998">
        <ele>494.74</ele>
        <time>2020-08-29T09:10:11Z</time>
      </trkpt>
      <trkpt lat="46.67055" lon="5.80995">
        <ele>494.74</ele>
        <time>2020-08-29T09:10:30Z</time>
      </trkpt>
      <trkpt lat="46.67054" lon="5.80994">
        <ele>494.26</ele>
        <time>2020-08-29T09:10:54Z</time>
      </trkpt>
      <trkpt lat="46.67052" lon="5.80994">
        <ele>493.29</ele>
        <time>2020-08-29T09:11:05Z</time>
      </trkpt>
      <trkpt lat="46.6705" lon="5.80996">
        <ele>492.81</ele>
        <time>2020-08-29T09:11:53Z</time>
      </trkpt>
      <trkpt lat="46.67053" lon="5.80994">
        <ele>492.81</ele>
        <time>2020-08-29T09:12:29Z</time>
      </trkpt>
      <trkpt lat="46.67052" lon="5.80994">
        <ele>492.33</ele>
        <time>2020-08-29T09:12:56Z</time>
      </trkpt>
      <trkpt lat="46.67054" lon="5.80991">
        <ele>492.33</ele>
        <time>2020-08-29T09:13:34Z</time>
      </trkpt>
      <trkpt lat="46.67055" lon="5.80985">
        <ele>492.33</ele>
        <time>2020-08-29T09:14:06Z</time>
      </trkpt>
      <trkpt lat="46.6705" lon="5.80985">
        <ele>492.33</ele>
        <time>2020-08-29T09:14:42Z</time>
      </trkpt>
      <trkpt lat="46.67051" lon="5.80982">
        <ele>492.33</ele>
        <time>2020-08-29T09:15:11Z</time>
      </trkpt>
      <trkpt lat="46.6705" lon="5.80986">
        <ele>492.33</ele>
        <time>2020-08-29T09:15:46Z</time>
      </trkpt>
      <trkpt lat="46.67054" lon="5.80989">
        <ele>492.33</ele>
        <time>2020-08-29T09:16:06Z</time>
      </trkpt>
      <trkpt lat="46.67051" lon="5.8099">
        <ele>492.33</ele>
        <time>2020-08-29T09:16:39Z</time>
      </trkpt>
      <trkpt lat="46.6705" lon="5.8099">
        <ele>492.81</ele>
        <time>2020-08-29T09:16:59Z</time>
      </trkpt>
      <trkpt lat="46.67054" lon="5.8099">
        <ele>493.77</ele>
        <time>2020-08-29T09:17:27Z</time>
      </trkpt>
      <trkpt lat="46.67058" lon="5.80988">
        <ele>493.77</ele>
        <time>2020-08-29T09:17:51Z</time>
      </trkpt>
      <trkpt lat="46.6705" lon="5.8099">
        <ele>494.26</ele>
        <time>2020-08-29T09:18:03Z</time>
      </trkpt>
      <trkpt lat="46.67042" lon="5.80997">
        <ele>494.74</ele>
        <time>2020-08-29T09:18:14Z</time>
      </trkpt>
      <trkpt lat="46.67038" lon="5.81001">
        <ele>494.74</ele>
        <time>2020-08-29T09:18:20Z</time>
      </trkpt>
      <trkpt lat="46.67034" lon="5.81015">
        <ele>493.29</ele>
        <time>2020-08-29T09:18:33Z</time>
      </trkpt>
      <trkpt lat="46.67023" lon="5.81032">
        <ele>493.29</ele>
        <time>2020-08-29T09:18:49Z</time>
      </trkpt>
      <trkpt lat="46.67019" lon="5.81039">
        <ele>493.29</ele>
        <time>2020-08-29T09:18:55Z</time>
      </trkpt>
      <trkpt lat="46.67008" lon="5.8106">
        <ele>492.81</ele>
        <time>2020-08-29T09:19:11Z</time>
      </trkpt>
      <trkpt lat="46.67002" lon="5.81068">
        <ele>492.81</ele>
        <time>2020-08-29T09:19:19Z</time>
      </trkpt>
      <trkpt lat="46.66995" lon="5.81083">
        <ele>492.81</ele>
        <time>2020-08-29T09:19:31Z</time>
      </trkpt>
      <trkpt lat="46.66986" lon="5.81102">
        <ele>492.81</ele>
        <time>2020-08-29T09:19:46Z</time>
      </trkpt>
      <trkpt lat="46.66984" lon="5.81106">
        <ele>492.81</ele>
        <time>2020-08-29T09:19:51Z</time>
      </trkpt>
      <trkpt lat="46.66979" lon="5.81116">
        <ele>493.77</ele>
        <time>2020-08-29T09:20:04Z</time>
      </trkpt>
      <trkpt lat="46.66979" lon="5.81118">
        <ele>494.26</ele>
        <time>2020-08-29T09:20:06Z</time>
      </trkpt>
      <trkpt lat="46.66978" lon="5.81128">
        <ele>495.22</ele>
        <time>2020-08-29T09:20:19Z</time>
      </trkpt>
      <trkpt lat="46.66975" lon="5.81132">
        <ele>496.18</ele>
        <time>2020-08-29T09:20:31Z</time>
      </trkpt>
      <trkpt lat="46.66975" lon="5.8113">
        <ele>496.18</ele>
        <time>2020-08-29T09:20:36Z</time>
      </trkpt>
      <trkpt lat="46.66968" lon="5.81144">
        <ele>497.14</ele>
        <time>2020-08-29T09:20:49Z</time>
      </trkpt>
      <trkpt lat="46.66962" lon="5.81157">
        <ele>497.14</ele>
        <time>2020-08-29T09:20:59Z</time>
      </trkpt>
      <trkpt lat="46.66954" lon="5.8117">
        <ele>497.14</ele>
        <time>2020-08-29T09:21:10Z</time>
      </trkpt>
      <trkpt lat="46.66944" lon="5.81189">
        <ele>497.14</ele>
        <time>2020-08-29T09:21:25Z</time>
      </trkpt>
      <trkpt lat="46.66932" lon="5.812">
        <ele>498.1</ele>
        <time>2020-08-29T09:21:38Z</time>
      </trkpt>
      <trkpt lat="46.66917" lon="5.81211">
        <ele>498.1</ele>
        <time>2020-08-29T09:21:54Z</time>
      </trkpt>
      <trkpt lat="46.66908" lon="5.81216">
        <ele>498.1</ele>
        <time>2020-08-29T09:22:07Z</time>
      </trkpt>
      <trkpt lat="46.66895" lon="5.81216">
        <ele>498.1</ele>
        <time>2020-08-29T09:22:21Z</time>
      </trkpt>
      <trkpt lat="46.6689" lon="5.81213">
        <ele>498.1</ele>
        <time>2020-08-29T09:22:27Z</time>
      </trkpt>
      <trkpt lat="46.66885" lon="5.81212">
        <ele>498.1</ele>
        <time>2020-08-29T09:22:31Z</time>
      </trkpt>
      <trkpt lat="46.66875" lon="5.81206">
        <ele>496.66</ele>
        <time>2020-08-29T09:22:47Z</time>
      </trkpt>
      <trkpt lat="46.66869" lon="5.81204">
        <ele>496.66</ele>
        <time>2020-08-29T09:22:55Z</time>
      </trkpt>
      <trkpt lat="46.66866" lon="5.81202">
        <ele>496.66</ele>
        <time>2020-08-29T09:23:11Z</time>
      </trkpt>
      <trkpt lat="46.66858" lon="5.81199">
        <ele>496.66</ele>
        <time>2020-08-29T09:23:37Z</time>
      </trkpt>
      <trkpt lat="46.66844" lon="5.81197">
        <ele>497.62</ele>
        <time>2020-08-29T09:23:52Z</time>
      </trkpt>
      <trkpt lat="46.66831" lon="5.81196">
        <ele>497.62</ele>
        <time>2020-08-29T09:24:06Z</time>
      </trkpt>
      <trkpt lat="46.66817" lon="5.81197">
        <ele>497.62</ele>
        <time>2020-08-29T09:24:20Z</time>
      </trkpt>
      <trkpt lat="46.6681" lon="5.81195">
        <ele>497.62</ele>
        <time>2020-08-29T09:24:27Z</time>
      </trkpt>
      <trkpt lat="46.66803" lon="5.81194">
        <ele>497.62</ele>
        <time>2020-08-29T09:24:34Z</time>
      </trkpt>
      <trkpt lat="46.66795" lon="5.81191">
        <ele>497.62</ele>
        <time>2020-08-29T09:24:42Z</time>
      </trkpt>
      <trkpt lat="46.6679" lon="5.8119">
        <ele>497.62</ele>
        <time>2020-08-29T09:24:46Z</time>
      </trkpt>
      <trkpt lat="46.66785" lon="5.81189">
        <ele>497.62</ele>
        <time>2020-08-29T09:24:50Z</time>
      </trkpt>
      <trkpt lat="46.66778" lon="5.8119">
        <ele>497.62</ele>
        <time>2020-08-29T09:25:05Z</time>
      </trkpt>
      <trkpt lat="46.66773" lon="5.81188">
        <ele>497.62</ele>
        <time>2020-08-29T09:25:12Z</time>
      </trkpt>
      <trkpt lat="46.66766" lon="5.81188">
        <ele>497.62</ele>
        <time>2020-08-29T09:25:16Z</time>
      </trkpt>
      <trkpt lat="46.66753" lon="5.81186">
        <ele>497.62</ele>
        <time>2020-08-29T09:25:28Z</time>
      </trkpt>
      <trkpt lat="46.66746" lon="5.81184">
        <ele>497.62</ele>
        <time>2020-08-29T09:25:34Z</time>
      </trkpt>
      <trkpt lat="46.66742" lon="5.81184">
        <ele>497.62</ele>
        <time>2020-08-29T09:25:38Z</time>
      </trkpt>
      <trkpt lat="46.6673" lon="5.8118">
        <ele>497.62</ele>
        <time>2020-08-29T09:25:50Z</time>
      </trkpt>
      <trkpt lat="46.66725" lon="5.81179">
        <ele>497.14</ele>
        <time>2020-08-29T09:25:56Z</time>
      </trkpt>
      <trkpt lat="46.66719" lon="5.81186">
        <ele>497.14</ele>
        <time>2020-08-29T09:26:08Z</time>
      </trkpt>
      <trkpt lat="46.66712" lon="5.81191">
        <ele>497.14</ele>
        <time>2020-08-29T09:26:17Z</time>
      </trkpt>
      <trkpt lat="46.66702" lon="5.81201">
        <ele>498.1</ele>
        <time>2020-08-29T09:26:27Z</time>
      </trkpt>
      <trkpt lat="46.66688" lon="5.81216">
        <ele>498.1</ele>
        <time>2020-08-29T09:26:42Z</time>
      </trkpt>
      <trkpt lat="46.66677" lon="5.81225">
        <ele>498.58</ele>
        <time>2020-08-29T09:26:53Z</time>
      </trkpt>
      <trkpt lat="46.66672" lon="5.81231">
        <ele>498.58</ele>
        <time>2020-08-29T09:27:05Z</time>
      </trkpt>
      <trkpt lat="46.6666" lon="5.81239">
        <ele>498.58</ele>
        <time>2020-08-29T09:27:18Z</time>
      </trkpt>
      <trkpt lat="46.66652" lon="5.81249">
        <ele>498.58</ele>
        <time>2020-08-29T09:27:28Z</time>
      </trkpt>
      <trkpt lat="46.66649" lon="5.8125">
        <ele>498.58</ele>
        <time>2020-08-29T09:27:32Z</time>
      </trkpt>
      <trkpt lat="46.66645" lon="5.81255">
        <ele>498.58</ele>
        <time>2020-08-29T09:27:36Z</time>
      </trkpt>
      <trkpt lat="46.66642" lon="5.81258">
        <ele>498.58</ele>
        <time>2020-08-29T09:27:41Z</time>
      </trkpt>
      <trkpt lat="46.66632" lon="5.81266">
        <ele>499.06</ele>
        <time>2020-08-29T09:27:53Z</time>
      </trkpt>
      <trkpt lat="46.66621" lon="5.81277">
        <ele>499.06</ele>
        <time>2020-08-29T09:28:05Z</time>
      </trkpt>
      <trkpt lat="46.66611" lon="5.81284">
        <ele>499.54</ele>
        <time>2020-08-29T09:28:19Z</time>
      </trkpt>
      <trkpt lat="46.66599" lon="5.81295">
        <ele>499.54</ele>
        <time>2020-08-29T09:28:32Z</time>
      </trkpt>
      <trkpt lat="46.66588" lon="5.81304">
        <ele>499.54</ele>
        <time>2020-08-29T09:28:47Z</time>
      </trkpt>
      <trkpt lat="46.6659" lon="5.81307">
        <ele>499.54</ele>
        <time>2020-08-29T09:29:04Z</time>
      </trkpt>
      <trkpt lat="46.66593" lon="5.81311">
        <ele>499.06</ele>
        <time>2020-08-29T09:29:19Z</time>
      </trkpt>
      <trkpt lat="46.66593" lon="5.81312">
        <ele>499.06</ele>
        <time>2020-08-29T09:29:20Z</time>
      </trkpt>
      <trkpt lat="46.66591" lon="5.81319">
        <ele>499.06</ele>
        <time>2020-08-29T09:29:25Z</time>
      </trkpt>
      <trkpt lat="46.66582" lon="5.81331">
        <ele>499.06</ele>
        <time>2020-08-29T09:29:42Z</time>
      </trkpt>
      <trkpt lat="46.66584" lon="5.8133">
        <ele>499.54</ele>
        <time>2020-08-29T09:30:08Z</time>
      </trkpt>
      <trkpt lat="46.66583" lon="5.81331">
        <ele>499.54</ele>
        <time>2020-08-29T09:30:36Z</time>
      </trkpt>
      <trkpt lat="46.66583" lon="5.81322">
        <ele>500.02</ele>
        <time>2020-08-29T09:30:48Z</time>
      </trkpt>
      <trkpt lat="46.66587" lon="5.81316">
        <ele>500.02</ele>
        <time>2020-08-29T09:31:07Z</time>
      </trkpt>
      <trkpt lat="46.66589" lon="5.81315">
        <ele>500.02</ele>
        <time>2020-08-29T09:31:23Z</time>
      </trkpt>
      <trkpt lat="46.66589" lon="5.81315">
        <ele>500.02</ele>
        <time>2020-08-29T09:31:43Z</time>
      </trkpt>
      <trkpt lat="46.66588" lon="5.81314">
        <ele>500.02</ele>
        <time>2020-08-29T09:32:06Z</time>
      </trkpt>
      <trkpt lat="46.66588" lon="5.81315">
        <ele>501.46</ele>
        <time>2020-08-29T09:32:34Z</time>
      </trkpt>
      <trkpt lat="46.66588" lon="5.81315">
        <ele>501.46</ele>
        <time>2020-08-29T09:32:35Z</time>
      </trkpt>
      <trkpt lat="46.66588" lon="5.81316">
        <ele>499.54</ele>
        <time>2020-08-29T09:33:00Z</time>
      </trkpt>
      <trkpt lat="46.66589" lon="5.81319">
        <ele>499.54</ele>
        <time>2020-08-29T09:33:23Z</time>
      </trkpt>
      <trkpt lat="46.6659" lon="5.81315">
        <ele>499.54</ele>
        <time>2020-08-29T09:33:48Z</time>
      </trkpt>
      <trkpt lat="46.66588" lon="5.81312">
        <ele>499.54</ele>
        <time>2020-08-29T09:34:10Z</time>
      </trkpt>
      <trkpt lat="46.66586" lon="5.81312">
        <ele>498.58</ele>
        <time>2020-08-29T09:34:26Z</time>
      </trkpt>
      <trkpt lat="46.66585" lon="5.8131">
        <ele>498.58</ele>
        <time>2020-08-29T09:34:33Z</time>
      </trkpt>
      <trkpt lat="46.66577" lon="5.81301">
        <ele>498.58</ele>
        <time>2020-08-29T09:34:43Z</time>
      </trkpt>
      <trkpt lat="46.66564" lon="5.81308">
        <ele>498.1</ele>
        <time>2020-08-29T09:34:57Z</time>
      </trkpt>
      <trkpt lat="46.66559" lon="5.81308">
        <ele>498.1</ele>
        <time>2020-08-29T09:35:02Z</time>
      </trkpt>
      <trkpt lat="46.6655" lon="5.81309">
        <ele>498.1</ele>
        <time>2020-08-29T09:35:16Z</time>
      </trkpt>
      <trkpt lat="46.66537" lon="5.81308">
        <ele>498.1</ele>
        <time>2020-08-29T09:35:28Z</time>
      </trkpt>
      <trkpt lat="46.66531" lon="5.81294">
        <ele>498.1</ele>
        <time>2020-08-29T09:35:44Z</time>
      </trkpt>
      <trkpt lat="46.6653" lon="5.81294">
        <ele>498.1</ele>
        <time>2020-08-29T09:35:54Z</time>
      </trkpt>
      <trkpt lat="46.66528" lon="5.81281">
        <ele>498.1</ele>
        <time>2020-08-29T09:36:06Z</time>
      </trkpt>
      <trkpt lat="46.66528" lon="5.81272">
        <ele>498.1</ele>
        <time>2020-08-29T09:36:13Z</time>
      </trkpt>
      <trkpt lat="46.66523" lon="5.81241">
        <ele>497.62</ele>
        <time>2020-08-29T09:36:32Z</time>
      </trkpt>
      <trkpt lat="46.66509" lon="5.8123">
        <ele>496.66</ele>
        <time>2020-08-29T09:36:44Z</time>
      </trkpt>
      <trkpt lat="46.66504" lon="5.81223">
        <ele>496.66</ele>
        <time>2020-08-29T09:36:53Z</time>
      </trkpt>
      <trkpt lat="46.66493" lon="5.81213">
        <ele>497.14</ele>
        <time>2020-08-29T09:37:10Z</time>
      </trkpt>
      <trkpt lat="46.66487" lon="5.81206">
        <ele>495.7</ele>
        <time>2020-08-29T09:37:20Z</time>
      </trkpt>
      <trkpt lat="46.6646" lon="5.81183">
        <ele>495.7</ele>
        <time>2020-08-29T09:37:40Z</time>
      </trkpt>
      <trkpt lat="46.66448" lon="5.8118">
        <ele>495.22</ele>
        <time>2020-08-29T09:38:00Z</time>
      </trkpt>
      <trkpt lat="46.6643" lon="5.81169">
        <ele>496.18</ele>
        <time>2020-08-29T09:38:18Z</time>
      </trkpt>
      <trkpt lat="46.66423" lon="5.81178">
        <ele>497.14</ele>
        <time>2020-08-29T09:38:39Z</time>
      </trkpt>
      <trkpt lat="46.66421" lon="5.81183">
        <ele>495.7</ele>
        <time>2020-08-29T09:38:43Z</time>
      </trkpt>
      <trkpt lat="46.66404" lon="5.81187">
        <ele>497.14</ele>
        <time>2020-08-29T09:39:07Z</time>
      </trkpt>
      <trkpt lat="46.66404" lon="5.81187">
        <ele>497.14</ele>
        <time>2020-08-29T09:39:08Z</time>
      </trkpt>
      <trkpt lat="46.66406" lon="5.81173">
        <ele>495.7</ele>
        <time>2020-08-29T09:39:22Z</time>
      </trkpt>
      <trkpt lat="46.66398" lon="5.81156">
        <ele>496.66</ele>
        <time>2020-08-29T09:39:30Z</time>
      </trkpt>
      <trkpt lat="46.6638" lon="5.81129">
        <ele>497.14</ele>
        <time>2020-08-29T09:39:52Z</time>
      </trkpt>
      <trkpt lat="46.66374" lon="5.81138">
        <ele>497.14</ele>
        <time>2020-08-29T09:40:01Z</time>
      </trkpt>
      <trkpt lat="46.66361" lon="5.81145">
        <ele>496.66</ele>
        <time>2020-08-29T09:40:10Z</time>
      </trkpt>
      <trkpt lat="46.66367" lon="5.81153">
        <ele>497.62</ele>
        <time>2020-08-29T09:40:23Z</time>
      </trkpt>
      <trkpt lat="46.66367" lon="5.81157">
        <ele>497.62</ele>
        <time>2020-08-29T09:40:26Z</time>
      </trkpt>
      <trkpt lat="46.66358" lon="5.81176">
        <ele>497.62</ele>
        <time>2020-08-29T09:40:40Z</time>
      </trkpt>
      <trkpt lat="46.66355" lon="5.81176">
        <ele>497.62</ele>
        <time>2020-08-29T09:40:43Z</time>
      </trkpt>
      <trkpt lat="46.66351" lon="5.8118">
        <ele>498.1</ele>
        <time>2020-08-29T09:40:49Z</time>
      </trkpt>
      <trkpt lat="46.66348" lon="5.81182">
        <ele>498.58</ele>
        <time>2020-08-29T09:40:52Z</time>
      </trkpt>
      <trkpt lat="46.6635" lon="5.81193">
        <ele>498.58</ele>
        <time>2020-08-29T09:40:56Z</time>
      </trkpt>
      <trkpt lat="46.66347" lon="5.8121">
        <ele>499.54</ele>
        <time>2020-08-29T09:41:07Z</time>
      </trkpt>
      <trkpt lat="46.6634" lon="5.81235">
        <ele>499.54</ele>
        <time>2020-08-29T09:41:21Z</time>
      </trkpt>
      <trkpt lat="46.6634" lon="5.81237">
        <ele>499.54</ele>
        <time>2020-08-29T09:41:22Z</time>
      </trkpt>
      <trkpt lat="46.66339" lon="5.81243">
        <ele>499.54</ele>
        <time>2020-08-29T09:41:25Z</time>
      </trkpt>
      <trkpt lat="46.6633" lon="5.81262">
        <ele>500.02</ele>
        <time>2020-08-29T09:41:37Z</time>
      </trkpt>
      <trkpt lat="46.66326" lon="5.81264">
        <ele>500.02</ele>
        <time>2020-08-29T09:41:41Z</time>
      </trkpt>
      <trkpt lat="46.66322" lon="5.81273">
        <ele>500.98</ele>
        <time>2020-08-29T09:41:48Z</time>
      </trkpt>
      <trkpt lat="46.66316" lon="5.8128">
        <ele>501.46</ele>
        <time>2020-08-29T09:41:55Z</time>
      </trkpt>
      <trkpt lat="46.66311" lon="5.81286">
        <ele>501.95</ele>
        <time>2020-08-29T09:42:02Z</time>
      </trkpt>
      <trkpt lat="46.66293" lon="5.81294">
        <ele>504.35</ele>
        <time>2020-08-29T09:42:18Z</time>
      </trkpt>
      <trkpt lat="46.66271" lon="5.81294">
        <ele>505.31</ele>
        <time>2020-08-29T09:42:31Z</time>
      </trkpt>
      <trkpt lat="46.66268" lon="5.81298">
        <ele>505.31</ele>
        <time>2020-08-29T09:42:37Z</time>
      </trkpt>
      <trkpt lat="46.6627" lon="5.81298">
        <ele>505.31</ele>
        <time>2020-08-29T09:42:39Z</time>
      </trkpt>
      <trkpt lat="46.66292" lon="5.813">
        <ele>503.87</ele>
        <time>2020-08-29T09:42:52Z</time>
      </trkpt>
      <trkpt lat="46.66299" lon="5.81298">
        <ele>503.39</ele>
        <time>2020-08-29T09:42:58Z</time>
      </trkpt>
      <trkpt lat="46.66306" lon="5.81295">
        <ele>502.43</ele>
        <time>2020-08-29T09:43:03Z</time>
      </trkpt>
      <trkpt lat="46.66308" lon="5.81294">
        <ele>502.43</ele>
        <time>2020-08-29T09:43:04Z</time>
      </trkpt>
      <trkpt lat="46.66321" lon="5.81283">
        <ele>500.98</ele>
        <time>2020-08-29T09:43:19Z</time>
      </trkpt>
      <trkpt lat="46.66331" lon="5.81269">
        <ele>500.02</ele>
        <time>2020-08-29T09:43:30Z</time>
      </trkpt>
      <trkpt lat="46.66336" lon="5.81254">
        <ele>500.02</ele>
        <time>2020-08-29T09:43:41Z</time>
      </trkpt>
      <trkpt lat="46.66342" lon="5.81231">
        <ele>498.58</ele>
        <time>2020-08-29T09:43:56Z</time>
      </trkpt>
      <trkpt lat="46.66346" lon="5.81209">
        <ele>498.58</ele>
        <time>2020-08-29T09:44:12Z</time>
      </trkpt>
      <trkpt lat="46.66348" lon="5.812">
        <ele>498.58</ele>
        <time>2020-08-29T09:44:18Z</time>
      </trkpt>
      <trkpt lat="46.66348" lon="5.81194">
        <ele>498.58</ele>
        <time>2020-08-29T09:44:21Z</time>
      </trkpt>
      <trkpt lat="46.66357" lon="5.81175">
        <ele>497.62</ele>
        <time>2020-08-29T09:44:36Z</time>
      </trkpt>
      <trkpt lat="46.6636" lon="5.81167">
        <ele>497.14</ele>
        <time>2020-08-29T09:44:42Z</time>
      </trkpt>
      <trkpt lat="46.66372" lon="5.81166">
        <ele>496.66</ele>
        <time>2020-08-29T09:44:55Z</time>
      </trkpt>
      <trkpt lat="46.66373" lon="5.81167">
        <ele>496.66</ele>
        <time>2020-08-29T09:44:56Z</time>
      </trkpt>
      <trkpt lat="46.66387" lon="5.81182">
        <ele>496.66</ele>
        <time>2020-08-29T09:45:08Z</time>
      </trkpt>
      <trkpt lat="46.66382" lon="5.81205">
        <ele>496.18</ele>
        <time>2020-08-29T09:45:24Z</time>
      </trkpt>
      <trkpt lat="46.66381" lon="5.81215">
        <ele>496.18</ele>
        <time>2020-08-29T09:45:30Z</time>
      </trkpt>
      <trkpt lat="46.66376" lon="5.81231">
        <ele>496.18</ele>
        <time>2020-08-29T09:45:42Z</time>
      </trkpt>
      <trkpt lat="46.66377" lon="5.81233">
        <ele>496.18</ele>
        <time>2020-08-29T09:45:44Z</time>
      </trkpt>
      <trkpt lat="46.66372" lon="5.81263">
        <ele>497.62</ele>
        <time>2020-08-29T09:45:58Z</time>
      </trkpt>
      <trkpt lat="46.66375" lon="5.81277">
        <ele>497.62</ele>
        <time>2020-08-29T09:46:11Z</time>
      </trkpt>
      <trkpt lat="46.66379" lon="5.81293">
        <ele>497.62</ele>
        <time>2020-08-29T09:46:25Z</time>
      </trkpt>
      <trkpt lat="46.6638" lon="5.81306">
        <ele>498.1</ele>
        <time>2020-08-29T09:46:38Z</time>
      </trkpt>
      <trkpt lat="46.66377" lon="5.81305">
        <ele>498.1</ele>
        <time>2020-08-29T09:46:47Z</time>
      </trkpt>
      <trkpt lat="46.66367" lon="5.81309">
        <ele>498.1</ele>
        <time>2020-08-29T09:47:01Z</time>
      </trkpt>
      <trkpt lat="46.66354" lon="5.81313">
        <ele>497.62</ele>
        <time>2020-08-29T09:47:13Z</time>
      </trkpt>
      <trkpt lat="46.6633" lon="5.8132">
        <ele>498.1</ele>
        <time>2020-08-29T09:47:30Z</time>
      </trkpt>
      <trkpt lat="46.66335" lon="5.81327">
        <ele>498.1</ele>
        <time>2020-08-29T09:47:50Z</time>
      </trkpt>
      <trkpt lat="46.66326" lon="5.81336">
        <ele>498.58</ele>
        <time>2020-08-29T09:48:05Z</time>
      </trkpt>
      <trkpt lat="46.66322" lon="5.81336">
        <ele>498.58</ele>
        <time>2020-08-29T09:48:08Z</time>
      </trkpt>
      <trkpt lat="46.66297" lon="5.81343">
        <ele>499.06</ele>
        <time>2020-08-29T09:48:24Z</time>
      </trkpt>
      <trkpt lat="46.66283" lon="5.81354">
        <ele>499.06</ele>
        <time>2020-08-29T09:48:37Z</time>
      </trkpt>
      <trkpt lat="46.66282" lon="5.81356">
        <ele>499.06</ele>
        <time>2020-08-29T09:48:39Z</time>
      </trkpt>
      <trkpt lat="46.6628" lon="5.81356">
        <ele>499.06</ele>
        <time>2020-08-29T09:48:41Z</time>
      </trkpt>
      <trkpt lat="46.66264" lon="5.81359">
        <ele>500.5</ele>
        <time>2020-08-29T09:48:57Z</time>
      </trkpt>
      <trkpt lat="46.66259" lon="5.81359">
        <ele>500.5</ele>
        <time>2020-08-29T09:49:16Z</time>
      </trkpt>
      <trkpt lat="46.66264" lon="5.81364">
        <ele>500.5</ele>
        <time>2020-08-29T09:49:21Z</time>
      </trkpt>
      <trkpt lat="46.66271" lon="5.81369">
        <ele>500.5</ele>
        <time>2020-08-29T09:49:26Z</time>
      </trkpt>
      <trkpt lat="46.66274" lon="5.81369">
        <ele>499.54</ele>
        <time>2020-08-29T09:49:29Z</time>
      </trkpt>
      <trkpt lat="46.66289" lon="5.81362">
        <ele>499.06</ele>
        <time>2020-08-29T09:49:42Z</time>
      </trkpt>
      <trkpt lat="46.6629" lon="5.8136">
        <ele>499.06</ele>
        <time>2020-08-29T09:49:43Z</time>
      </trkpt>
      <trkpt lat="46.66305" lon="5.81351">
        <ele>499.54</ele>
        <time>2020-08-29T09:49:58Z</time>
      </trkpt>
      <trkpt lat="46.66322" lon="5.81342">
        <ele>498.1</ele>
        <time>2020-08-29T09:50:14Z</time>
      </trkpt>
      <trkpt lat="46.66323" lon="5.81341">
        <ele>498.1</ele>
        <time>2020-08-29T09:50:15Z</time>
      </trkpt>
      <trkpt lat="46.66338" lon="5.81325">
        <ele>497.62</ele>
        <time>2020-08-29T09:50:30Z</time>
      </trkpt>
      <trkpt lat="46.66354" lon="5.81313">
        <ele>497.62</ele>
        <time>2020-08-29T09:50:44Z</time>
      </trkpt>
      <trkpt lat="46.66371" lon="5.81308">
        <ele>497.14</ele>
        <time>2020-08-29T09:51:00Z</time>
      </trkpt>
      <trkpt lat="46.66374" lon="5.81306">
        <ele>497.14</ele>
        <time>2020-08-29T09:51:03Z</time>
      </trkpt>
      <trkpt lat="46.66379" lon="5.81301">
        <ele>496.66</ele>
        <time>2020-08-29T09:51:15Z</time>
      </trkpt>
      <trkpt lat="46.66379" lon="5.81299">
        <ele>496.66</ele>
        <time>2020-08-29T09:51:16Z</time>
      </trkpt>
      <trkpt lat="46.66379" lon="5.8128">
        <ele>496.66</ele>
        <time>2020-08-29T09:51:27Z</time>
      </trkpt>
      <trkpt lat="46.66387" lon="5.81258">
        <ele>496.66</ele>
        <time>2020-08-29T09:51:39Z</time>
      </trkpt>
      <trkpt lat="46.66388" lon="5.8125">
        <ele>496.66</ele>
        <time>2020-08-29T09:51:44Z</time>
      </trkpt>
      <trkpt lat="46.6639" lon="5.81246">
        <ele>496.66</ele>
        <time>2020-08-29T09:51:46Z</time>
      </trkpt>
      <trkpt lat="46.66393" lon="5.81236">
        <ele>496.66</ele>
        <time>2020-08-29T09:51:51Z</time>
      </trkpt>
      <trkpt lat="46.66399" lon="5.81208">
        <ele>496.18</ele>
        <time>2020-08-29T09:52:07Z</time>
      </trkpt>
      <trkpt lat="46.66402" lon="5.81197">
        <ele>495.7</ele>
        <time>2020-08-29T09:52:19Z</time>
      </trkpt>
      <trkpt lat="46.66406" lon="5.81186">
        <ele>495.7</ele>
        <time>2020-08-29T09:52:34Z</time>
      </trkpt>
      <trkpt lat="46.66407" lon="5.81179">
        <ele>495.7</ele>
        <time>2020-08-29T09:52:38Z</time>
      </trkpt>
      <trkpt lat="46.66404" lon="5.81177">
        <ele>495.7</ele>
        <time>2020-08-29T09:52:54Z</time>
      </trkpt>
      <trkpt lat="46.66403" lon="5.81171">
        <ele>495.7</ele>
        <time>2020-08-29T09:53:10Z</time>
      </trkpt>
      <trkpt lat="46.66404" lon="5.81151">
        <ele>495.7</ele>
        <time>2020-08-29T09:53:21Z</time>
      </trkpt>
      <trkpt lat="46.66402" lon="5.81149">
        <ele>495.7</ele>
        <time>2020-08-29T09:53:29Z</time>
      </trkpt>
      <trkpt lat="46.66399" lon="5.81142">
        <ele>496.66</ele>
        <time>2020-08-29T09:53:36Z</time>
      </trkpt>
      <trkpt lat="46.66395" lon="5.81122">
        <ele>496.66</ele>
        <time>2020-08-29T09:53:47Z</time>
      </trkpt>
      <trkpt lat="46.66394" lon="5.81106">
        <ele>497.14</ele>
        <time>2020-08-29T09:53:59Z</time>
      </trkpt>
      <trkpt lat="46.66399" lon="5.811">
        <ele>497.14</ele>
        <time>2020-08-29T09:54:14Z</time>
      </trkpt>
      <trkpt lat="46.66396" lon="5.81103">
        <ele>497.14</ele>
        <time>2020-08-29T09:54:26Z</time>
      </trkpt>
      <trkpt lat="46.66399" lon="5.81098">
        <ele>497.62</ele>
        <time>2020-08-29T09:54:41Z</time>
      </trkpt>
      <trkpt lat="46.66395" lon="5.81099">
        <ele>496.18</ele>
        <time>2020-08-29T09:54:53Z</time>
      </trkpt>
      <trkpt lat="46.66394" lon="5.81104">
        <ele>496.18</ele>
        <time>2020-08-29T09:55:17Z</time>
      </trkpt>
      <trkpt lat="46.66397" lon="5.81096">
        <ele>496.18</ele>
        <time>2020-08-29T09:55:31Z</time>
      </trkpt>
      <trkpt lat="46.66389" lon="5.81107">
        <ele>495.7</ele>
        <time>2020-08-29T09:55:51Z</time>
      </trkpt>
      <trkpt lat="46.66403" lon="5.81067">
        <ele>495.7</ele>
        <time>2020-08-29T09:56:14Z</time>
      </trkpt>
      <trkpt lat="46.66421" lon="5.81028">
        <ele>495.22</ele>
        <time>2020-08-29T09:56:39Z</time>
      </trkpt>
      <trkpt lat="46.66446" lon="5.80996">
        <ele>495.22</ele>
        <time>2020-08-29T09:57:01Z</time>
      </trkpt>
      <trkpt lat="46.66453" lon="5.80972">
        <ele>495.22</ele>
        <time>2020-08-29T09:57:19Z</time>
      </trkpt>
      <trkpt lat="46.66457" lon="5.8096">
        <ele>496.66</ele>
        <time>2020-08-29T09:57:25Z</time>
      </trkpt>
      <trkpt lat="46.66465" lon="5.80944">
        <ele>498.58</ele>
        <time>2020-08-29T09:57:46Z</time>
      </trkpt>
      <trkpt lat="46.66472" lon="5.80914">
        <ele>497.14</ele>
        <time>2020-08-29T09:58:05Z</time>
      </trkpt>
      <trkpt lat="46.66482" lon="5.80891">
        <ele>495.22</ele>
        <time>2020-08-29T09:58:27Z</time>
      </trkpt>
      <trkpt lat="46.66484" lon="5.80864">
        <ele>496.18</ele>
        <time>2020-08-29T09:58:46Z</time>
      </trkpt>
      <trkpt lat="46.66488" lon="5.80843">
        <ele>497.14</ele>
        <time>2020-08-29T09:59:08Z</time>
      </trkpt>
      <trkpt lat="46.66499" lon="5.80811">
        <ele>496.66</ele>
        <time>2020-08-29T09:59:27Z</time>
      </trkpt>
      <trkpt lat="46.66519" lon="5.80775">
        <ele>498.1</ele>
        <time>2020-08-29T09:59:52Z</time>
      </trkpt>
      <trkpt lat="46.66524" lon="5.80765">
        <ele>498.1</ele>
        <time>2020-08-29T09:59:55Z</time>
      </trkpt>
      <trkpt lat="46.66537" lon="5.80749">
        <ele>498.1</ele>
        <time>2020-08-29T10:00:06Z</time>
      </trkpt>
      <trkpt lat="46.6654" lon="5.80742">
        <ele>498.1</ele>
        <time>2020-08-29T10:00:10Z</time>
      </trkpt>
      <trkpt lat="46.66542" lon="5.80737">
        <ele>498.1</ele>
        <time>2020-08-29T10:00:16Z</time>
      </trkpt>
      <trkpt lat="46.66547" lon="5.80718">
        <ele>498.1</ele>
        <time>2020-08-29T10:00:30Z</time>
      </trkpt>
      <trkpt lat="46.66552" lon="5.80702">
        <ele>498.1</ele>
        <time>2020-08-29T10:00:42Z</time>
      </trkpt>
      <trkpt lat="46.66557" lon="5.80679">
        <ele>498.1</ele>
        <time>2020-08-29T10:00:54Z</time>
      </trkpt>
      <trkpt lat="46.66561" lon="5.80672">
        <ele>498.1</ele>
        <time>2020-08-29T10:00:58Z</time>
      </trkpt>
      <trkpt lat="46.66566" lon="5.80662">
        <ele>497.14</ele>
        <time>2020-08-29T10:01:08Z</time>
      </trkpt>
      <trkpt lat="46.66574" lon="5.80645">
        <ele>495.7</ele>
        <time>2020-08-29T10:01:23Z</time>
      </trkpt>
      <trkpt lat="46.66584" lon="5.80615">
        <ele>494.74</ele>
        <time>2020-08-29T10:01:37Z</time>
      </trkpt>
      <trkpt lat="46.66589" lon="5.80596">
        <ele>494.26</ele>
        <time>2020-08-29T10:01:47Z</time>
      </trkpt>
      <trkpt lat="46.66589" lon="5.80592">
        <ele>494.26</ele>
        <time>2020-08-29T10:01:49Z</time>
      </trkpt>
      <trkpt lat="46.66588" lon="5.80564">
        <ele>494.26</ele>
        <time>2020-08-29T10:02:04Z</time>
      </trkpt>
      <trkpt lat="46.66588" lon="5.80543">
        <ele>494.26</ele>
        <time>2020-08-29T10:02:16Z</time>
      </trkpt>
      <trkpt lat="46.66587" lon="5.8054">
        <ele>494.26</ele>
        <time>2020-08-29T10:02:18Z</time>
      </trkpt>
      <trkpt lat="46.66586" lon="5.80534">
        <ele>494.26</ele>
        <time>2020-08-29T10:02:23Z</time>
      </trkpt>
      <trkpt lat="46.66584" lon="5.80506">
        <ele>494.26</ele>
        <time>2020-08-29T10:02:39Z</time>
      </trkpt>
      <trkpt lat="46.66582" lon="5.80479">
        <ele>493.77</ele>
        <time>2020-08-29T10:02:53Z</time>
      </trkpt>
      <trkpt lat="46.66578" lon="5.8046">
        <ele>493.77</ele>
        <time>2020-08-29T10:03:06Z</time>
      </trkpt>
      <trkpt lat="46.66577" lon="5.80459">
        <ele>493.77</ele>
        <time>2020-08-29T10:03:07Z</time>
      </trkpt>
      <trkpt lat="46.66575" lon="5.80435">
        <ele>493.77</ele>
        <time>2020-08-29T10:03:21Z</time>
      </trkpt>
      <trkpt lat="46.66575" lon="5.80425">
        <ele>493.77</ele>
        <time>2020-08-29T10:03:33Z</time>
      </trkpt>
      <trkpt lat="46.66571" lon="5.80418">
        <ele>493.77</ele>
        <time>2020-08-29T10:03:48Z</time>
      </trkpt>
      <trkpt lat="46.66571" lon="5.80419">
        <ele>494.74</ele>
        <time>2020-08-29T10:04:18Z</time>
      </trkpt>
      <trkpt lat="46.66575" lon="5.80416">
        <ele>494.74</ele>
        <time>2020-08-29T10:04:42Z</time>
      </trkpt>
      <trkpt lat="46.66579" lon="5.80418">
        <ele>494.74</ele>
        <time>2020-08-29T10:05:07Z</time>
      </trkpt>
      <trkpt lat="46.6658" lon="5.80418">
        <ele>495.22</ele>
        <time>2020-08-29T10:05:29Z</time>
      </trkpt>
      <trkpt lat="46.66579" lon="5.80412">
        <ele>495.22</ele>
        <time>2020-08-29T10:05:41Z</time>
      </trkpt>
      <trkpt lat="46.66581" lon="5.804">
        <ele>495.7</ele>
        <time>2020-08-29T10:05:55Z</time>
      </trkpt>
      <trkpt lat="46.66579" lon="5.80396">
        <ele>495.22</ele>
        <time>2020-08-29T10:06:05Z</time>
      </trkpt>
      <trkpt lat="46.66579" lon="5.80392">
        <ele>495.22</ele>
        <time>2020-08-29T10:06:08Z</time>
      </trkpt>
      <trkpt lat="46.6658" lon="5.80369">
        <ele>495.7</ele>
        <time>2020-08-29T10:06:22Z</time>
      </trkpt>
      <trkpt lat="46.6658" lon="5.80368">
        <ele>496.18</ele>
        <time>2020-08-29T10:06:23Z</time>
      </trkpt>
      <trkpt lat="46.6658" lon="5.80349">
        <ele>496.66</ele>
        <time>2020-08-29T10:06:37Z</time>
      </trkpt>
      <trkpt lat="46.66582" lon="5.80321">
        <ele>496.66</ele>
        <time>2020-08-29T10:06:51Z</time>
      </trkpt>
      <trkpt lat="46.66584" lon="5.8032">
        <ele>496.66</ele>
        <time>2020-08-29T10:06:53Z</time>
      </trkpt>
      <trkpt lat="46.66585" lon="5.80318">
        <ele>496.66</ele>
        <time>2020-08-29T10:06:55Z</time>
      </trkpt>
      <trkpt lat="46.66594" lon="5.80291">
        <ele>495.7</ele>
        <time>2020-08-29T10:07:11Z</time>
      </trkpt>
      <trkpt lat="46.66594" lon="5.80268">
        <ele>495.7</ele>
        <time>2020-08-29T10:07:25Z</time>
      </trkpt>
      <trkpt lat="46.66595" lon="5.80256">
        <ele>497.14</ele>
        <time>2020-08-29T10:07:32Z</time>
      </trkpt>
      <trkpt lat="46.66596" lon="5.8025">
        <ele>497.14</ele>
        <time>2020-08-29T10:07:36Z</time>
      </trkpt>
      <trkpt lat="46.66598" lon="5.80225">
        <ele>497.14</ele>
        <time>2020-08-29T10:07:50Z</time>
      </trkpt>
      <trkpt lat="46.66601" lon="5.80216">
        <ele>497.62</ele>
        <time>2020-08-29T10:07:56Z</time>
      </trkpt>
      <trkpt lat="46.66608" lon="5.80206">
        <ele>498.1</ele>
        <time>2020-08-29T10:08:04Z</time>
      </trkpt>
      <trkpt lat="46.6661" lon="5.80203">
        <ele>498.1</ele>
        <time>2020-08-29T10:08:06Z</time>
      </trkpt>
      <trkpt lat="46.66612" lon="5.80188">
        <ele>498.1</ele>
        <time>2020-08-29T10:08:16Z</time>
      </trkpt>
      <trkpt lat="46.66615" lon="5.80172">
        <ele>497.14</ele>
        <time>2020-08-29T10:08:25Z</time>
      </trkpt>
      <trkpt lat="46.66618" lon="5.80161">
        <ele>497.14</ele>
        <time>2020-08-29T10:08:32Z</time>
      </trkpt>
      <trkpt lat="46.6662" lon="5.80147">
        <ele>496.66</ele>
        <time>2020-08-29T10:08:40Z</time>
      </trkpt>
      <trkpt lat="46.6662" lon="5.80133">
        <ele>496.66</ele>
        <time>2020-08-29T10:08:49Z</time>
      </trkpt>
      <trkpt lat="46.6662" lon="5.80129">
        <ele>497.62</ele>
        <time>2020-08-29T10:08:51Z</time>
      </trkpt>
      <trkpt lat="46.66621" lon="5.80111">
        <ele>498.58</ele>
        <time>2020-08-29T10:09:05Z</time>
      </trkpt>
      <trkpt lat="46.66621" lon="5.80095">
        <ele>498.58</ele>
        <time>2020-08-29T10:09:18Z</time>
      </trkpt>
      <trkpt lat="46.66622" lon="5.8009">
        <ele>498.58</ele>
        <time>2020-08-29T10:09:21Z</time>
      </trkpt>
      <trkpt lat="46.66622" lon="5.80073">
        <ele>497.62</ele>
        <time>2020-08-29T10:09:32Z</time>
      </trkpt>
      <trkpt lat="46.66626" lon="5.80051">
        <ele>496.66</ele>
        <time>2020-08-29T10:09:45Z</time>
      </trkpt>
      <trkpt lat="46.66628" lon="5.80027">
        <ele>495.7</ele>
        <time>2020-08-29T10:09:58Z</time>
      </trkpt>
      <trkpt lat="46.66629" lon="5.80008">
        <ele>495.7</ele>
        <time>2020-08-29T10:10:10Z</time>
      </trkpt>
      <trkpt lat="46.66627" lon="5.80006">
        <ele>495.7</ele>
        <time>2020-08-29T10:10:12Z</time>
      </trkpt>
      <trkpt lat="46.66619" lon="5.79982">
        <ele>498.1</ele>
        <time>2020-08-29T10:10:27Z</time>
      </trkpt>
      <trkpt lat="46.66618" lon="5.79963">
        <ele>499.06</ele>
        <time>2020-08-29T10:10:37Z</time>
      </trkpt>
      <trkpt lat="46.66618" lon="5.79949">
        <ele>499.06</ele>
        <time>2020-08-29T10:10:46Z</time>
      </trkpt>
      <trkpt lat="46.66618" lon="5.79946">
        <ele>499.06</ele>
        <time>2020-08-29T10:10:48Z</time>
      </trkpt>
      <trkpt lat="46.66617" lon="5.79925">
        <ele>498.58</ele>
        <time>2020-08-29T10:11:01Z</time>
      </trkpt>
      <trkpt lat="46.66619" lon="5.79907">
        <ele>498.58</ele>
        <time>2020-08-29T10:11:14Z</time>
      </trkpt>
      <trkpt lat="46.66621" lon="5.79887">
        <ele>498.58</ele>
        <time>2020-08-29T10:11:26Z</time>
      </trkpt>
      <trkpt lat="46.66625" lon="5.79865">
        <ele>498.58</ele>
        <time>2020-08-29T10:11:40Z</time>
      </trkpt>
      <trkpt lat="46.66628" lon="5.79845">
        <ele>497.14</ele>
        <time>2020-08-29T10:11:53Z</time>
      </trkpt>
      <trkpt lat="46.66631" lon="5.79827">
        <ele>495.7</ele>
        <time>2020-08-29T10:12:03Z</time>
      </trkpt>
      <trkpt lat="46.66627" lon="5.79805">
        <ele>495.22</ele>
        <time>2020-08-29T10:12:15Z</time>
      </trkpt>
      <trkpt lat="46.66627" lon="5.79791">
        <ele>495.22</ele>
        <time>2020-08-29T10:12:22Z</time>
      </trkpt>
      <trkpt lat="46.66629" lon="5.79784">
        <ele>495.22</ele>
        <time>2020-08-29T10:12:30Z</time>
      </trkpt>
      <trkpt lat="46.66631" lon="5.79757">
        <ele>495.7</ele>
        <time>2020-08-29T10:12:45Z</time>
      </trkpt>
      <trkpt lat="46.66633" lon="5.79737">
        <ele>494.74</ele>
        <time>2020-08-29T10:12:57Z</time>
      </trkpt>
      <trkpt lat="46.66634" lon="5.79712">
        <ele>494.26</ele>
        <time>2020-08-29T10:13:12Z</time>
      </trkpt>
      <trkpt lat="46.66628" lon="5.79689">
        <ele>494.26</ele>
        <time>2020-08-29T10:13:22Z</time>
      </trkpt>
      <trkpt lat="46.66627" lon="5.79675">
        <ele>494.26</ele>
        <time>2020-08-29T10:13:31Z</time>
      </trkpt>
      <trkpt lat="46.66627" lon="5.79673">
        <ele>494.26</ele>
        <time>2020-08-29T10:13:32Z</time>
      </trkpt>
      <trkpt lat="46.66626" lon="5.79667">
        <ele>494.26</ele>
        <time>2020-08-29T10:13:35Z</time>
      </trkpt>
      <trkpt lat="46.66629" lon="5.79659">
        <ele>494.26</ele>
        <time>2020-08-29T10:13:42Z</time>
      </trkpt>
      <trkpt lat="46.66628" lon="5.79657">
        <ele>494.26</ele>
        <time>2020-08-29T10:13:43Z</time>
      </trkpt>
      <trkpt lat="46.66628" lon="5.79654">
        <ele>494.26</ele>
        <time>2020-08-29T10:13:44Z</time>
      </trkpt>
      <trkpt lat="46.66628" lon="5.79635">
        <ele>494.26</ele>
        <time>2020-08-29T10:13:56Z</time>
      </trkpt>
      <trkpt lat="46.66625" lon="5.79626">
        <ele>494.26</ele>
        <time>2020-08-29T10:13:59Z</time>
      </trkpt>
      <trkpt lat="46.66625" lon="5.79624">
        <ele>494.26</ele>
        <time>2020-08-29T10:14:00Z</time>
      </trkpt>
      <trkpt lat="46.66624" lon="5.79622">
        <ele>494.26</ele>
        <time>2020-08-29T10:14:01Z</time>
      </trkpt>
      <trkpt lat="46.66625" lon="5.79603">
        <ele>495.7</ele>
        <time>2020-08-29T10:14:15Z</time>
      </trkpt>
      <trkpt lat="46.66625" lon="5.7957">
        <ele>495.7</ele>
        <time>2020-08-29T10:14:33Z</time>
      </trkpt>
      <trkpt lat="46.66625" lon="5.79569">
        <ele>495.7</ele>
        <time>2020-08-29T10:14:34Z</time>
      </trkpt>
      <trkpt lat="46.66625" lon="5.79567">
        <ele>495.7</ele>
        <time>2020-08-29T10:14:35Z</time>
      </trkpt>
      <trkpt lat="46.66625" lon="5.79555">
        <ele>496.66</ele>
        <time>2020-08-29T10:14:44Z</time>
      </trkpt>
      <trkpt lat="46.66622" lon="5.79534">
        <ele>497.62</ele>
        <time>2020-08-29T10:14:56Z</time>
      </trkpt>
      <trkpt lat="46.66621" lon="5.79509">
        <ele>497.62</ele>
        <time>2020-08-29T10:15:09Z</time>
      </trkpt>
      <trkpt lat="46.66621" lon="5.79487">
        <ele>498.1</ele>
        <time>2020-08-29T10:15:23Z</time>
      </trkpt>
      <trkpt lat="46.66622" lon="5.79464">
        <ele>498.58</ele>
        <time>2020-08-29T10:15:36Z</time>
      </trkpt>
      <trkpt lat="46.66619" lon="5.79439">
        <ele>499.06</ele>
        <time>2020-08-29T10:15:50Z</time>
      </trkpt>
      <trkpt lat="46.66619" lon="5.79437">
        <ele>499.06</ele>
        <time>2020-08-29T10:15:51Z</time>
      </trkpt>
      <trkpt lat="46.66619" lon="5.79435">
        <ele>499.06</ele>
        <time>2020-08-29T10:15:52Z</time>
      </trkpt>
      <trkpt lat="46.66616" lon="5.79411">
        <ele>500.02</ele>
        <time>2020-08-29T10:16:06Z</time>
      </trkpt>
      <trkpt lat="46.66617" lon="5.79402">
        <ele>500.02</ele>
        <time>2020-08-29T10:16:13Z</time>
      </trkpt>
      <trkpt lat="46.66617" lon="5.794">
        <ele>500.02</ele>
        <time>2020-08-29T10:16:14Z</time>
      </trkpt>
      <trkpt lat="46.66616" lon="5.79399">
        <ele>500.02</ele>
        <time>2020-08-29T10:16:15Z</time>
      </trkpt>
      <trkpt lat="46.66616" lon="5.79397">
        <ele>500.02</ele>
        <time>2020-08-29T10:16:16Z</time>
      </trkpt>
      <trkpt lat="46.66615" lon="5.79395">
        <ele>500.02</ele>
        <time>2020-08-29T10:16:17Z</time>
      </trkpt>
      <trkpt lat="46.66617" lon="5.79383">
        <ele>500.5</ele>
        <time>2020-08-29T10:16:25Z</time>
      </trkpt>
      <trkpt lat="46.66617" lon="5.79381">
        <ele>500.5</ele>
        <time>2020-08-29T10:16:26Z</time>
      </trkpt>
      <trkpt lat="46.66612" lon="5.79367">
        <ele>501.46</ele>
        <time>2020-08-29T10:16:39Z</time>
      </trkpt>
      <trkpt lat="46.66612" lon="5.79366">
        <ele>501.46</ele>
        <time>2020-08-29T10:16:40Z</time>
      </trkpt>
      <trkpt lat="46.66611" lon="5.79361">
        <ele>501.46</ele>
        <time>2020-08-29T10:16:44Z</time>
      </trkpt>
      <trkpt lat="46.6661" lon="5.7936">
        <ele>501.46</ele>
        <time>2020-08-29T10:16:45Z</time>
      </trkpt>
      <trkpt lat="46.6661" lon="5.79358">
        <ele>501.46</ele>
        <time>2020-08-29T10:16:46Z</time>
      </trkpt>
      <trkpt lat="46.66611" lon="5.79336">
        <ele>501.95</ele>
        <time>2020-08-29T10:16:59Z</time>
      </trkpt>
      <trkpt lat="46.66612" lon="5.79331">
        <ele>502.43</ele>
        <time>2020-08-29T10:17:02Z</time>
      </trkpt>
      <trkpt lat="46.66612" lon="5.79329">
        <ele>502.43</ele>
        <time>2020-08-29T10:17:03Z</time>
      </trkpt>
      <trkpt lat="46.6661" lon="5.79306">
        <ele>502.43</ele>
        <time>2020-08-29T10:17:15Z</time>
      </trkpt>
      <trkpt lat="46.66609" lon="5.79298">
        <ele>502.91</ele>
        <time>2020-08-29T10:17:21Z</time>
      </trkpt>
      <trkpt lat="46.66606" lon="5.79278">
        <ele>503.87</ele>
        <time>2020-08-29T10:17:33Z</time>
      </trkpt>
      <trkpt lat="46.66605" lon="5.79263">
        <ele>504.83</ele>
        <time>2020-08-29T10:17:45Z</time>
      </trkpt>
      <trkpt lat="46.66604" lon="5.79235">
        <ele>505.79</ele>
        <time>2020-08-29T10:17:58Z</time>
      </trkpt>
      <trkpt lat="46.66603" lon="5.79232">
        <ele>505.79</ele>
        <time>2020-08-29T10:18:00Z</time>
      </trkpt>
      <trkpt lat="46.66603" lon="5.79229">
        <ele>505.79</ele>
        <time>2020-08-29T10:18:01Z</time>
      </trkpt>
      <trkpt lat="46.66603" lon="5.79226">
        <ele>505.79</ele>
        <time>2020-08-29T10:18:02Z</time>
      </trkpt>
      <trkpt lat="46.66603" lon="5.79224">
        <ele>506.27</ele>
        <time>2020-08-29T10:18:03Z</time>
      </trkpt>
      <trkpt lat="46.66603" lon="5.79221">
        <ele>506.27</ele>
        <time>2020-08-29T10:18:04Z</time>
      </trkpt>
      <trkpt lat="46.66603" lon="5.79219">
        <ele>506.27</ele>
        <time>2020-08-29T10:18:05Z</time>
      </trkpt>
      <trkpt lat="46.666" lon="5.79197">
        <ele>506.27</ele>
        <time>2020-08-29T10:18:19Z</time>
      </trkpt>
      <trkpt lat="46.66601" lon="5.79194">
        <ele>506.27</ele>
        <time>2020-08-29T10:18:22Z</time>
      </trkpt>
      <trkpt lat="46.66601" lon="5.79191">
        <ele>506.75</ele>
        <time>2020-08-29T10:18:23Z</time>
      </trkpt>
      <trkpt lat="46.666" lon="5.79189">
        <ele>506.75</ele>
        <time>2020-08-29T10:18:24Z</time>
      </trkpt>
      <trkpt lat="46.66601" lon="5.79172">
        <ele>507.23</ele>
        <time>2020-08-29T10:18:34Z</time>
      </trkpt>
      <trkpt lat="46.66601" lon="5.7917">
        <ele>507.23</ele>
        <time>2020-08-29T10:18:35Z</time>
      </trkpt>
      <trkpt lat="46.666" lon="5.79168">
        <ele>507.71</ele>
        <time>2020-08-29T10:18:36Z</time>
      </trkpt>
      <trkpt lat="46.666" lon="5.79158">
        <ele>507.71</ele>
        <time>2020-08-29T10:18:49Z</time>
      </trkpt>
      <trkpt lat="46.66597" lon="5.79143">
        <ele>508.67</ele>
        <time>2020-08-29T10:19:01Z</time>
      </trkpt>
      <trkpt lat="46.66597" lon="5.79141">
        <ele>508.67</ele>
        <time>2020-08-29T10:19:02Z</time>
      </trkpt>
      <trkpt lat="46.66596" lon="5.79139">
        <ele>509.16</ele>
        <time>2020-08-29T10:19:03Z</time>
      </trkpt>
      <trkpt lat="46.66596" lon="5.79137">
        <ele>508.67</ele>
        <time>2020-08-29T10:19:04Z</time>
      </trkpt>
      <trkpt lat="46.66596" lon="5.79114">
        <ele>509.16</ele>
        <time>2020-08-29T10:19:18Z</time>
      </trkpt>
      <trkpt lat="46.66599" lon="5.79099">
        <ele>509.16</ele>
        <time>2020-08-29T10:19:26Z</time>
      </trkpt>
      <trkpt lat="46.66599" lon="5.7908">
        <ele>510.12</ele>
        <time>2020-08-29T10:19:38Z</time>
      </trkpt>
      <trkpt lat="46.66595" lon="5.79066">
        <ele>510.6</ele>
        <time>2020-08-29T10:19:48Z</time>
      </trkpt>
      <trkpt lat="46.66594" lon="5.79058">
        <ele>512.04</ele>
        <time>2020-08-29T10:19:52Z</time>
      </trkpt>
      <trkpt lat="46.66592" lon="5.79049">
        <ele>510.6</ele>
        <time>2020-08-29T10:19:57Z</time>
      </trkpt>
      <trkpt lat="46.66591" lon="5.7904">
        <ele>510.6</ele>
        <time>2020-08-29T10:20:09Z</time>
      </trkpt>
      <trkpt lat="46.66589" lon="5.79032">
        <ele>510.6</ele>
        <time>2020-08-29T10:20:21Z</time>
      </trkpt>
      <trkpt lat="46.66586" lon="5.79022">
        <ele>511.56</ele>
        <time>2020-08-29T10:20:29Z</time>
      </trkpt>
      <trkpt lat="46.66585" lon="5.7902">
        <ele>511.56</ele>
        <time>2020-08-29T10:20:30Z</time>
      </trkpt>
      <trkpt lat="46.66585" lon="5.78997">
        <ele>512.52</ele>
        <time>2020-08-29T10:20:44Z</time>
      </trkpt>
      <trkpt lat="46.66579" lon="5.78973">
        <ele>513.48</ele>
        <time>2020-08-29T10:21:00Z</time>
      </trkpt>
      <trkpt lat="46.66574" lon="5.78956">
        <ele>513.96</ele>
        <time>2020-08-29T10:21:18Z</time>
      </trkpt>
      <trkpt lat="46.66565" lon="5.78934">
        <ele>514.44</ele>
        <time>2020-08-29T10:21:32Z</time>
      </trkpt>
      <trkpt lat="46.66557" lon="5.78914">
        <ele>515.88</ele>
        <time>2020-08-29T10:21:47Z</time>
      </trkpt>
      <trkpt lat="46.66548" lon="5.78899">
        <ele>516.85</ele>
        <time>2020-08-29T10:22:01Z</time>
      </trkpt>
      <trkpt lat="46.66544" lon="5.78892">
        <ele>517.33</ele>
        <time>2020-08-29T10:22:08Z</time>
      </trkpt>
      <trkpt lat="46.66542" lon="5.7889">
        <ele>517.33</ele>
        <time>2020-08-29T10:22:09Z</time>
      </trkpt>
      <trkpt lat="46.66537" lon="5.78882">
        <ele>517.81</ele>
        <time>2020-08-29T10:22:16Z</time>
      </trkpt>
      <trkpt lat="46.66536" lon="5.7888">
        <ele>517.81</ele>
        <time>2020-08-29T10:22:17Z</time>
      </trkpt>
      <trkpt lat="46.66532" lon="5.78873">
        <ele>518.77</ele>
        <time>2020-08-29T10:22:23Z</time>
      </trkpt>
      <trkpt lat="46.66531" lon="5.78872">
        <ele>518.77</ele>
        <time>2020-08-29T10:22:24Z</time>
      </trkpt>
      <trkpt lat="46.6653" lon="5.78871">
        <ele>518.77</ele>
        <time>2020-08-29T10:22:25Z</time>
      </trkpt>
      <trkpt lat="46.66529" lon="5.78867">
        <ele>519.25</ele>
        <time>2020-08-29T10:22:29Z</time>
      </trkpt>
      <trkpt lat="46.66528" lon="5.78866">
        <ele>519.25</ele>
        <time>2020-08-29T10:22:30Z</time>
      </trkpt>
      <trkpt lat="46.66526" lon="5.7886">
        <ele>520.21</ele>
        <time>2020-08-29T10:22:36Z</time>
      </trkpt>
      <trkpt lat="46.66518" lon="5.78844">
        <ele>522.61</ele>
        <time>2020-08-29T10:22:54Z</time>
      </trkpt>
      <trkpt lat="46.66512" lon="5.78836">
        <ele>524.06</ele>
        <time>2020-08-29T10:23:01Z</time>
      </trkpt>
      <trkpt lat="46.66508" lon="5.78827">
        <ele>524.54</ele>
        <time>2020-08-29T10:23:06Z</time>
      </trkpt>
      <trkpt lat="46.66502" lon="5.78817">
        <ele>525.5</ele>
        <time>2020-08-29T10:23:13Z</time>
      </trkpt>
      <trkpt lat="46.66502" lon="5.78815">
        <ele>525.5</ele>
        <time>2020-08-29T10:23:14Z</time>
      </trkpt>
      <trkpt lat="46.66501" lon="5.78813">
        <ele>525.98</ele>
        <time>2020-08-29T10:23:15Z</time>
      </trkpt>
      <trkpt lat="46.66497" lon="5.7881">
        <ele>526.94</ele>
        <time>2020-08-29T10:23:20Z</time>
      </trkpt>
      <trkpt lat="46.66495" lon="5.78809">
        <ele>526.94</ele>
        <time>2020-08-29T10:23:21Z</time>
      </trkpt>
      <trkpt lat="46.66485" lon="5.78802">
        <ele>527.9</ele>
        <time>2020-08-29T10:23:30Z</time>
      </trkpt>
      <trkpt lat="46.6648" lon="5.788">
        <ele>527.42</ele>
        <time>2020-08-29T10:23:40Z</time>
      </trkpt>
      <trkpt lat="46.66476" lon="5.788">
        <ele>528.38</ele>
        <time>2020-08-29T10:23:48Z</time>
      </trkpt>
      <trkpt lat="46.66468" lon="5.78797">
        <ele>528.38</ele>
        <time>2020-08-29T10:23:53Z</time>
      </trkpt>
      <trkpt lat="46.66464" lon="5.78794">
        <ele>528.38</ele>
        <time>2020-08-29T10:24:00Z</time>
      </trkpt>
      <trkpt lat="46.6645" lon="5.78788">
        <ele>528.38</ele>
        <time>2020-08-29T10:24:12Z</time>
      </trkpt>
      <trkpt lat="46.66436" lon="5.78783">
        <ele>528.38</ele>
        <time>2020-08-29T10:24:23Z</time>
      </trkpt>
      <trkpt lat="46.66423" lon="5.78782">
        <ele>526.94</ele>
        <time>2020-08-29T10:24:34Z</time>
      </trkpt>
      <trkpt lat="46.66416" lon="5.78783">
        <ele>526.94</ele>
        <time>2020-08-29T10:24:40Z</time>
      </trkpt>
      <trkpt lat="46.66398" lon="5.78794">
        <ele>526.94</ele>
        <time>2020-08-29T10:24:59Z</time>
      </trkpt>
      <trkpt lat="46.66395" lon="5.78794">
        <ele>528.38</ele>
        <time>2020-08-29T10:25:01Z</time>
      </trkpt>
      <trkpt lat="46.66384" lon="5.78785">
        <ele>528.38</ele>
        <time>2020-08-29T10:25:06Z</time>
      </trkpt>
      <trkpt lat="46.66382" lon="5.78786">
        <ele>528.38</ele>
        <time>2020-08-29T10:25:07Z</time>
      </trkpt>
      <trkpt lat="46.6638" lon="5.78787">
        <ele>528.38</ele>
        <time>2020-08-29T10:25:08Z</time>
      </trkpt>
      <trkpt lat="46.66379" lon="5.78788">
        <ele>528.38</ele>
        <time>2020-08-29T10:25:09Z</time>
      </trkpt>
      <trkpt lat="46.66377" lon="5.78789">
        <ele>528.38</ele>
        <time>2020-08-29T10:25:14Z</time>
      </trkpt>
      <trkpt lat="46.66374" lon="5.7879">
        <ele>528.86</ele>
        <time>2020-08-29T10:25:24Z</time>
      </trkpt>
      <trkpt lat="46.66368" lon="5.78796">
        <ele>529.82</ele>
        <time>2020-08-29T10:25:39Z</time>
      </trkpt>
      <trkpt lat="46.66364" lon="5.78797">
        <ele>530.3</ele>
        <time>2020-08-29T10:26:04Z</time>
      </trkpt>
      <trkpt lat="46.66362" lon="5.78808">
        <ele>530.79</ele>
        <time>2020-08-29T10:26:21Z</time>
      </trkpt>
      <trkpt lat="46.66347" lon="5.78823">
        <ele>533.19</ele>
        <time>2020-08-29T10:26:39Z</time>
      </trkpt>
      <trkpt lat="46.66335" lon="5.78829">
        <ele>535.11</ele>
        <time>2020-08-29T10:26:55Z</time>
      </trkpt>
      <trkpt lat="46.6632" lon="5.78836">
        <ele>537.03</ele>
        <time>2020-08-29T10:27:12Z</time>
      </trkpt>
      <trkpt lat="46.66312" lon="5.78853">
        <ele>538.96</ele>
        <time>2020-08-29T10:27:27Z</time>
      </trkpt>
      <trkpt lat="46.66299" lon="5.78865">
        <ele>541.84</ele>
        <time>2020-08-29T10:27:44Z</time>
      </trkpt>
      <trkpt lat="46.66286" lon="5.78868">
        <ele>544.24</ele>
        <time>2020-08-29T10:27:59Z</time>
      </trkpt>
      <trkpt lat="46.66273" lon="5.78874">
        <ele>545.69</ele>
        <time>2020-08-29T10:28:12Z</time>
      </trkpt>
      <trkpt lat="46.66262" lon="5.78882">
        <ele>548.09</ele>
        <time>2020-08-29T10:28:28Z</time>
      </trkpt>
      <trkpt lat="46.66251" lon="5.78886">
        <ele>551.45</ele>
        <time>2020-08-29T10:28:45Z</time>
      </trkpt>
      <trkpt lat="46.6625" lon="5.78893">
        <ele>552.41</ele>
        <time>2020-08-29T10:29:00Z</time>
      </trkpt>
      <trkpt lat="46.66253" lon="5.78905">
        <ele>552.9</ele>
        <time>2020-08-29T10:29:27Z</time>
      </trkpt>
      <trkpt lat="46.66242" lon="5.7889">
        <ele>554.34</ele>
        <time>2020-08-29T10:29:51Z</time>
      </trkpt>
      <trkpt lat="46.66228" lon="5.78893">
        <ele>556.74</ele>
        <time>2020-08-29T10:30:07Z</time>
      </trkpt>
      <trkpt lat="46.66225" lon="5.78899">
        <ele>557.22</ele>
        <time>2020-08-29T10:30:12Z</time>
      </trkpt>
      <trkpt lat="46.66227" lon="5.78921">
        <ele>558.18</ele>
        <time>2020-08-29T10:30:27Z</time>
      </trkpt>
      <trkpt lat="46.66235" lon="5.78931">
        <ele>559.14</ele>
        <time>2020-08-29T10:30:42Z</time>
      </trkpt>
      <trkpt lat="46.66246" lon="5.78944">
        <ele>560.11</ele>
        <time>2020-08-29T10:30:58Z</time>
      </trkpt>
      <trkpt lat="46.66263" lon="5.78958">
        <ele>562.51</ele>
        <time>2020-08-29T10:31:16Z</time>
      </trkpt>
      <trkpt lat="46.66271" lon="5.78968">
        <ele>564.43</ele>
        <time>2020-08-29T10:31:29Z</time>
      </trkpt>
      <trkpt lat="46.66276" lon="5.78971">
        <ele>565.87</ele>
        <time>2020-08-29T10:31:46Z</time>
      </trkpt>
      <trkpt lat="46.66279" lon="5.78967">
        <ele>565.87</ele>
        <time>2020-08-29T10:32:02Z</time>
      </trkpt>
      <trkpt lat="46.66272" lon="5.78977">
        <ele>567.8</ele>
        <time>2020-08-29T10:32:27Z</time>
      </trkpt>
      <trkpt lat="46.66288" lon="5.7898">
        <ele>570.68</ele>
        <time>2020-08-29T10:32:47Z</time>
      </trkpt>
      <trkpt lat="46.66308" lon="5.78977">
        <ele>571.16</ele>
        <time>2020-08-29T10:33:09Z</time>
      </trkpt>
      <trkpt lat="46.66336" lon="5.78989">
        <ele>574.53</ele>
        <time>2020-08-29T10:33:34Z</time>
      </trkpt>
      <trkpt lat="46.66351" lon="5.79001">
        <ele>577.89</ele>
        <time>2020-08-29T10:33:57Z</time>
      </trkpt>
      <trkpt lat="46.66351" lon="5.79001">
        <ele>577.89</ele>
        <time>2020-08-29T10:33:58Z</time>
      </trkpt>
      <trkpt lat="46.66369" lon="5.79021">
        <ele>581.25</ele>
        <time>2020-08-29T10:34:22Z</time>
      </trkpt>
      <trkpt lat="46.66374" lon="5.79025">
        <ele>581.73</ele>
        <time>2020-08-29T10:34:28Z</time>
      </trkpt>
      <trkpt lat="46.66379" lon="5.79036">
        <ele>580.77</ele>
        <time>2020-08-29T10:34:36Z</time>
      </trkpt>
      <trkpt lat="46.66381" lon="5.7904">
        <ele>582.22</ele>
        <time>2020-08-29T10:34:38Z</time>
      </trkpt>
      <trkpt lat="46.66391" lon="5.79064">
        <ele>585.58</ele>
        <time>2020-08-29T10:34:56Z</time>
      </trkpt>
      <trkpt lat="46.66395" lon="5.79069">
        <ele>587.02</ele>
        <time>2020-08-29T10:35:01Z</time>
      </trkpt>
      <trkpt lat="46.6642" lon="5.79055">
        <ele>588.46</ele>
        <time>2020-08-29T10:35:27Z</time>
      </trkpt>
      <trkpt lat="46.66436" lon="5.79063">
        <ele>591.83</ele>
        <time>2020-08-29T10:35:51Z</time>
      </trkpt>
      <trkpt lat="46.66452" lon="5.79079">
        <ele>593.27</ele>
        <time>2020-08-29T10:36:13Z</time>
      </trkpt>
      <trkpt lat="46.66453" lon="5.79081">
        <ele>593.27</ele>
        <time>2020-08-29T10:36:14Z</time>
      </trkpt>
      <trkpt lat="46.66473" lon="5.79085">
        <ele>593.27</ele>
        <time>2020-08-29T10:36:37Z</time>
      </trkpt>
      <trkpt lat="46.6647" lon="5.79089">
        <ele>592.79</ele>
        <time>2020-08-29T10:37:00Z</time>
      </trkpt>
      <trkpt lat="46.66461" lon="5.79092">
        <ele>591.35</ele>
        <time>2020-08-29T10:37:17Z</time>
      </trkpt>
      <trkpt lat="46.66461" lon="5.7909">
        <ele>592.79</ele>
        <time>2020-08-29T10:37:21Z</time>
      </trkpt>
      <trkpt lat="46.66469" lon="5.79085">
        <ele>591.35</ele>
        <time>2020-08-29T10:37:28Z</time>
      </trkpt>
      <trkpt lat="46.6647" lon="5.79084">
        <ele>592.79</ele>
        <time>2020-08-29T10:37:30Z</time>
      </trkpt>
      <trkpt lat="46.66471" lon="5.79083">
        <ele>591.35</ele>
        <time>2020-08-29T10:37:32Z</time>
      </trkpt>
      <trkpt lat="46.66464" lon="5.79076">
        <ele>592.31</ele>
        <time>2020-08-29T10:37:45Z</time>
      </trkpt>
      <trkpt lat="46.66458" lon="5.79083">
        <ele>590.39</ele>
        <time>2020-08-29T10:38:07Z</time>
      </trkpt>
      <trkpt lat="46.6646" lon="5.79087">
        <ele>590.39</ele>
        <time>2020-08-29T10:38:14Z</time>
      </trkpt>
      <trkpt lat="46.6646" lon="5.79088">
        <ele>589.91</ele>
        <time>2020-08-29T10:38:45Z</time>
      </trkpt>
      <trkpt lat="46.66459" lon="5.79083">
        <ele>589.91</ele>
        <time>2020-08-29T10:39:16Z</time>
      </trkpt>
      <trkpt lat="46.66459" lon="5.7909">
        <ele>590.87</ele>
        <time>2020-08-29T10:39:47Z</time>
      </trkpt>
      <trkpt lat="46.66462" lon="5.79089">
        <ele>590.87</ele>
        <time>2020-08-29T10:40:13Z</time>
      </trkpt>
      <trkpt lat="46.66458" lon="5.79084">
        <ele>590.39</ele>
        <time>2020-08-29T10:40:33Z</time>
      </trkpt>
      <trkpt lat="46.6646" lon="5.79083">
        <ele>590.39</ele>
        <time>2020-08-29T10:40:57Z</time>
      </trkpt>
      <trkpt lat="46.66464" lon="5.79087">
        <ele>590.39</ele>
        <time>2020-08-29T10:41:24Z</time>
      </trkpt>
      <trkpt lat="46.66459" lon="5.79091">
        <ele>590.39</ele>
        <time>2020-08-29T10:41:47Z</time>
      </trkpt>
      <trkpt lat="46.66462" lon="5.79099">
        <ele>590.39</ele>
        <time>2020-08-29T10:42:09Z</time>
      </trkpt>
      <trkpt lat="46.66465" lon="5.79101">
        <ele>590.39</ele>
        <time>2020-08-29T10:42:33Z</time>
      </trkpt>
      <trkpt lat="46.6647" lon="5.79114">
        <ele>590.87</ele>
        <time>2020-08-29T10:42:44Z</time>
      </trkpt>
      <trkpt lat="46.66475" lon="5.79123">
        <ele>590.87</ele>
        <time>2020-08-29T10:43:07Z</time>
      </trkpt>
      <trkpt lat="46.66489" lon="5.79123">
        <ele>590.87</ele>
        <time>2020-08-29T10:43:30Z</time>
      </trkpt>
      <trkpt lat="46.66492" lon="5.79128">
        <ele>590.87</ele>
        <time>2020-08-29T10:43:52Z</time>
      </trkpt>
      <trkpt lat="46.66492" lon="5.79129">
        <ele>590.87</ele>
        <time>2020-08-29T10:44:10Z</time>
      </trkpt>
      <trkpt lat="46.66489" lon="5.79121">
        <ele>590.87</ele>
        <time>2020-08-29T10:44:34Z</time>
      </trkpt>
      <trkpt lat="46.66489" lon="5.79126">
        <ele>590.87</ele>
        <time>2020-08-29T10:45:00Z</time>
      </trkpt>
      <trkpt lat="46.66489" lon="5.79119">
        <ele>588.46</ele>
        <time>2020-08-29T10:45:08Z</time>
      </trkpt>
      <trkpt lat="46.66489" lon="5.7912">
        <ele>590.39</ele>
        <time>2020-08-29T10:45:10Z</time>
      </trkpt>
      <trkpt lat="46.66486" lon="5.79123">
        <ele>587.98</ele>
        <time>2020-08-29T10:45:31Z</time>
      </trkpt>
      <trkpt lat="46.66486" lon="5.79124">
        <ele>591.35</ele>
        <time>2020-08-29T10:45:32Z</time>
      </trkpt>
      <trkpt lat="46.66486" lon="5.79127">
        <ele>588.46</ele>
        <time>2020-08-29T10:45:39Z</time>
      </trkpt>
      <trkpt lat="46.66487" lon="5.79128">
        <ele>591.35</ele>
        <time>2020-08-29T10:45:40Z</time>
      </trkpt>
      <trkpt lat="46.66486" lon="5.79131">
        <ele>590.39</ele>
        <time>2020-08-29T10:46:04Z</time>
      </trkpt>
      <trkpt lat="46.66486" lon="5.79111">
        <ele>590.39</ele>
        <time>2020-08-29T10:46:36Z</time>
      </trkpt>
      <trkpt lat="46.66484" lon="5.79116">
        <ele>589.43</ele>
        <time>2020-08-29T10:47:03Z</time>
      </trkpt>
      <trkpt lat="46.66483" lon="5.79111">
        <ele>589.43</ele>
        <time>2020-08-29T10:47:28Z</time>
      </trkpt>
      <trkpt lat="46.66483" lon="5.79102">
        <ele>588.95</ele>
        <time>2020-08-29T10:47:35Z</time>
      </trkpt>
      <trkpt lat="46.6649" lon="5.79115">
        <ele>588.95</ele>
        <time>2020-08-29T10:47:57Z</time>
      </trkpt>
      <trkpt lat="46.66486" lon="5.79124">
        <ele>589.91</ele>
        <time>2020-08-29T10:48:17Z</time>
      </trkpt>
      <trkpt lat="46.6648" lon="5.79126">
        <ele>587.98</ele>
        <time>2020-08-29T10:48:41Z</time>
      </trkpt>
      <trkpt lat="46.6648" lon="5.79126">
        <ele>587.98</ele>
        <time>2020-08-29T10:48:42Z</time>
      </trkpt>
      <trkpt lat="46.6648" lon="5.79128">
        <ele>590.87</ele>
        <time>2020-08-29T10:48:44Z</time>
      </trkpt>
      <trkpt lat="46.6648" lon="5.79132">
        <ele>587.5</ele>
        <time>2020-08-29T10:48:45Z</time>
      </trkpt>
      <trkpt lat="46.66482" lon="5.7914">
        <ele>587.98</ele>
        <time>2020-08-29T10:48:50Z</time>
      </trkpt>
      <trkpt lat="46.66483" lon="5.7913">
        <ele>588.46</ele>
        <time>2020-08-29T10:49:12Z</time>
      </trkpt>
      <trkpt lat="46.66487" lon="5.79117">
        <ele>587.98</ele>
        <time>2020-08-29T10:49:35Z</time>
      </trkpt>
      <trkpt lat="46.66487" lon="5.79119">
        <ele>589.43</ele>
        <time>2020-08-29T10:49:53Z</time>
      </trkpt>
      <trkpt lat="46.66487" lon="5.79121">
        <ele>589.43</ele>
        <time>2020-08-29T10:50:23Z</time>
      </trkpt>
      <trkpt lat="46.66487" lon="5.79122">
        <ele>589.43</ele>
        <time>2020-08-29T10:50:47Z</time>
      </trkpt>
      <trkpt lat="46.6649" lon="5.79122">
        <ele>588.46</ele>
        <time>2020-08-29T10:51:12Z</time>
      </trkpt>
      <trkpt lat="46.66491" lon="5.7912">
        <ele>588.46</ele>
        <time>2020-08-29T10:51:45Z</time>
      </trkpt>
      <trkpt lat="46.6649" lon="5.79117">
        <ele>588.95</ele>
        <time>2020-08-29T10:52:09Z</time>
      </trkpt>
      <trkpt lat="46.66488" lon="5.79119">
        <ele>588.95</ele>
        <time>2020-08-29T10:52:47Z</time>
      </trkpt>
      <trkpt lat="46.66489" lon="5.79118">
        <ele>588.95</ele>
        <time>2020-08-29T10:53:13Z</time>
      </trkpt>
      <trkpt lat="46.66488" lon="5.79119">
        <ele>588.95</ele>
        <time>2020-08-29T10:53:38Z</time>
      </trkpt>
      <trkpt lat="46.6649" lon="5.79119">
        <ele>588.95</ele>
        <time>2020-08-29T10:54:17Z</time>
      </trkpt>
      <trkpt lat="46.6649" lon="5.7912">
        <ele>588.95</ele>
        <time>2020-08-29T10:54:48Z</time>
      </trkpt>
      <trkpt lat="46.6649" lon="5.79119">
        <ele>588.95</ele>
        <time>2020-08-29T10:55:20Z</time>
      </trkpt>
      <trkpt lat="46.6649" lon="5.79119">
        <ele>589.43</ele>
        <time>2020-08-29T10:55:49Z</time>
      </trkpt>
      <trkpt lat="46.6649" lon="5.79119">
        <ele>589.43</ele>
        <time>2020-08-29T10:56:20Z</time>
      </trkpt>
      <trkpt lat="46.66489" lon="5.79118">
        <ele>589.43</ele>
        <time>2020-08-29T10:56:46Z</time>
      </trkpt>
      <trkpt lat="46.6649" lon="5.79118">
        <ele>589.43</ele>
        <time>2020-08-29T10:57:19Z</time>
      </trkpt>
      <trkpt lat="46.66489" lon="5.79118">
        <ele>588.95</ele>
        <time>2020-08-29T10:57:50Z</time>
      </trkpt>
      <trkpt lat="46.66487" lon="5.79117">
        <ele>588.95</ele>
        <time>2020-08-29T10:58:16Z</time>
      </trkpt>
      <trkpt lat="46.66486" lon="5.79118">
        <ele>588.95</ele>
        <time>2020-08-29T10:58:43Z</time>
      </trkpt>
      <trkpt lat="46.66486" lon="5.79121">
        <ele>589.43</ele>
        <time>2020-08-29T10:59:09Z</time>
      </trkpt>
      <trkpt lat="46.66488" lon="5.79121">
        <ele>589.43</ele>
        <time>2020-08-29T10:59:37Z</time>
      </trkpt>
      <trkpt lat="46.6649" lon="5.79121">
        <ele>589.43</ele>
        <time>2020-08-29T10:59:56Z</time>
      </trkpt>
      <trkpt lat="46.66489" lon="5.79122">
        <ele>589.43</ele>
        <time>2020-08-29T11:00:14Z</time>
      </trkpt>
      <trkpt lat="46.66488" lon="5.79124">
        <ele>589.43</ele>
        <time>2020-08-29T11:00:44Z</time>
      </trkpt>
      <trkpt lat="46.66488" lon="5.79123">
        <ele>589.91</ele>
        <time>2020-08-29T11:01:09Z</time>
      </trkpt>
      <trkpt lat="46.6649" lon="5.79117">
        <ele>589.91</ele>
        <time>2020-08-29T11:01:40Z</time>
      </trkpt>
      <trkpt lat="46.6649" lon="5.79117">
        <ele>589.91</ele>
        <time>2020-08-29T11:02:14Z</time>
      </trkpt>
      <trkpt lat="46.66489" lon="5.79119">
        <ele>589.91</ele>
        <time>2020-08-29T11:02:44Z</time>
      </trkpt>
      <trkpt lat="46.6649" lon="5.79121">
        <ele>589.91</ele>
        <time>2020-08-29T11:03:10Z</time>
      </trkpt>
      <trkpt lat="46.66489" lon="5.79119">
        <ele>589.91</ele>
        <time>2020-08-29T11:03:32Z</time>
      </trkpt>
      <trkpt lat="46.66488" lon="5.79122">
        <ele>589.91</ele>
        <time>2020-08-29T11:03:54Z</time>
      </trkpt>
      <trkpt lat="46.66486" lon="5.79123">
        <ele>590.39</ele>
        <time>2020-08-29T11:04:19Z</time>
      </trkpt>
      <trkpt lat="46.66486" lon="5.79122">
        <ele>590.39</ele>
        <time>2020-08-29T11:04:50Z</time>
      </trkpt>
      <trkpt lat="46.66488" lon="5.79121">
        <ele>590.39</ele>
        <time>2020-08-29T11:05:15Z</time>
      </trkpt>
      <trkpt lat="46.6649" lon="5.79121">
        <ele>590.39</ele>
        <time>2020-08-29T11:05:41Z</time>
      </trkpt>
      <trkpt lat="46.66489" lon="5.79118">
        <ele>590.39</ele>
        <time>2020-08-29T11:06:12Z</time>
      </trkpt>
      <trkpt lat="46.66489" lon="5.79118">
        <ele>590.39</ele>
        <time>2020-08-29T11:06:43Z</time>
      </trkpt>
      <trkpt lat="46.66489" lon="5.79121">
        <ele>590.39</ele>
        <time>2020-08-29T11:07:14Z</time>
      </trkpt>
      <trkpt lat="46.66489" lon="5.79119">
        <ele>590.39</ele>
        <time>2020-08-29T11:07:44Z</time>
      </trkpt>
      <trkpt lat="46.66489" lon="5.7912">
        <ele>590.39</ele>
        <time>2020-08-29T11:08:09Z</time>
      </trkpt>
      <trkpt lat="46.66487" lon="5.79121">
        <ele>590.39</ele>
        <time>2020-08-29T11:08:41Z</time>
      </trkpt>
      <trkpt lat="46.66488" lon="5.79121">
        <ele>590.39</ele>
        <time>2020-08-29T11:09:04Z</time>
      </trkpt>
      <trkpt lat="46.66489" lon="5.79121">
        <ele>590.39</ele>
        <time>2020-08-29T11:09:30Z</time>
      </trkpt>
      <trkpt lat="46.6649" lon="5.7912">
        <ele>590.39</ele>
        <time>2020-08-29T11:09:54Z</time>
      </trkpt>
      <trkpt lat="46.66487" lon="5.79121">
        <ele>590.39</ele>
        <time>2020-08-29T11:10:22Z</time>
      </trkpt>
      <trkpt lat="46.66488" lon="5.79119">
        <ele>590.39</ele>
        <time>2020-08-29T11:10:44Z</time>
      </trkpt>
      <trkpt lat="46.6649" lon="5.7912">
        <ele>590.39</ele>
        <time>2020-08-29T11:11:14Z</time>
      </trkpt>
      <trkpt lat="46.66489" lon="5.79123">
        <ele>590.39</ele>
        <time>2020-08-29T11:11:41Z</time>
      </trkpt>
      <trkpt lat="46.66489" lon="5.79123">
        <ele>590.87</ele>
        <time>2020-08-29T11:12:10Z</time>
      </trkpt>
      <trkpt lat="46.66489" lon="5.79121">
        <ele>590.87</ele>
        <time>2020-08-29T11:12:38Z</time>
      </trkpt>
      <trkpt lat="46.6649" lon="5.7912">
        <ele>590.87</ele>
        <time>2020-08-29T11:13:09Z</time>
      </trkpt>
      <trkpt lat="46.6649" lon="5.79118">
        <ele>590.87</ele>
        <time>2020-08-29T11:13:41Z</time>
      </trkpt>
      <trkpt lat="46.6649" lon="5.79118">
        <ele>590.87</ele>
        <time>2020-08-29T11:14:08Z</time>
      </trkpt>
      <trkpt lat="46.66488" lon="5.79121">
        <ele>590.87</ele>
        <time>2020-08-29T11:14:39Z</time>
      </trkpt>
      <trkpt lat="46.66488" lon="5.79117">
        <ele>590.87</ele>
        <time>2020-08-29T11:15:05Z</time>
      </trkpt>
      <trkpt lat="46.66489" lon="5.79117">
        <ele>591.83</ele>
        <time>2020-08-29T11:15:18Z</time>
      </trkpt>
      <trkpt lat="46.66486" lon="5.79121">
        <ele>591.83</ele>
        <time>2020-08-29T11:15:37Z</time>
      </trkpt>
      <trkpt lat="46.66486" lon="5.79121">
        <ele>591.83</ele>
        <time>2020-08-29T11:16:05Z</time>
      </trkpt>
      <trkpt lat="46.66488" lon="5.79123">
        <ele>591.83</ele>
        <time>2020-08-29T11:16:28Z</time>
      </trkpt>
      <trkpt lat="46.66488" lon="5.79125">
        <ele>591.83</ele>
        <time>2020-08-29T11:16:49Z</time>
      </trkpt>
      <trkpt lat="46.66487" lon="5.79124">
        <ele>591.83</ele>
        <time>2020-08-29T11:17:12Z</time>
      </trkpt>
      <trkpt lat="46.66486" lon="5.79125">
        <ele>591.83</ele>
        <time>2020-08-29T11:17:38Z</time>
      </trkpt>
      <trkpt lat="46.66488" lon="5.79127">
        <ele>591.83</ele>
        <time>2020-08-29T11:18:19Z</time>
      </trkpt>
      <trkpt lat="46.66489" lon="5.79124">
        <ele>591.83</ele>
        <time>2020-08-29T11:18:58Z</time>
      </trkpt>
      <trkpt lat="46.66488" lon="5.79122">
        <ele>591.83</ele>
        <time>2020-08-29T11:19:29Z</time>
      </trkpt>
      <trkpt lat="46.66489" lon="5.79121">
        <ele>592.79</ele>
        <time>2020-08-29T11:19:50Z</time>
      </trkpt>
      <trkpt lat="46.66489" lon="5.79121">
        <ele>591.35</ele>
        <time>2020-08-29T11:19:56Z</time>
      </trkpt>
      <trkpt lat="46.66485" lon="5.79124">
        <ele>591.35</ele>
        <time>2020-08-29T11:20:15Z</time>
      </trkpt>
      <trkpt lat="46.66483" lon="5.79133">
        <ele>590.87</ele>
        <time>2020-08-29T11:20:27Z</time>
      </trkpt>
      <trkpt lat="46.66473" lon="5.79142">
        <ele>590.87</ele>
        <time>2020-08-29T11:20:41Z</time>
      </trkpt>
      <trkpt lat="46.66472" lon="5.79147">
        <ele>590.87</ele>
        <time>2020-08-29T11:20:58Z</time>
      </trkpt>
      <trkpt lat="46.66473" lon="5.79163">
        <ele>590.87</ele>
        <time>2020-08-29T11:21:11Z</time>
      </trkpt>
      <trkpt lat="46.66473" lon="5.79181">
        <ele>590.87</ele>
        <time>2020-08-29T11:21:25Z</time>
      </trkpt>
      <trkpt lat="46.66471" lon="5.792">
        <ele>589.91</ele>
        <time>2020-08-29T11:21:38Z</time>
      </trkpt>
      <trkpt lat="46.66469" lon="5.79225">
        <ele>589.43</ele>
        <time>2020-08-29T11:21:54Z</time>
      </trkpt>
      <trkpt lat="46.66468" lon="5.79246">
        <ele>588.46</ele>
        <time>2020-08-29T11:22:08Z</time>
      </trkpt>
      <trkpt lat="46.66468" lon="5.79266">
        <ele>587.98</ele>
        <time>2020-08-29T11:22:22Z</time>
      </trkpt>
      <trkpt lat="46.66468" lon="5.79267">
        <ele>587.98</ele>
        <time>2020-08-29T11:22:23Z</time>
      </trkpt>
      <trkpt lat="46.66467" lon="5.7927">
        <ele>587.98</ele>
        <time>2020-08-29T11:22:24Z</time>
      </trkpt>
      <trkpt lat="46.66467" lon="5.79272">
        <ele>587.98</ele>
        <time>2020-08-29T11:22:25Z</time>
      </trkpt>
      <trkpt lat="46.66467" lon="5.79274">
        <ele>587.98</ele>
        <time>2020-08-29T11:22:26Z</time>
      </trkpt>
      <trkpt lat="46.66466" lon="5.79284">
        <ele>587.98</ele>
        <time>2020-08-29T11:22:33Z</time>
      </trkpt>
      <trkpt lat="46.66467" lon="5.79296">
        <ele>589.43</ele>
        <time>2020-08-29T11:22:43Z</time>
      </trkpt>
      <trkpt lat="46.66466" lon="5.79298">
        <ele>589.43</ele>
        <time>2020-08-29T11:22:44Z</time>
      </trkpt>
      <trkpt lat="46.66466" lon="5.793">
        <ele>589.91</ele>
        <time>2020-08-29T11:22:45Z</time>
      </trkpt>
      <trkpt lat="46.66466" lon="5.79305">
        <ele>590.39</ele>
        <time>2020-08-29T11:22:49Z</time>
      </trkpt>
      <trkpt lat="46.66465" lon="5.79306">
        <ele>590.39</ele>
        <time>2020-08-29T11:22:50Z</time>
      </trkpt>
      <trkpt lat="46.66465" lon="5.79311">
        <ele>590.87</ele>
        <time>2020-08-29T11:22:54Z</time>
      </trkpt>
      <trkpt lat="46.66464" lon="5.79313">
        <ele>590.87</ele>
        <time>2020-08-29T11:22:55Z</time>
      </trkpt>
      <trkpt lat="46.66463" lon="5.79326">
        <ele>591.83</ele>
        <time>2020-08-29T11:23:03Z</time>
      </trkpt>
      <trkpt lat="46.66464" lon="5.79329">
        <ele>591.83</ele>
        <time>2020-08-29T11:23:04Z</time>
      </trkpt>
      <trkpt lat="46.66464" lon="5.79331">
        <ele>591.83</ele>
        <time>2020-08-29T11:23:05Z</time>
      </trkpt>
      <trkpt lat="46.66463" lon="5.79346">
        <ele>591.83</ele>
        <time>2020-08-29T11:23:18Z</time>
      </trkpt>
      <trkpt lat="46.66466" lon="5.79354">
        <ele>591.83</ele>
        <time>2020-08-29T11:23:26Z</time>
      </trkpt>
      <trkpt lat="46.6647" lon="5.79371">
        <ele>592.31</ele>
        <time>2020-08-29T11:23:38Z</time>
      </trkpt>
      <trkpt lat="46.66468" lon="5.79376">
        <ele>592.31</ele>
        <time>2020-08-29T11:23:50Z</time>
      </trkpt>
      <trkpt lat="46.66474" lon="5.79395">
        <ele>592.31</ele>
        <time>2020-08-29T11:24:04Z</time>
      </trkpt>
      <trkpt lat="46.66474" lon="5.79397">
        <ele>592.31</ele>
        <time>2020-08-29T11:24:05Z</time>
      </trkpt>
      <trkpt lat="46.66474" lon="5.79399">
        <ele>592.31</ele>
        <time>2020-08-29T11:24:06Z</time>
      </trkpt>
      <trkpt lat="46.66475" lon="5.79403">
        <ele>590.87</ele>
        <time>2020-08-29T11:24:08Z</time>
      </trkpt>
      <trkpt lat="46.66482" lon="5.79416">
        <ele>590.87</ele>
        <time>2020-08-29T11:24:24Z</time>
      </trkpt>
      <trkpt lat="46.66485" lon="5.79421">
        <ele>590.87</ele>
        <time>2020-08-29T11:24:29Z</time>
      </trkpt>
      <trkpt lat="46.66486" lon="5.79423">
        <ele>590.87</ele>
        <time>2020-08-29T11:24:30Z</time>
      </trkpt>
      <trkpt lat="46.66489" lon="5.79426">
        <ele>590.87</ele>
        <time>2020-08-29T11:24:35Z</time>
      </trkpt>
      <trkpt lat="46.66497" lon="5.79444">
        <ele>591.35</ele>
        <time>2020-08-29T11:24:49Z</time>
      </trkpt>
      <trkpt lat="46.66503" lon="5.79461">
        <ele>591.35</ele>
        <time>2020-08-29T11:25:01Z</time>
      </trkpt>
      <trkpt lat="46.66512" lon="5.79481">
        <ele>592.31</ele>
        <time>2020-08-29T11:25:17Z</time>
      </trkpt>
      <trkpt lat="46.66513" lon="5.79481">
        <ele>593.27</ele>
        <time>2020-08-29T11:25:44Z</time>
      </trkpt>
      <trkpt lat="46.66514" lon="5.79481">
        <ele>592.79</ele>
        <time>2020-08-29T11:25:59Z</time>
      </trkpt>
      <trkpt lat="46.66511" lon="5.7948">
        <ele>592.79</ele>
        <time>2020-08-29T11:26:21Z</time>
      </trkpt>
      <trkpt lat="46.66513" lon="5.79479">
        <ele>592.79</ele>
        <time>2020-08-29T11:26:42Z</time>
      </trkpt>
      <trkpt lat="46.66512" lon="5.79481">
        <ele>592.79</ele>
        <time>2020-08-29T11:27:02Z</time>
      </trkpt>
      <trkpt lat="46.66511" lon="5.79484">
        <ele>592.79</ele>
        <time>2020-08-29T11:27:28Z</time>
      </trkpt>
      <trkpt lat="46.66511" lon="5.79486">
        <ele>594.71</ele>
        <time>2020-08-29T11:27:50Z</time>
      </trkpt>
      <trkpt lat="46.6651" lon="5.79493">
        <ele>595.67</ele>
        <time>2020-08-29T11:28:11Z</time>
      </trkpt>
      <trkpt lat="46.66503" lon="5.79508">
        <ele>597.12</ele>
        <time>2020-08-29T11:28:24Z</time>
      </trkpt>
      <trkpt lat="46.66502" lon="5.7951">
        <ele>597.12</ele>
        <time>2020-08-29T11:28:26Z</time>
      </trkpt>
      <trkpt lat="46.66504" lon="5.79525">
        <ele>597.6</ele>
        <time>2020-08-29T11:28:39Z</time>
      </trkpt>
      <trkpt lat="46.66508" lon="5.79545">
        <ele>598.08</ele>
        <time>2020-08-29T11:28:52Z</time>
      </trkpt>
      <trkpt lat="46.66508" lon="5.79549">
        <ele>598.08</ele>
        <time>2020-08-29T11:28:54Z</time>
      </trkpt>
      <trkpt lat="46.66511" lon="5.79563">
        <ele>598.08</ele>
        <time>2020-08-29T11:29:05Z</time>
      </trkpt>
      <trkpt lat="46.66516" lon="5.79577">
        <ele>598.56</ele>
        <time>2020-08-29T11:29:18Z</time>
      </trkpt>
      <trkpt lat="46.66518" lon="5.79579">
        <ele>599.04</ele>
        <time>2020-08-29T11:29:32Z</time>
      </trkpt>
      <trkpt lat="46.66519" lon="5.79582">
        <ele>599.04</ele>
        <time>2020-08-29T11:29:45Z</time>
      </trkpt>
      <trkpt lat="46.66521" lon="5.79582">
        <ele>598.56</ele>
        <time>2020-08-29T11:30:08Z</time>
      </trkpt>
      <trkpt lat="46.66521" lon="5.79582">
        <ele>598.56</ele>
        <time>2020-08-29T11:30:26Z</time>
      </trkpt>
      <trkpt lat="46.66517" lon="5.79573">
        <ele>599.04</ele>
        <time>2020-08-29T11:30:40Z</time>
      </trkpt>
      <trkpt lat="46.66512" lon="5.79566">
        <ele>597.6</ele>
        <time>2020-08-29T11:30:49Z</time>
      </trkpt>
      <trkpt lat="46.66505" lon="5.79579">
        <ele>599.04</ele>
        <time>2020-08-29T11:31:02Z</time>
      </trkpt>
      <trkpt lat="46.66505" lon="5.79595">
        <ele>599.52</ele>
        <time>2020-08-29T11:31:18Z</time>
      </trkpt>
      <trkpt lat="46.66501" lon="5.7961">
        <ele>601.44</ele>
        <time>2020-08-29T11:31:31Z</time>
      </trkpt>
      <trkpt lat="46.66501" lon="5.79627">
        <ele>602.4</ele>
        <time>2020-08-29T11:31:44Z</time>
      </trkpt>
      <trkpt lat="46.665" lon="5.7964">
        <ele>604.81</ele>
        <time>2020-08-29T11:31:56Z</time>
      </trkpt>
      <trkpt lat="46.66502" lon="5.79653">
        <ele>605.77</ele>
        <time>2020-08-29T11:32:08Z</time>
      </trkpt>
      <trkpt lat="46.66505" lon="5.79667">
        <ele>607.21</ele>
        <time>2020-08-29T11:32:22Z</time>
      </trkpt>
      <trkpt lat="46.66513" lon="5.79677">
        <ele>607.69</ele>
        <time>2020-08-29T11:32:36Z</time>
      </trkpt>
      <trkpt lat="46.66515" lon="5.79683">
        <ele>607.69</ele>
        <time>2020-08-29T11:32:55Z</time>
      </trkpt>
      <trkpt lat="46.66513" lon="5.79692">
        <ele>607.69</ele>
        <time>2020-08-29T11:33:10Z</time>
      </trkpt>
      <trkpt lat="46.66513" lon="5.79712">
        <ele>607.69</ele>
        <time>2020-08-29T11:33:24Z</time>
      </trkpt>
      <trkpt lat="46.66512" lon="5.79722">
        <ele>607.69</ele>
        <time>2020-08-29T11:33:37Z</time>
      </trkpt>
      <trkpt lat="46.66515" lon="5.7973">
        <ele>607.69</ele>
        <time>2020-08-29T11:33:49Z</time>
      </trkpt>
      <trkpt lat="46.66515" lon="5.79738">
        <ele>607.69</ele>
        <time>2020-08-29T11:33:55Z</time>
      </trkpt>
      <trkpt lat="46.66513" lon="5.79742">
        <ele>607.69</ele>
        <time>2020-08-29T11:34:01Z</time>
      </trkpt>
      <trkpt lat="46.66513" lon="5.79743">
        <ele>607.69</ele>
        <time>2020-08-29T11:34:02Z</time>
      </trkpt>
      <trkpt lat="46.66507" lon="5.7975">
        <ele>607.69</ele>
        <time>2020-08-29T11:34:13Z</time>
      </trkpt>
      <trkpt lat="46.66495" lon="5.79752">
        <ele>607.69</ele>
        <time>2020-08-29T11:34:28Z</time>
      </trkpt>
      <trkpt lat="46.66493" lon="5.79755">
        <ele>607.69</ele>
        <time>2020-08-29T11:34:31Z</time>
      </trkpt>
      <trkpt lat="46.66491" lon="5.79767">
        <ele>607.69</ele>
        <time>2020-08-29T11:34:39Z</time>
      </trkpt>
      <trkpt lat="46.66492" lon="5.7977">
        <ele>607.69</ele>
        <time>2020-08-29T11:34:40Z</time>
      </trkpt>
      <trkpt lat="46.66492" lon="5.79781">
        <ele>607.69</ele>
        <time>2020-08-29T11:34:49Z</time>
      </trkpt>
      <trkpt lat="46.66493" lon="5.79783">
        <ele>607.69</ele>
        <time>2020-08-29T11:34:50Z</time>
      </trkpt>
      <trkpt lat="46.66491" lon="5.79797">
        <ele>606.25</ele>
        <time>2020-08-29T11:35:01Z</time>
      </trkpt>
      <trkpt lat="46.66489" lon="5.798">
        <ele>606.25</ele>
        <time>2020-08-29T11:35:04Z</time>
      </trkpt>
      <trkpt lat="46.66484" lon="5.7981">
        <ele>605.77</ele>
        <time>2020-08-29T11:35:15Z</time>
      </trkpt>
      <trkpt lat="46.66483" lon="5.79814">
        <ele>605.77</ele>
        <time>2020-08-29T11:35:17Z</time>
      </trkpt>
      <trkpt lat="46.66482" lon="5.79815">
        <ele>605.29</ele>
        <time>2020-08-29T11:35:18Z</time>
      </trkpt>
      <trkpt lat="46.66481" lon="5.79819">
        <ele>605.29</ele>
        <time>2020-08-29T11:35:20Z</time>
      </trkpt>
      <trkpt lat="46.66478" lon="5.79829">
        <ele>605.29</ele>
        <time>2020-08-29T11:35:27Z</time>
      </trkpt>
      <trkpt lat="46.66478" lon="5.79838">
        <ele>605.29</ele>
        <time>2020-08-29T11:35:31Z</time>
      </trkpt>
      <trkpt lat="46.66473" lon="5.79853">
        <ele>604.81</ele>
        <time>2020-08-29T11:35:44Z</time>
      </trkpt>
      <trkpt lat="46.66472" lon="5.79857">
        <ele>604.33</ele>
        <time>2020-08-29T11:35:48Z</time>
      </trkpt>
      <trkpt lat="46.66472" lon="5.79876">
        <ele>604.33</ele>
        <time>2020-08-29T11:35:59Z</time>
      </trkpt>
      <trkpt lat="46.66472" lon="5.79878">
        <ele>604.81</ele>
        <time>2020-08-29T11:36:00Z</time>
      </trkpt>
      <trkpt lat="46.66476" lon="5.79894">
        <ele>604.81</ele>
        <time>2020-08-29T11:36:09Z</time>
      </trkpt>
      <trkpt lat="46.66476" lon="5.79896">
        <ele>604.81</ele>
        <time>2020-08-29T11:36:10Z</time>
      </trkpt>
      <trkpt lat="46.6648" lon="5.79906">
        <ele>604.81</ele>
        <time>2020-08-29T11:36:17Z</time>
      </trkpt>
      <trkpt lat="46.66481" lon="5.79908">
        <ele>604.81</ele>
        <time>2020-08-29T11:36:18Z</time>
      </trkpt>
      <trkpt lat="46.66482" lon="5.79911">
        <ele>604.81</ele>
        <time>2020-08-29T11:36:19Z</time>
      </trkpt>
      <trkpt lat="46.66485" lon="5.79929">
        <ele>604.81</ele>
        <time>2020-08-29T11:36:31Z</time>
      </trkpt>
      <trkpt lat="46.66486" lon="5.7994">
        <ele>604.33</ele>
        <time>2020-08-29T11:36:39Z</time>
      </trkpt>
      <trkpt lat="46.66486" lon="5.79942">
        <ele>604.33</ele>
        <time>2020-08-29T11:36:40Z</time>
      </trkpt>
      <trkpt lat="46.66483" lon="5.79956">
        <ele>604.33</ele>
        <time>2020-08-29T11:36:54Z</time>
      </trkpt>
      <trkpt lat="46.66483" lon="5.79959">
        <ele>604.33</ele>
        <time>2020-08-29T11:36:57Z</time>
      </trkpt>
      <trkpt lat="46.66483" lon="5.79961">
        <ele>604.33</ele>
        <time>2020-08-29T11:36:58Z</time>
      </trkpt>
      <trkpt lat="46.66483" lon="5.79971">
        <ele>604.81</ele>
        <time>2020-08-29T11:37:07Z</time>
      </trkpt>
      <trkpt lat="46.66482" lon="5.79983">
        <ele>604.81</ele>
        <time>2020-08-29T11:37:17Z</time>
      </trkpt>
      <trkpt lat="46.66482" lon="5.79987">
        <ele>604.81</ele>
        <time>2020-08-29T11:37:19Z</time>
      </trkpt>
      <trkpt lat="46.66478" lon="5.80001">
        <ele>604.81</ele>
        <time>2020-08-29T11:37:32Z</time>
      </trkpt>
      <trkpt lat="46.66478" lon="5.80009">
        <ele>604.33</ele>
        <time>2020-08-29T11:37:38Z</time>
      </trkpt>
      <trkpt lat="46.66478" lon="5.80011">
        <ele>604.33</ele>
        <time>2020-08-29T11:37:39Z</time>
      </trkpt>
      <trkpt lat="46.66477" lon="5.80013">
        <ele>604.33</ele>
        <time>2020-08-29T11:37:40Z</time>
      </trkpt>
      <trkpt lat="46.66473" lon="5.80029">
        <ele>603.85</ele>
        <time>2020-08-29T11:37:52Z</time>
      </trkpt>
      <trkpt lat="46.6647" lon="5.80039">
        <ele>603.85</ele>
        <time>2020-08-29T11:38:08Z</time>
      </trkpt>
      <trkpt lat="46.66466" lon="5.80051">
        <ele>604.33</ele>
        <time>2020-08-29T11:38:18Z</time>
      </trkpt>
      <trkpt lat="46.66465" lon="5.80068">
        <ele>602.88</ele>
        <time>2020-08-29T11:38:32Z</time>
      </trkpt>
      <trkpt lat="46.66466" lon="5.80079">
        <ele>601.92</ele>
        <time>2020-08-29T11:38:43Z</time>
      </trkpt>
      <trkpt lat="46.66467" lon="5.8008">
        <ele>601.44</ele>
        <time>2020-08-29T11:38:44Z</time>
      </trkpt>
      <trkpt lat="46.66469" lon="5.8009">
        <ele>600</ele>
        <time>2020-08-29T11:38:56Z</time>
      </trkpt>
      <trkpt lat="46.6647" lon="5.8011">
        <ele>600.96</ele>
        <time>2020-08-29T11:39:11Z</time>
      </trkpt>
      <trkpt lat="46.66486" lon="5.80128">
        <ele>602.4</ele>
        <time>2020-08-29T11:39:29Z</time>
      </trkpt>
      <trkpt lat="46.66496" lon="5.80134">
        <ele>600.96</ele>
        <time>2020-08-29T11:39:34Z</time>
      </trkpt>
      <trkpt lat="46.6651" lon="5.80161">
        <ele>600.48</ele>
        <time>2020-08-29T11:39:56Z</time>
      </trkpt>
      <trkpt lat="46.66509" lon="5.80167">
        <ele>600.96</ele>
        <time>2020-08-29T11:40:00Z</time>
      </trkpt>
      <trkpt lat="46.66504" lon="5.80188">
        <ele>600.48</ele>
        <time>2020-08-29T11:40:12Z</time>
      </trkpt>
      <trkpt lat="46.66503" lon="5.80219">
        <ele>601.44</ele>
        <time>2020-08-29T11:40:31Z</time>
      </trkpt>
      <trkpt lat="46.66503" lon="5.80222">
        <ele>600</ele>
        <time>2020-08-29T11:40:34Z</time>
      </trkpt>
      <trkpt lat="46.66502" lon="5.8025">
        <ele>599.52</ele>
        <time>2020-08-29T11:40:57Z</time>
      </trkpt>
      <trkpt lat="46.66497" lon="5.80291">
        <ele>600</ele>
        <time>2020-08-29T11:41:17Z</time>
      </trkpt>
      <trkpt lat="46.6649" lon="5.80316">
        <ele>598.56</ele>
        <time>2020-08-29T11:41:38Z</time>
      </trkpt>
      <trkpt lat="46.66475" lon="5.80331">
        <ele>598.56</ele>
        <time>2020-08-29T11:42:02Z</time>
      </trkpt>
      <trkpt lat="46.66454" lon="5.80364">
        <ele>598.08</ele>
        <time>2020-08-29T11:42:21Z</time>
      </trkpt>
      <trkpt lat="46.66434" lon="5.80394">
        <ele>597.6</ele>
        <time>2020-08-29T11:42:44Z</time>
      </trkpt>
      <trkpt lat="46.66422" lon="5.80388">
        <ele>597.12</ele>
        <time>2020-08-29T11:43:03Z</time>
      </trkpt>
      <trkpt lat="46.66407" lon="5.80424">
        <ele>597.12</ele>
        <time>2020-08-29T11:43:25Z</time>
      </trkpt>
      <trkpt lat="46.66407" lon="5.80444">
        <ele>597.12</ele>
        <time>2020-08-29T11:43:45Z</time>
      </trkpt>
      <trkpt lat="46.66409" lon="5.80451">
        <ele>596.64</ele>
        <time>2020-08-29T11:44:11Z</time>
      </trkpt>
      <trkpt lat="46.66413" lon="5.80473">
        <ele>595.19</ele>
        <time>2020-08-29T11:44:36Z</time>
      </trkpt>
      <trkpt lat="46.66436" lon="5.80493">
        <ele>595.19</ele>
        <time>2020-08-29T11:44:57Z</time>
      </trkpt>
      <trkpt lat="46.66447" lon="5.80506">
        <ele>593.75</ele>
        <time>2020-08-29T11:45:10Z</time>
      </trkpt>
      <trkpt lat="46.66449" lon="5.80507">
        <ele>595.19</ele>
        <time>2020-08-29T11:45:12Z</time>
      </trkpt>
      <trkpt lat="46.66454" lon="5.80535">
        <ele>593.27</ele>
        <time>2020-08-29T11:45:32Z</time>
      </trkpt>
      <trkpt lat="46.6646" lon="5.80555">
        <ele>592.31</ele>
        <time>2020-08-29T11:45:46Z</time>
      </trkpt>
      <trkpt lat="46.66475" lon="5.80575">
        <ele>592.31</ele>
        <time>2020-08-29T11:46:09Z</time>
      </trkpt>
      <trkpt lat="46.6648" lon="5.80585">
        <ele>590.87</ele>
        <time>2020-08-29T11:46:18Z</time>
      </trkpt>
      <trkpt lat="46.66488" lon="5.80625">
        <ele>591.83</ele>
        <time>2020-08-29T11:46:43Z</time>
      </trkpt>
      <trkpt lat="46.665" lon="5.80626">
        <ele>591.83</ele>
        <time>2020-08-29T11:47:02Z</time>
      </trkpt>
      <trkpt lat="46.66491" lon="5.80625">
        <ele>591.35</ele>
        <time>2020-08-29T11:47:25Z</time>
      </trkpt>
      <trkpt lat="46.66489" lon="5.80619">
        <ele>590.87</ele>
        <time>2020-08-29T11:47:48Z</time>
      </trkpt>
      <trkpt lat="46.66495" lon="5.80621">
        <ele>590.87</ele>
        <time>2020-08-29T11:48:17Z</time>
      </trkpt>
      <trkpt lat="46.66488" lon="5.80621">
        <ele>590.39</ele>
        <time>2020-08-29T11:48:42Z</time>
      </trkpt>
      <trkpt lat="46.6648" lon="5.80645">
        <ele>589.43</ele>
        <time>2020-08-29T11:49:05Z</time>
      </trkpt>
      <trkpt lat="46.66473" lon="5.80655">
        <ele>588.95</ele>
        <time>2020-08-29T11:49:25Z</time>
      </trkpt>
      <trkpt lat="46.66461" lon="5.80665">
        <ele>590.39</ele>
        <time>2020-08-29T11:49:37Z</time>
      </trkpt>
      <trkpt lat="46.66459" lon="5.8069">
        <ele>592.31</ele>
        <time>2020-08-29T11:50:01Z</time>
      </trkpt>
      <trkpt lat="46.66451" lon="5.80707">
        <ele>592.31</ele>
        <time>2020-08-29T11:50:20Z</time>
      </trkpt>
      <trkpt lat="46.66438" lon="5.80742">
        <ele>594.71</ele>
        <time>2020-08-29T11:50:42Z</time>
      </trkpt>
      <trkpt lat="46.66438" lon="5.8075">
        <ele>596.15</ele>
        <time>2020-08-29T11:50:50Z</time>
      </trkpt>
      <trkpt lat="46.6643" lon="5.80767">
        <ele>596.15</ele>
        <time>2020-08-29T11:51:12Z</time>
      </trkpt>
      <trkpt lat="46.66422" lon="5.8078">
        <ele>596.15</ele>
        <time>2020-08-29T11:51:21Z</time>
      </trkpt>
      <trkpt lat="46.66419" lon="5.80796">
        <ele>596.15</ele>
        <time>2020-08-29T11:51:31Z</time>
      </trkpt>
      <trkpt lat="46.66413" lon="5.80805">
        <ele>597.12</ele>
        <time>2020-08-29T11:51:39Z</time>
      </trkpt>
      <trkpt lat="46.66408" lon="5.80813">
        <ele>597.12</ele>
        <time>2020-08-29T11:51:47Z</time>
      </trkpt>
      <trkpt lat="46.66406" lon="5.8082">
        <ele>597.12</ele>
        <time>2020-08-29T11:51:51Z</time>
      </trkpt>
      <trkpt lat="46.66404" lon="5.80834">
        <ele>596.15</ele>
        <time>2020-08-29T11:52:05Z</time>
      </trkpt>
      <trkpt lat="46.66405" lon="5.80834">
        <ele>596.15</ele>
        <time>2020-08-29T11:52:29Z</time>
      </trkpt>
      <trkpt lat="46.66402" lon="5.80831">
        <ele>595.19</ele>
        <time>2020-08-29T11:52:35Z</time>
      </trkpt>
      <trkpt lat="46.66381" lon="5.80861">
        <ele>593.75</ele>
        <time>2020-08-29T11:52:59Z</time>
      </trkpt>
      <trkpt lat="46.66369" lon="5.80896">
        <ele>595.19</ele>
        <time>2020-08-29T11:53:23Z</time>
      </trkpt>
      <trkpt lat="46.66365" lon="5.80912">
        <ele>597.12</ele>
        <time>2020-08-29T11:53:37Z</time>
      </trkpt>
      <trkpt lat="46.66357" lon="5.80918">
        <ele>598.56</ele>
        <time>2020-08-29T11:53:49Z</time>
      </trkpt>
      <trkpt lat="46.66351" lon="5.8093">
        <ele>599.04</ele>
        <time>2020-08-29T11:53:59Z</time>
      </trkpt>
      <trkpt lat="46.66348" lon="5.80948">
        <ele>599.04</ele>
        <time>2020-08-29T11:54:12Z</time>
      </trkpt>
      <trkpt lat="46.66346" lon="5.80953">
        <ele>599.04</ele>
        <time>2020-08-29T11:54:15Z</time>
      </trkpt>
      <trkpt lat="46.66336" lon="5.80972">
        <ele>598.08</ele>
        <time>2020-08-29T11:54:28Z</time>
      </trkpt>
      <trkpt lat="46.66335" lon="5.80974">
        <ele>598.08</ele>
        <time>2020-08-29T11:54:29Z</time>
      </trkpt>
      <trkpt lat="46.66326" lon="5.8099">
        <ele>596.64</ele>
        <time>2020-08-29T11:54:41Z</time>
      </trkpt>
      <trkpt lat="46.66322" lon="5.80998">
        <ele>595.67</ele>
        <time>2020-08-29T11:54:57Z</time>
      </trkpt>
      <trkpt lat="46.66324" lon="5.81016">
        <ele>593.75</ele>
        <time>2020-08-29T11:55:15Z</time>
      </trkpt>
      <trkpt lat="46.66323" lon="5.81021">
        <ele>593.27</ele>
        <time>2020-08-29T11:55:31Z</time>
      </trkpt>
      <trkpt lat="46.66321" lon="5.81024">
        <ele>592.79</ele>
        <time>2020-08-29T11:55:45Z</time>
      </trkpt>
      <trkpt lat="46.66323" lon="5.81023">
        <ele>592.79</ele>
        <time>2020-08-29T11:56:05Z</time>
      </trkpt>
      <trkpt lat="46.66323" lon="5.81025">
        <ele>593.27</ele>
        <time>2020-08-29T11:56:30Z</time>
      </trkpt>
      <trkpt lat="46.66324" lon="5.81025">
        <ele>592.79</ele>
        <time>2020-08-29T11:56:51Z</time>
      </trkpt>
      <trkpt lat="46.66327" lon="5.81021">
        <ele>592.79</ele>
        <time>2020-08-29T11:57:11Z</time>
      </trkpt>
      <trkpt lat="46.66319" lon="5.81022">
        <ele>592.79</ele>
        <time>2020-08-29T11:57:25Z</time>
      </trkpt>
      <trkpt lat="46.66302" lon="5.81029">
        <ele>592.79</ele>
        <time>2020-08-29T11:57:43Z</time>
      </trkpt>
      <trkpt lat="46.66287" lon="5.81044">
        <ele>594.23</ele>
        <time>2020-08-29T11:57:59Z</time>
      </trkpt>
      <trkpt lat="46.66286" lon="5.81045">
        <ele>594.23</ele>
        <time>2020-08-29T11:58:00Z</time>
      </trkpt>
      <trkpt lat="46.66285" lon="5.81047">
        <ele>594.23</ele>
        <time>2020-08-29T11:58:02Z</time>
      </trkpt>
      <trkpt lat="46.66274" lon="5.81059">
        <ele>597.12</ele>
        <time>2020-08-29T11:58:16Z</time>
      </trkpt>
      <trkpt lat="46.66268" lon="5.81069">
        <ele>597.6</ele>
        <time>2020-08-29T11:58:29Z</time>
      </trkpt>
      <trkpt lat="46.66267" lon="5.81088">
        <ele>594.71</ele>
        <time>2020-08-29T11:58:42Z</time>
      </trkpt>
      <trkpt lat="46.66256" lon="5.81099">
        <ele>593.75</ele>
        <time>2020-08-29T11:58:58Z</time>
      </trkpt>
      <trkpt lat="46.66241" lon="5.81105">
        <ele>593.27</ele>
        <time>2020-08-29T11:59:16Z</time>
      </trkpt>
      <trkpt lat="46.66231" lon="5.81116">
        <ele>593.27</ele>
        <time>2020-08-29T11:59:30Z</time>
      </trkpt>
      <trkpt lat="46.66225" lon="5.81119">
        <ele>593.27</ele>
        <time>2020-08-29T11:59:44Z</time>
      </trkpt>
      <trkpt lat="46.66214" lon="5.81138">
        <ele>593.27</ele>
        <time>2020-08-29T11:59:57Z</time>
      </trkpt>
      <trkpt lat="46.66212" lon="5.81142">
        <ele>593.27</ele>
        <time>2020-08-29T12:00:00Z</time>
      </trkpt>
      <trkpt lat="46.662" lon="5.81157">
        <ele>594.23</ele>
        <time>2020-08-29T12:00:15Z</time>
      </trkpt>
      <trkpt lat="46.66192" lon="5.81173">
        <ele>595.19</ele>
        <time>2020-08-29T12:00:28Z</time>
      </trkpt>
      <trkpt lat="46.66183" lon="5.8119">
        <ele>593.75</ele>
        <time>2020-08-29T12:00:41Z</time>
      </trkpt>
      <trkpt lat="46.66177" lon="5.81201">
        <ele>592.79</ele>
        <time>2020-08-29T12:00:48Z</time>
      </trkpt>
      <trkpt lat="46.66166" lon="5.81214">
        <ele>594.23</ele>
        <time>2020-08-29T12:01:01Z</time>
      </trkpt>
      <trkpt lat="46.66161" lon="5.81222">
        <ele>594.23</ele>
        <time>2020-08-29T12:01:08Z</time>
      </trkpt>
      <trkpt lat="46.66148" lon="5.81241">
        <ele>595.19</ele>
        <time>2020-08-29T12:01:24Z</time>
      </trkpt>
      <trkpt lat="46.66139" lon="5.81261">
        <ele>595.19</ele>
        <time>2020-08-29T12:01:41Z</time>
      </trkpt>
      <trkpt lat="46.66134" lon="5.81268">
        <ele>595.19</ele>
        <time>2020-08-29T12:01:56Z</time>
      </trkpt>
      <trkpt lat="46.6613" lon="5.81273">
        <ele>594.23</ele>
        <time>2020-08-29T12:02:03Z</time>
      </trkpt>
      <trkpt lat="46.66129" lon="5.81274">
        <ele>594.23</ele>
        <time>2020-08-29T12:02:04Z</time>
      </trkpt>
      <trkpt lat="46.66121" lon="5.81293">
        <ele>592.79</ele>
        <time>2020-08-29T12:02:18Z</time>
      </trkpt>
      <trkpt lat="46.66113" lon="5.81312">
        <ele>592.31</ele>
        <time>2020-08-29T12:02:31Z</time>
      </trkpt>
      <trkpt lat="46.6611" lon="5.81326">
        <ele>591.83</ele>
        <time>2020-08-29T12:02:41Z</time>
      </trkpt>
      <trkpt lat="46.66108" lon="5.81345">
        <ele>589.91</ele>
        <time>2020-08-29T12:02:58Z</time>
      </trkpt>
      <trkpt lat="46.6611" lon="5.81348">
        <ele>591.83</ele>
        <time>2020-08-29T12:03:15Z</time>
      </trkpt>
      <trkpt lat="46.66108" lon="5.81382">
        <ele>590.39</ele>
        <time>2020-08-29T12:03:32Z</time>
      </trkpt>
      <trkpt lat="46.66103" lon="5.81407">
        <ele>593.75</ele>
        <time>2020-08-29T12:03:53Z</time>
      </trkpt>
      <trkpt lat="46.66093" lon="5.81436">
        <ele>594.71</ele>
        <time>2020-08-29T12:04:12Z</time>
      </trkpt>
      <trkpt lat="46.66108" lon="5.81456">
        <ele>592.31</ele>
        <time>2020-08-29T12:04:31Z</time>
      </trkpt>
      <trkpt lat="46.66118" lon="5.81481">
        <ele>589.43</ele>
        <time>2020-08-29T12:04:53Z</time>
      </trkpt>
      <trkpt lat="46.66121" lon="5.81524">
        <ele>589.43</ele>
        <time>2020-08-29T12:05:17Z</time>
      </trkpt>
      <trkpt lat="46.66122" lon="5.81557">
        <ele>587.98</ele>
        <time>2020-08-29T12:05:34Z</time>
      </trkpt>
      <trkpt lat="46.66129" lon="5.81574">
        <ele>588.95</ele>
        <time>2020-08-29T12:05:51Z</time>
      </trkpt>
      <trkpt lat="46.66146" lon="5.81598">
        <ele>588.46</ele>
        <time>2020-08-29T12:06:12Z</time>
      </trkpt>
      <trkpt lat="46.66169" lon="5.81602">
        <ele>585.1</ele>
        <time>2020-08-29T12:06:34Z</time>
      </trkpt>
      <trkpt lat="46.66169" lon="5.81607">
        <ele>585.58</ele>
        <time>2020-08-29T12:06:57Z</time>
      </trkpt>
      <trkpt lat="46.66164" lon="5.81606">
        <ele>586.54</ele>
        <time>2020-08-29T12:07:20Z</time>
      </trkpt>
      <trkpt lat="46.66174" lon="5.81624">
        <ele>588.46</ele>
        <time>2020-08-29T12:07:40Z</time>
      </trkpt>
      <trkpt lat="46.66203" lon="5.81639">
        <ele>590.87</ele>
        <time>2020-08-29T12:08:06Z</time>
      </trkpt>
      <trkpt lat="46.66212" lon="5.81649">
        <ele>590.87</ele>
        <time>2020-08-29T12:08:24Z</time>
      </trkpt>
      <trkpt lat="46.66226" lon="5.81662">
        <ele>588.95</ele>
        <time>2020-08-29T12:08:36Z</time>
      </trkpt>
      <trkpt lat="46.66236" lon="5.81667">
        <ele>590.39</ele>
        <time>2020-08-29T12:08:44Z</time>
      </trkpt>
      <trkpt lat="46.66262" lon="5.81657">
        <ele>588.46</ele>
        <time>2020-08-29T12:09:06Z</time>
      </trkpt>
      <trkpt lat="46.66266" lon="5.81658">
        <ele>589.91</ele>
        <time>2020-08-29T12:09:09Z</time>
      </trkpt>
      <trkpt lat="46.66272" lon="5.81665">
        <ele>589.43</ele>
        <time>2020-08-29T12:09:18Z</time>
      </trkpt>
      <trkpt lat="46.6628" lon="5.8166">
        <ele>590.87</ele>
        <time>2020-08-29T12:09:39Z</time>
      </trkpt>
      <trkpt lat="46.66299" lon="5.81661">
        <ele>589.43</ele>
        <time>2020-08-29T12:09:52Z</time>
      </trkpt>
      <trkpt lat="46.66318" lon="5.81638">
        <ele>587.98</ele>
        <time>2020-08-29T12:10:15Z</time>
      </trkpt>
      <trkpt lat="46.66319" lon="5.81638">
        <ele>587.98</ele>
        <time>2020-08-29T12:10:34Z</time>
      </trkpt>
      <trkpt lat="46.66322" lon="5.81646">
        <ele>587.98</ele>
        <time>2020-08-29T12:10:58Z</time>
      </trkpt>
      <trkpt lat="46.66313" lon="5.81644">
        <ele>587.98</ele>
        <time>2020-08-29T12:11:26Z</time>
      </trkpt>
      <trkpt lat="46.66315" lon="5.81635">
        <ele>588.46</ele>
        <time>2020-08-29T12:11:51Z</time>
      </trkpt>
      <trkpt lat="46.66322" lon="5.81631">
        <ele>588.46</ele>
        <time>2020-08-29T12:12:22Z</time>
      </trkpt>
      <trkpt lat="46.6632" lon="5.81641">
        <ele>589.91</ele>
        <time>2020-08-29T12:12:53Z</time>
      </trkpt>
      <trkpt lat="46.66322" lon="5.81645">
        <ele>589.91</ele>
        <time>2020-08-29T12:13:17Z</time>
      </trkpt>
      <trkpt lat="46.66326" lon="5.8164">
        <ele>589.91</ele>
        <time>2020-08-29T12:13:47Z</time>
      </trkpt>
      <trkpt lat="46.66315" lon="5.81645">
        <ele>591.35</ele>
        <time>2020-08-29T12:14:12Z</time>
      </trkpt>
      <trkpt lat="46.66304" lon="5.81677">
        <ele>591.83</ele>
        <time>2020-08-29T12:14:35Z</time>
      </trkpt>
      <trkpt lat="46.66306" lon="5.81689">
        <ele>592.31</ele>
        <time>2020-08-29T12:14:56Z</time>
      </trkpt>
      <trkpt lat="46.66307" lon="5.81692">
        <ele>593.75</ele>
        <time>2020-08-29T12:15:00Z</time>
      </trkpt>
      <trkpt lat="46.66301" lon="5.81724">
        <ele>592.31</ele>
        <time>2020-08-29T12:15:25Z</time>
      </trkpt>
      <trkpt lat="46.66288" lon="5.81743">
        <ele>589.43</ele>
        <time>2020-08-29T12:15:48Z</time>
      </trkpt>
      <trkpt lat="46.66285" lon="5.81749">
        <ele>590.87</ele>
        <time>2020-08-29T12:15:53Z</time>
      </trkpt>
      <trkpt lat="46.66283" lon="5.81757">
        <ele>589.43</ele>
        <time>2020-08-29T12:15:58Z</time>
      </trkpt>
      <trkpt lat="46.66273" lon="5.81786">
        <ele>587.98</ele>
        <time>2020-08-29T12:16:19Z</time>
      </trkpt>
      <trkpt lat="46.66278" lon="5.81805">
        <ele>585.58</ele>
        <time>2020-08-29T12:16:33Z</time>
      </trkpt>
      <trkpt lat="46.66288" lon="5.81828">
        <ele>583.66</ele>
        <time>2020-08-29T12:16:51Z</time>
      </trkpt>
      <trkpt lat="46.66289" lon="5.81828">
        <ele>583.66</ele>
        <time>2020-08-29T12:16:53Z</time>
      </trkpt>
      <trkpt lat="46.66297" lon="5.81843">
        <ele>581.73</ele>
        <time>2020-08-29T12:17:09Z</time>
      </trkpt>
      <trkpt lat="46.66302" lon="5.81851">
        <ele>580.77</ele>
        <time>2020-08-29T12:17:22Z</time>
      </trkpt>
      <trkpt lat="46.66311" lon="5.81866">
        <ele>582.22</ele>
        <time>2020-08-29T12:17:37Z</time>
      </trkpt>
      <trkpt lat="46.6632" lon="5.81879">
        <ele>584.14</ele>
        <time>2020-08-29T12:17:49Z</time>
      </trkpt>
      <trkpt lat="46.66328" lon="5.81891">
        <ele>584.62</ele>
        <time>2020-08-29T12:18:01Z</time>
      </trkpt>
      <trkpt lat="46.6633" lon="5.81897">
        <ele>585.1</ele>
        <time>2020-08-29T12:18:07Z</time>
      </trkpt>
      <trkpt lat="46.66334" lon="5.81907">
        <ele>585.1</ele>
        <time>2020-08-29T12:18:15Z</time>
      </trkpt>
      <trkpt lat="46.66335" lon="5.81913">
        <ele>586.06</ele>
        <time>2020-08-29T12:18:20Z</time>
      </trkpt>
      <trkpt lat="46.66337" lon="5.81922">
        <ele>586.54</ele>
        <time>2020-08-29T12:18:27Z</time>
      </trkpt>
      <trkpt lat="46.66343" lon="5.81933">
        <ele>585.58</ele>
        <time>2020-08-29T12:18:41Z</time>
      </trkpt>
      <trkpt lat="46.66342" lon="5.81934">
        <ele>585.1</ele>
        <time>2020-08-29T12:18:42Z</time>
      </trkpt>
      <trkpt lat="46.66344" lon="5.81949">
        <ele>581.73</ele>
        <time>2020-08-29T12:18:55Z</time>
      </trkpt>
      <trkpt lat="46.66349" lon="5.81973">
        <ele>581.73</ele>
        <time>2020-08-29T12:19:09Z</time>
      </trkpt>
      <trkpt lat="46.66356" lon="5.81987">
        <ele>581.25</ele>
        <time>2020-08-29T12:19:23Z</time>
      </trkpt>
      <trkpt lat="46.66361" lon="5.81994">
        <ele>580.77</ele>
        <time>2020-08-29T12:19:50Z</time>
      </trkpt>
      <trkpt lat="46.66356" lon="5.81986">
        <ele>580.77</ele>
        <time>2020-08-29T12:20:05Z</time>
      </trkpt>
      <trkpt lat="46.66351" lon="5.81984">
        <ele>580.77</ele>
        <time>2020-08-29T12:20:18Z</time>
      </trkpt>
      <trkpt lat="46.66347" lon="5.81986">
        <ele>581.73</ele>
        <time>2020-08-29T12:20:22Z</time>
      </trkpt>
      <trkpt lat="46.66344" lon="5.81993">
        <ele>582.22</ele>
        <time>2020-08-29T12:20:31Z</time>
      </trkpt>
      <trkpt lat="46.66346" lon="5.82008">
        <ele>582.22</ele>
        <time>2020-08-29T12:20:45Z</time>
      </trkpt>
      <trkpt lat="46.6634" lon="5.82031">
        <ele>582.22</ele>
        <time>2020-08-29T12:21:01Z</time>
      </trkpt>
      <trkpt lat="46.66337" lon="5.82036">
        <ele>581.25</ele>
        <time>2020-08-29T12:21:07Z</time>
      </trkpt>
      <trkpt lat="46.66327" lon="5.82048">
        <ele>580.29</ele>
        <time>2020-08-29T12:21:20Z</time>
      </trkpt>
      <trkpt lat="46.66327" lon="5.82049">
        <ele>580.29</ele>
        <time>2020-08-29T12:21:21Z</time>
      </trkpt>
      <trkpt lat="46.66334" lon="5.82064">
        <ele>581.73</ele>
        <time>2020-08-29T12:21:33Z</time>
      </trkpt>
      <trkpt lat="46.66337" lon="5.8207">
        <ele>581.73</ele>
        <time>2020-08-29T12:21:37Z</time>
      </trkpt>
      <trkpt lat="46.66339" lon="5.82083">
        <ele>582.7</ele>
        <time>2020-08-29T12:21:47Z</time>
      </trkpt>
      <trkpt lat="46.66343" lon="5.82093">
        <ele>582.7</ele>
        <time>2020-08-29T12:21:57Z</time>
      </trkpt>
      <trkpt lat="46.66352" lon="5.82114">
        <ele>582.7</ele>
        <time>2020-08-29T12:22:07Z</time>
      </trkpt>
      <trkpt lat="46.66362" lon="5.82122">
        <ele>582.7</ele>
        <time>2020-08-29T12:22:25Z</time>
      </trkpt>
      <trkpt lat="46.66369" lon="5.82108">
        <ele>582.22</ele>
        <time>2020-08-29T12:22:47Z</time>
      </trkpt>
      <trkpt lat="46.66378" lon="5.82099">
        <ele>581.73</ele>
        <time>2020-08-29T12:23:11Z</time>
      </trkpt>
      <trkpt lat="46.66378" lon="5.82098">
        <ele>581.73</ele>
        <time>2020-08-29T12:23:31Z</time>
      </trkpt>
      <trkpt lat="46.66381" lon="5.82101">
        <ele>581.73</ele>
        <time>2020-08-29T12:23:53Z</time>
      </trkpt>
      <trkpt lat="46.66381" lon="5.82102">
        <ele>581.73</ele>
        <time>2020-08-29T12:24:17Z</time>
      </trkpt>
      <trkpt lat="46.66381" lon="5.82101">
        <ele>581.73</ele>
        <time>2020-08-29T12:24:44Z</time>
      </trkpt>
      <trkpt lat="46.66382" lon="5.82102">
        <ele>581.73</ele>
        <time>2020-08-29T12:25:08Z</time>
      </trkpt>
      <trkpt lat="46.66382" lon="5.82103">
        <ele>577.89</ele>
        <time>2020-08-29T12:25:18Z</time>
      </trkpt>
      <trkpt lat="46.66382" lon="5.82103">
        <ele>586.54</ele>
        <time>2020-08-29T12:25:19Z</time>
      </trkpt>
      <trkpt lat="46.66382" lon="5.82103">
        <ele>582.7</ele>
        <time>2020-08-29T12:25:20Z</time>
      </trkpt>
      <trkpt lat="46.66382" lon="5.8212">
        <ele>583.18</ele>
        <time>2020-08-29T12:25:41Z</time>
      </trkpt>
      <trkpt lat="46.66384" lon="5.82124">
        <ele>583.18</ele>
        <time>2020-08-29T12:25:46Z</time>
      </trkpt>
      <trkpt lat="46.66383" lon="5.82131">
        <ele>583.18</ele>
        <time>2020-08-29T12:25:51Z</time>
      </trkpt>
      <trkpt lat="46.66381" lon="5.82145">
        <ele>583.18</ele>
        <time>2020-08-29T12:26:03Z</time>
      </trkpt>
      <trkpt lat="46.66377" lon="5.82159">
        <ele>583.66</ele>
        <time>2020-08-29T12:26:16Z</time>
      </trkpt>
      <trkpt lat="46.6637" lon="5.82179">
        <ele>585.1</ele>
        <time>2020-08-29T12:26:31Z</time>
      </trkpt>
      <trkpt lat="46.66371" lon="5.82188">
        <ele>585.1</ele>
        <time>2020-08-29T12:26:55Z</time>
      </trkpt>
      <trkpt lat="46.66368" lon="5.822">
        <ele>585.58</ele>
        <time>2020-08-29T12:27:09Z</time>
      </trkpt>
      <trkpt lat="46.66372" lon="5.8222">
        <ele>587.02</ele>
        <time>2020-08-29T12:27:22Z</time>
      </trkpt>
      <trkpt lat="46.66376" lon="5.82243">
        <ele>587.5</ele>
        <time>2020-08-29T12:27:37Z</time>
      </trkpt>
      <trkpt lat="46.66376" lon="5.82265">
        <ele>587.5</ele>
        <time>2020-08-29T12:27:52Z</time>
      </trkpt>
      <trkpt lat="46.66376" lon="5.82267">
        <ele>587.5</ele>
        <time>2020-08-29T12:27:54Z</time>
      </trkpt>
      <trkpt lat="46.66373" lon="5.8229">
        <ele>587.5</ele>
        <time>2020-08-29T12:28:08Z</time>
      </trkpt>
      <trkpt lat="46.6637" lon="5.82315">
        <ele>586.06</ele>
        <time>2020-08-29T12:28:21Z</time>
      </trkpt>
      <trkpt lat="46.6637" lon="5.82339">
        <ele>586.06</ele>
        <time>2020-08-29T12:28:36Z</time>
      </trkpt>
      <trkpt lat="46.66369" lon="5.82371">
        <ele>585.58</ele>
        <time>2020-08-29T12:28:51Z</time>
      </trkpt>
      <trkpt lat="46.66371" lon="5.82404">
        <ele>585.58</ele>
        <time>2020-08-29T12:29:08Z</time>
      </trkpt>
      <trkpt lat="46.66371" lon="5.82437">
        <ele>585.1</ele>
        <time>2020-08-29T12:29:26Z</time>
      </trkpt>
      <trkpt lat="46.66372" lon="5.82445">
        <ele>584.62</ele>
        <time>2020-08-29T12:29:32Z</time>
      </trkpt>
      <trkpt lat="46.66372" lon="5.82456">
        <ele>585.1</ele>
        <time>2020-08-29T12:29:38Z</time>
      </trkpt>
      <trkpt lat="46.66372" lon="5.82485">
        <ele>584.62</ele>
        <time>2020-08-29T12:29:55Z</time>
      </trkpt>
      <trkpt lat="46.66369" lon="5.82509">
        <ele>584.14</ele>
        <time>2020-08-29T12:30:08Z</time>
      </trkpt>
      <trkpt lat="46.66369" lon="5.82511">
        <ele>584.14</ele>
        <time>2020-08-29T12:30:09Z</time>
      </trkpt>
      <trkpt lat="46.66366" lon="5.82524">
        <ele>584.14</ele>
        <time>2020-08-29T12:30:16Z</time>
      </trkpt>
      <trkpt lat="46.66363" lon="5.82548">
        <ele>583.66</ele>
        <time>2020-08-29T12:30:31Z</time>
      </trkpt>
      <trkpt lat="46.66362" lon="5.82571">
        <ele>583.66</ele>
        <time>2020-08-29T12:30:45Z</time>
      </trkpt>
      <trkpt lat="46.66361" lon="5.82574">
        <ele>583.66</ele>
        <time>2020-08-29T12:30:47Z</time>
      </trkpt>
      <trkpt lat="46.66362" lon="5.82591">
        <ele>583.18</ele>
        <time>2020-08-29T12:31:00Z</time>
      </trkpt>
      <trkpt lat="46.66362" lon="5.82595">
        <ele>583.18</ele>
        <time>2020-08-29T12:31:04Z</time>
      </trkpt>
      <trkpt lat="46.66363" lon="5.82597">
        <ele>583.18</ele>
        <time>2020-08-29T12:31:05Z</time>
      </trkpt>
      <trkpt lat="46.66364" lon="5.82598">
        <ele>583.18</ele>
        <time>2020-08-29T12:31:06Z</time>
      </trkpt>
      <trkpt lat="46.66365" lon="5.826">
        <ele>583.18</ele>
        <time>2020-08-29T12:31:07Z</time>
      </trkpt>
      <trkpt lat="46.66365" lon="5.82602">
        <ele>583.18</ele>
        <time>2020-08-29T12:31:08Z</time>
      </trkpt>
      <trkpt lat="46.66368" lon="5.82604">
        <ele>583.18</ele>
        <time>2020-08-29T12:31:12Z</time>
      </trkpt>
      <trkpt lat="46.66373" lon="5.82605">
        <ele>585.58</ele>
        <time>2020-08-29T12:31:23Z</time>
      </trkpt>
      <trkpt lat="46.66375" lon="5.82606">
        <ele>585.58</ele>
        <time>2020-08-29T12:31:25Z</time>
      </trkpt>
      <trkpt lat="46.66376" lon="5.82605">
        <ele>585.58</ele>
        <time>2020-08-29T12:31:26Z</time>
      </trkpt>
      <trkpt lat="46.66378" lon="5.82603">
        <ele>585.58</ele>
        <time>2020-08-29T12:31:27Z</time>
      </trkpt>
      <trkpt lat="46.6638" lon="5.82601">
        <ele>585.58</ele>
        <time>2020-08-29T12:31:32Z</time>
      </trkpt>
      <trkpt lat="46.66381" lon="5.826">
        <ele>585.58</ele>
        <time>2020-08-29T12:31:33Z</time>
      </trkpt>
      <trkpt lat="46.66383" lon="5.82598">
        <ele>585.58</ele>
        <time>2020-08-29T12:31:34Z</time>
      </trkpt>
      <trkpt lat="46.66384" lon="5.82597">
        <ele>585.58</ele>
        <time>2020-08-29T12:31:35Z</time>
      </trkpt>
      <trkpt lat="46.66385" lon="5.82597">
        <ele>585.58</ele>
        <time>2020-08-29T12:31:36Z</time>
      </trkpt>
      <trkpt lat="46.6639" lon="5.82589">
        <ele>586.06</ele>
        <time>2020-08-29T12:31:51Z</time>
      </trkpt>
      <trkpt lat="46.66409" lon="5.82577">
        <ele>587.02</ele>
        <time>2020-08-29T12:32:09Z</time>
      </trkpt>
      <trkpt lat="46.66428" lon="5.8257">
        <ele>587.5</ele>
        <time>2020-08-29T12:32:28Z</time>
      </trkpt>
      <trkpt lat="46.66447" lon="5.82567">
        <ele>587.98</ele>
        <time>2020-08-29T12:32:51Z</time>
      </trkpt>
      <trkpt lat="46.6647" lon="5.82567">
        <ele>589.91</ele>
        <time>2020-08-29T12:33:12Z</time>
      </trkpt>
      <trkpt lat="46.66486" lon="5.82559">
        <ele>589.91</ele>
        <time>2020-08-29T12:33:30Z</time>
      </trkpt>
      <trkpt lat="46.66516" lon="5.82555">
        <ele>590.87</ele>
        <time>2020-08-29T12:33:53Z</time>
      </trkpt>
      <trkpt lat="46.66532" lon="5.82539">
        <ele>592.31</ele>
        <time>2020-08-29T12:34:14Z</time>
      </trkpt>
      <trkpt lat="46.66555" lon="5.82513">
        <ele>593.27</ele>
        <time>2020-08-29T12:34:38Z</time>
      </trkpt>
      <trkpt lat="46.66564" lon="5.82508">
        <ele>593.27</ele>
        <time>2020-08-29T12:34:43Z</time>
      </trkpt>
      <trkpt lat="46.66583" lon="5.825">
        <ele>592.31</ele>
        <time>2020-08-29T12:35:01Z</time>
      </trkpt>
      <trkpt lat="46.66594" lon="5.82492">
        <ele>592.31</ele>
        <time>2020-08-29T12:35:22Z</time>
      </trkpt>
      <trkpt lat="46.66609" lon="5.82481">
        <ele>590.87</ele>
        <time>2020-08-29T12:35:41Z</time>
      </trkpt>
      <trkpt lat="46.66639" lon="5.82455">
        <ele>589.91</ele>
        <time>2020-08-29T12:36:02Z</time>
      </trkpt>
      <trkpt lat="46.66658" lon="5.82458">
        <ele>590.87</ele>
        <time>2020-08-29T12:36:23Z</time>
      </trkpt>
      <trkpt lat="46.66665" lon="5.82471">
        <ele>589.43</ele>
        <time>2020-08-29T12:36:42Z</time>
      </trkpt>
      <trkpt lat="46.66661" lon="5.8247">
        <ele>590.87</ele>
        <time>2020-08-29T12:37:10Z</time>
      </trkpt>
      <trkpt lat="46.66658" lon="5.82463">
        <ele>590.87</ele>
        <time>2020-08-29T12:37:28Z</time>
      </trkpt>
      <trkpt lat="46.66662" lon="5.82469">
        <ele>590.87</ele>
        <time>2020-08-29T12:37:52Z</time>
      </trkpt>
      <trkpt lat="46.66661" lon="5.82489">
        <ele>590.87</ele>
        <time>2020-08-29T12:38:20Z</time>
      </trkpt>
      <trkpt lat="46.66651" lon="5.82497">
        <ele>591.35</ele>
        <time>2020-08-29T12:38:42Z</time>
      </trkpt>
      <trkpt lat="46.66643" lon="5.82481">
        <ele>591.35</ele>
        <time>2020-08-29T12:39:35Z</time>
      </trkpt>
      <trkpt lat="46.66662" lon="5.82461">
        <ele>591.35</ele>
        <time>2020-08-29T12:39:57Z</time>
      </trkpt>
      <trkpt lat="46.66666" lon="5.82469">
        <ele>590.87</ele>
        <time>2020-08-29T12:40:16Z</time>
      </trkpt>
      <trkpt lat="46.66669" lon="5.8247">
        <ele>591.35</ele>
        <time>2020-08-29T12:40:35Z</time>
      </trkpt>
      <trkpt lat="46.66667" lon="5.82466">
        <ele>591.35</ele>
        <time>2020-08-29T12:41:04Z</time>
      </trkpt>
      <trkpt lat="46.66667" lon="5.82467">
        <ele>591.35</ele>
        <time>2020-08-29T12:41:26Z</time>
      </trkpt>
      <trkpt lat="46.66668" lon="5.8247">
        <ele>591.35</ele>
        <time>2020-08-29T12:41:57Z</time>
      </trkpt>
      <trkpt lat="46.66667" lon="5.82469">
        <ele>591.35</ele>
        <time>2020-08-29T12:42:26Z</time>
      </trkpt>
      <trkpt lat="46.66667" lon="5.82469">
        <ele>591.35</ele>
        <time>2020-08-29T12:42:47Z</time>
      </trkpt>
      <trkpt lat="46.66668" lon="5.82467">
        <ele>591.35</ele>
        <time>2020-08-29T12:43:18Z</time>
      </trkpt>
      <trkpt lat="46.66668" lon="5.82468">
        <ele>590.87</ele>
        <time>2020-08-29T12:43:44Z</time>
      </trkpt>
      <trkpt lat="46.66667" lon="5.82472">
        <ele>590.87</ele>
        <time>2020-08-29T12:44:14Z</time>
      </trkpt>
      <trkpt lat="46.66668" lon="5.82473">
        <ele>590.87</ele>
        <time>2020-08-29T12:44:42Z</time>
      </trkpt>
      <trkpt lat="46.66667" lon="5.82467">
        <ele>590.87</ele>
        <time>2020-08-29T12:45:08Z</time>
      </trkpt>
      <trkpt lat="46.66667" lon="5.82467">
        <ele>590.87</ele>
        <time>2020-08-29T12:45:35Z</time>
      </trkpt>
      <trkpt lat="46.66667" lon="5.82468">
        <ele>587.02</ele>
        <time>2020-08-29T12:45:50Z</time>
      </trkpt>
      <trkpt lat="46.66667" lon="5.82468">
        <ele>592.31</ele>
        <time>2020-08-29T12:45:51Z</time>
      </trkpt>
      <trkpt lat="46.66668" lon="5.82469">
        <ele>589.91</ele>
        <time>2020-08-29T12:46:11Z</time>
      </trkpt>
      <trkpt lat="46.66668" lon="5.82469">
        <ele>589.91</ele>
        <time>2020-08-29T12:46:29Z</time>
      </trkpt>
      <trkpt lat="46.66667" lon="5.82468">
        <ele>589.91</ele>
        <time>2020-08-29T12:46:56Z</time>
      </trkpt>
      <trkpt lat="46.66667" lon="5.82467">
        <ele>589.43</ele>
        <time>2020-08-29T12:47:18Z</time>
      </trkpt>
      <trkpt lat="46.66668" lon="5.82468">
        <ele>589.43</ele>
        <time>2020-08-29T12:47:34Z</time>
      </trkpt>
      <trkpt lat="46.66668" lon="5.82468">
        <ele>589.43</ele>
        <time>2020-08-29T12:47:53Z</time>
      </trkpt>
      <trkpt lat="46.66669" lon="5.8247">
        <ele>589.43</ele>
        <time>2020-08-29T12:48:24Z</time>
      </trkpt>
      <trkpt lat="46.66669" lon="5.8247">
        <ele>589.43</ele>
        <time>2020-08-29T12:48:55Z</time>
      </trkpt>
      <trkpt lat="46.66668" lon="5.82469">
        <ele>589.91</ele>
        <time>2020-08-29T12:49:26Z</time>
      </trkpt>
      <trkpt lat="46.66669" lon="5.82469">
        <ele>589.91</ele>
        <time>2020-08-29T12:49:47Z</time>
      </trkpt>
      <trkpt lat="46.6667" lon="5.82468">
        <ele>590.87</ele>
        <time>2020-08-29T12:50:08Z</time>
      </trkpt>
      <trkpt lat="46.66669" lon="5.82467">
        <ele>590.87</ele>
        <time>2020-08-29T12:50:37Z</time>
      </trkpt>
      <trkpt lat="46.66668" lon="5.82467">
        <ele>591.35</ele>
        <time>2020-08-29T12:51:11Z</time>
      </trkpt>
      <trkpt lat="46.66669" lon="5.82464">
        <ele>591.35</ele>
        <time>2020-08-29T12:51:50Z</time>
      </trkpt>
      <trkpt lat="46.66668" lon="5.82461">
        <ele>591.35</ele>
        <time>2020-08-29T12:52:20Z</time>
      </trkpt>
      <trkpt lat="46.66667" lon="5.82467">
        <ele>591.35</ele>
        <time>2020-08-29T12:52:51Z</time>
      </trkpt>
      <trkpt lat="46.66668" lon="5.82469">
        <ele>591.35</ele>
        <time>2020-08-29T12:53:31Z</time>
      </trkpt>
      <trkpt lat="46.66668" lon="5.82473">
        <ele>591.35</ele>
        <time>2020-08-29T12:54:10Z</time>
      </trkpt>
      <trkpt lat="46.66668" lon="5.82471">
        <ele>591.35</ele>
        <time>2020-08-29T12:54:46Z</time>
      </trkpt>
      <trkpt lat="46.66668" lon="5.82467">
        <ele>591.35</ele>
        <time>2020-08-29T12:55:27Z</time>
      </trkpt>
      <trkpt lat="46.66669" lon="5.82468">
        <ele>591.35</ele>
        <time>2020-08-29T12:56:01Z</time>
      </trkpt>
      <trkpt lat="46.66668" lon="5.82472">
        <ele>590.87</ele>
        <time>2020-08-29T12:56:41Z</time>
      </trkpt>
      <trkpt lat="46.66668" lon="5.82469">
        <ele>590.87</ele>
        <time>2020-08-29T12:57:26Z</time>
      </trkpt>
      <trkpt lat="46.66669" lon="5.82472">
        <ele>590.87</ele>
        <time>2020-08-29T12:58:06Z</time>
      </trkpt>
      <trkpt lat="46.66669" lon="5.82473">
        <ele>590.39</ele>
        <time>2020-08-29T12:58:48Z</time>
      </trkpt>
      <trkpt lat="46.66666" lon="5.8247">
        <ele>590.39</ele>
        <time>2020-08-29T12:59:29Z</time>
      </trkpt>
      <trkpt lat="46.66669" lon="5.82469">
        <ele>590.39</ele>
        <time>2020-08-29T12:59:58Z</time>
      </trkpt>
      <trkpt lat="46.66668" lon="5.82467">
        <ele>590.39</ele>
        <time>2020-08-29T13:00:34Z</time>
      </trkpt>
      <trkpt lat="46.66666" lon="5.82468">
        <ele>590.39</ele>
        <time>2020-08-29T13:01:14Z</time>
      </trkpt>
      <trkpt lat="46.66668" lon="5.82468">
        <ele>590.39</ele>
        <time>2020-08-29T13:01:49Z</time>
      </trkpt>
      <trkpt lat="46.66667" lon="5.82468">
        <ele>590.39</ele>
        <time>2020-08-29T13:02:26Z</time>
      </trkpt>
      <trkpt lat="46.66664" lon="5.82469">
        <ele>590.39</ele>
        <time>2020-08-29T13:03:01Z</time>
      </trkpt>
      <trkpt lat="46.66663" lon="5.82466">
        <ele>590.39</ele>
        <time>2020-08-29T13:03:31Z</time>
      </trkpt>
      <trkpt lat="46.66667" lon="5.82469">
        <ele>590.39</ele>
        <time>2020-08-29T13:04:06Z</time>
      </trkpt>
      <trkpt lat="46.66666" lon="5.82466">
        <ele>590.39</ele>
        <time>2020-08-29T13:04:36Z</time>
      </trkpt>
      <trkpt lat="46.66667" lon="5.8247">
        <ele>590.87</ele>
        <time>2020-08-29T13:05:08Z</time>
      </trkpt>
      <trkpt lat="46.66667" lon="5.82465">
        <ele>590.87</ele>
        <time>2020-08-29T13:05:48Z</time>
      </trkpt>
      <trkpt lat="46.66664" lon="5.82462">
        <ele>590.87</ele>
        <time>2020-08-29T13:06:20Z</time>
      </trkpt>
      <trkpt lat="46.6667" lon="5.82469">
        <ele>590.87</ele>
        <time>2020-08-29T13:06:55Z</time>
      </trkpt>
      <trkpt lat="46.66668" lon="5.82467">
        <ele>590.87</ele>
        <time>2020-08-29T13:07:27Z</time>
      </trkpt>
      <trkpt lat="46.66666" lon="5.82467">
        <ele>590.87</ele>
        <time>2020-08-29T13:07:57Z</time>
      </trkpt>
      <trkpt lat="46.66668" lon="5.82467">
        <ele>591.35</ele>
        <time>2020-08-29T13:08:26Z</time>
      </trkpt>
      <trkpt lat="46.66666" lon="5.82465">
        <ele>591.35</ele>
        <time>2020-08-29T13:09:05Z</time>
      </trkpt>
      <trkpt lat="46.66665" lon="5.82468">
        <ele>590.39</ele>
        <time>2020-08-29T13:09:41Z</time>
      </trkpt>
      <trkpt lat="46.66666" lon="5.82468">
        <ele>590.39</ele>
        <time>2020-08-29T13:10:24Z</time>
      </trkpt>
      <trkpt lat="46.66665" lon="5.82464">
        <ele>590.39</ele>
        <time>2020-08-29T13:11:07Z</time>
      </trkpt>
      <trkpt lat="46.66666" lon="5.82467">
        <ele>589.91</ele>
        <time>2020-08-29T13:11:46Z</time>
      </trkpt>
      <trkpt lat="46.66668" lon="5.82466">
        <ele>589.91</ele>
        <time>2020-08-29T13:12:14Z</time>
      </trkpt>
      <trkpt lat="46.66669" lon="5.82463">
        <ele>589.91</ele>
        <time>2020-08-29T13:12:36Z</time>
      </trkpt>
      <trkpt lat="46.66666" lon="5.82469">
        <ele>590.39</ele>
        <time>2020-08-29T13:13:05Z</time>
      </trkpt>
      <trkpt lat="46.66667" lon="5.82459">
        <ele>590.39</ele>
        <time>2020-08-29T13:13:27Z</time>
      </trkpt>
      <trkpt lat="46.66666" lon="5.82438">
        <ele>590.87</ele>
        <time>2020-08-29T13:13:47Z</time>
      </trkpt>
      <trkpt lat="46.66675" lon="5.8243">
        <ele>590.87</ele>
        <time>2020-08-29T13:14:07Z</time>
      </trkpt>
      <trkpt lat="46.66683" lon="5.82422">
        <ele>590.87</ele>
        <time>2020-08-29T13:14:19Z</time>
      </trkpt>
      <trkpt lat="46.66685" lon="5.82419">
        <ele>590.87</ele>
        <time>2020-08-29T13:14:25Z</time>
      </trkpt>
      <trkpt lat="46.66687" lon="5.82417">
        <ele>590.87</ele>
        <time>2020-08-29T13:14:26Z</time>
      </trkpt>
      <trkpt lat="46.66689" lon="5.82416">
        <ele>590.87</ele>
        <time>2020-08-29T13:14:27Z</time>
      </trkpt>
      <trkpt lat="46.6669" lon="5.82415">
        <ele>590.87</ele>
        <time>2020-08-29T13:14:28Z</time>
      </trkpt>
      <trkpt lat="46.66692" lon="5.82413">
        <ele>590.87</ele>
        <time>2020-08-29T13:14:33Z</time>
      </trkpt>
      <trkpt lat="46.66693" lon="5.82411">
        <ele>590.87</ele>
        <time>2020-08-29T13:14:34Z</time>
      </trkpt>
      <trkpt lat="46.66695" lon="5.8241">
        <ele>590.87</ele>
        <time>2020-08-29T13:14:35Z</time>
      </trkpt>
      <trkpt lat="46.66696" lon="5.82408">
        <ele>590.87</ele>
        <time>2020-08-29T13:14:36Z</time>
      </trkpt>
      <trkpt lat="46.66704" lon="5.82402">
        <ele>590.87</ele>
        <time>2020-08-29T13:14:45Z</time>
      </trkpt>
      <trkpt lat="46.66705" lon="5.82401">
        <ele>590.87</ele>
        <time>2020-08-29T13:14:48Z</time>
      </trkpt>
      <trkpt lat="46.66706" lon="5.82399">
        <ele>590.87</ele>
        <time>2020-08-29T13:14:49Z</time>
      </trkpt>
      <trkpt lat="46.66708" lon="5.82397">
        <ele>589.91</ele>
        <time>2020-08-29T13:14:50Z</time>
      </trkpt>
      <trkpt lat="46.66709" lon="5.82395">
        <ele>589.91</ele>
        <time>2020-08-29T13:14:51Z</time>
      </trkpt>
      <trkpt lat="46.66712" lon="5.82393">
        <ele>589.91</ele>
        <time>2020-08-29T13:14:56Z</time>
      </trkpt>
      <trkpt lat="46.66714" lon="5.82392">
        <ele>589.91</ele>
        <time>2020-08-29T13:14:57Z</time>
      </trkpt>
      <trkpt lat="46.66715" lon="5.82391">
        <ele>589.43</ele>
        <time>2020-08-29T13:14:58Z</time>
      </trkpt>
      <trkpt lat="46.6672" lon="5.82383">
        <ele>589.43</ele>
        <time>2020-08-29T13:15:06Z</time>
      </trkpt>
      <trkpt lat="46.66721" lon="5.82382">
        <ele>589.43</ele>
        <time>2020-08-29T13:15:07Z</time>
      </trkpt>
      <trkpt lat="46.66722" lon="5.8238">
        <ele>589.43</ele>
        <time>2020-08-29T13:15:08Z</time>
      </trkpt>
      <trkpt lat="46.66723" lon="5.82378">
        <ele>589.43</ele>
        <time>2020-08-29T13:15:09Z</time>
      </trkpt>
      <trkpt lat="46.66724" lon="5.82377">
        <ele>589.43</ele>
        <time>2020-08-29T13:15:10Z</time>
      </trkpt>
      <trkpt lat="46.66725" lon="5.82378">
        <ele>589.43</ele>
        <time>2020-08-29T13:15:11Z</time>
      </trkpt>
      <trkpt lat="46.66726" lon="5.82379">
        <ele>589.43</ele>
        <time>2020-08-29T13:15:12Z</time>
      </trkpt>
      <trkpt lat="46.66728" lon="5.82376">
        <ele>589.43</ele>
        <time>2020-08-29T13:15:17Z</time>
      </trkpt>
      <trkpt lat="46.66729" lon="5.82375">
        <ele>589.43</ele>
        <time>2020-08-29T13:15:18Z</time>
      </trkpt>
      <trkpt lat="46.6673" lon="5.82374">
        <ele>589.43</ele>
        <time>2020-08-29T13:15:19Z</time>
      </trkpt>
      <trkpt lat="46.66732" lon="5.82373">
        <ele>589.43</ele>
        <time>2020-08-29T13:15:20Z</time>
      </trkpt>
      <trkpt lat="46.66733" lon="5.82369">
        <ele>589.43</ele>
        <time>2020-08-29T13:15:25Z</time>
      </trkpt>
      <trkpt lat="46.66735" lon="5.82367">
        <ele>589.43</ele>
        <time>2020-08-29T13:15:26Z</time>
      </trkpt>
      <trkpt lat="46.66736" lon="5.82366">
        <ele>589.43</ele>
        <time>2020-08-29T13:15:27Z</time>
      </trkpt>
      <trkpt lat="46.66737" lon="5.82365">
        <ele>589.43</ele>
        <time>2020-08-29T13:15:28Z</time>
      </trkpt>
      <trkpt lat="46.66744" lon="5.82356">
        <ele>589.43</ele>
        <time>2020-08-29T13:15:39Z</time>
      </trkpt>
      <trkpt lat="46.66745" lon="5.82353">
        <ele>589.43</ele>
        <time>2020-08-29T13:15:41Z</time>
      </trkpt>
      <trkpt lat="46.66747" lon="5.82351">
        <ele>589.43</ele>
        <time>2020-08-29T13:15:42Z</time>
      </trkpt>
      <trkpt lat="46.66755" lon="5.82343">
        <ele>590.87</ele>
        <time>2020-08-29T13:15:52Z</time>
      </trkpt>
      <trkpt lat="46.66764" lon="5.82331">
        <ele>590.87</ele>
        <time>2020-08-29T13:16:04Z</time>
      </trkpt>
      <trkpt lat="46.66762" lon="5.82326">
        <ele>591.35</ele>
        <time>2020-08-29T13:16:18Z</time>
      </trkpt>
      <trkpt lat="46.66766" lon="5.82327">
        <ele>591.83</ele>
        <time>2020-08-29T13:16:40Z</time>
      </trkpt>
      <trkpt lat="46.66766" lon="5.82326">
        <ele>591.83</ele>
        <time>2020-08-29T13:17:21Z</time>
      </trkpt>
      <trkpt lat="46.66767" lon="5.82331">
        <ele>591.83</ele>
        <time>2020-08-29T13:17:49Z</time>
      </trkpt>
      <trkpt lat="46.66772" lon="5.82328">
        <ele>592.31</ele>
        <time>2020-08-29T13:18:21Z</time>
      </trkpt>
      <trkpt lat="46.6677" lon="5.82328">
        <ele>592.31</ele>
        <time>2020-08-29T13:18:43Z</time>
      </trkpt>
      <trkpt lat="46.66771" lon="5.82321">
        <ele>592.31</ele>
        <time>2020-08-29T13:18:49Z</time>
      </trkpt>
      <trkpt lat="46.66778" lon="5.82312">
        <ele>592.79</ele>
        <time>2020-08-29T13:19:05Z</time>
      </trkpt>
      <trkpt lat="46.66782" lon="5.82308">
        <ele>592.79</ele>
        <time>2020-08-29T13:19:11Z</time>
      </trkpt>
      <trkpt lat="46.66781" lon="5.82303">
        <ele>592.79</ele>
        <time>2020-08-29T13:19:25Z</time>
      </trkpt>
      <trkpt lat="46.66786" lon="5.82294">
        <ele>592.79</ele>
        <time>2020-08-29T13:19:38Z</time>
      </trkpt>
      <trkpt lat="46.66784" lon="5.82289">
        <ele>592.79</ele>
        <time>2020-08-29T13:19:51Z</time>
      </trkpt>
      <trkpt lat="46.66779" lon="5.82273">
        <ele>592.79</ele>
        <time>2020-08-29T13:20:05Z</time>
      </trkpt>
      <trkpt lat="46.66779" lon="5.82264">
        <ele>592.79</ele>
        <time>2020-08-29T13:20:19Z</time>
      </trkpt>
      <trkpt lat="46.66777" lon="5.8226">
        <ele>592.79</ele>
        <time>2020-08-29T13:20:23Z</time>
      </trkpt>
      <trkpt lat="46.66776" lon="5.82256">
        <ele>593.27</ele>
        <time>2020-08-29T13:20:26Z</time>
      </trkpt>
      <trkpt lat="46.66776" lon="5.82254">
        <ele>593.27</ele>
        <time>2020-08-29T13:20:27Z</time>
      </trkpt>
      <trkpt lat="46.66775" lon="5.82242">
        <ele>593.27</ele>
        <time>2020-08-29T13:20:38Z</time>
      </trkpt>
      <trkpt lat="46.66775" lon="5.8224">
        <ele>593.27</ele>
        <time>2020-08-29T13:20:40Z</time>
      </trkpt>
      <trkpt lat="46.66775" lon="5.82237">
        <ele>593.27</ele>
        <time>2020-08-29T13:20:41Z</time>
      </trkpt>
      <trkpt lat="46.66775" lon="5.82235">
        <ele>593.27</ele>
        <time>2020-08-29T13:20:42Z</time>
      </trkpt>
      <trkpt lat="46.66775" lon="5.82233">
        <ele>593.27</ele>
        <time>2020-08-29T13:20:43Z</time>
      </trkpt>
      <trkpt lat="46.66774" lon="5.82224">
        <ele>592.31</ele>
        <time>2020-08-29T13:20:52Z</time>
      </trkpt>
      <trkpt lat="46.66764" lon="5.82194">
        <ele>589.43</ele>
        <time>2020-08-29T13:21:14Z</time>
      </trkpt>
      <trkpt lat="46.66773" lon="5.82163">
        <ele>586.54</ele>
        <time>2020-08-29T13:21:36Z</time>
      </trkpt>
      <trkpt lat="46.66776" lon="5.82157">
        <ele>586.54</ele>
        <time>2020-08-29T13:21:40Z</time>
      </trkpt>
      <trkpt lat="46.66777" lon="5.82155">
        <ele>586.54</ele>
        <time>2020-08-29T13:21:41Z</time>
      </trkpt>
      <trkpt lat="46.66777" lon="5.82153">
        <ele>586.54</ele>
        <time>2020-08-29T13:21:42Z</time>
      </trkpt>
      <trkpt lat="46.6679" lon="5.82129">
        <ele>585.1</ele>
        <time>2020-08-29T13:22:01Z</time>
      </trkpt>
      <trkpt lat="46.66795" lon="5.82101">
        <ele>584.62</ele>
        <time>2020-08-29T13:22:20Z</time>
      </trkpt>
      <trkpt lat="46.66792" lon="5.8208">
        <ele>584.62</ele>
        <time>2020-08-29T13:22:37Z</time>
      </trkpt>
      <trkpt lat="46.66803" lon="5.82048">
        <ele>583.66</ele>
        <time>2020-08-29T13:22:59Z</time>
      </trkpt>
      <trkpt lat="46.66803" lon="5.82016">
        <ele>586.06</ele>
        <time>2020-08-29T13:23:23Z</time>
      </trkpt>
      <trkpt lat="46.66798" lon="5.82007">
        <ele>588.46</ele>
        <time>2020-08-29T13:23:41Z</time>
      </trkpt>
      <trkpt lat="46.66791" lon="5.81993">
        <ele>588.46</ele>
        <time>2020-08-29T13:23:51Z</time>
      </trkpt>
      <trkpt lat="46.66788" lon="5.81986">
        <ele>590.39</ele>
        <time>2020-08-29T13:23:53Z</time>
      </trkpt>
      <trkpt lat="46.66783" lon="5.81962">
        <ele>590.39</ele>
        <time>2020-08-29T13:24:15Z</time>
      </trkpt>
      <trkpt lat="46.66781" lon="5.81932">
        <ele>591.35</ele>
        <time>2020-08-29T13:24:38Z</time>
      </trkpt>
      <trkpt lat="46.66785" lon="5.81917">
        <ele>591.83</ele>
        <time>2020-08-29T13:24:54Z</time>
      </trkpt>
      <trkpt lat="46.66791" lon="5.8189">
        <ele>591.83</ele>
        <time>2020-08-29T13:25:11Z</time>
      </trkpt>
      <trkpt lat="46.66794" lon="5.81859">
        <ele>594.23</ele>
        <time>2020-08-29T13:25:31Z</time>
      </trkpt>
      <trkpt lat="46.66796" lon="5.81853">
        <ele>594.23</ele>
        <time>2020-08-29T13:25:35Z</time>
      </trkpt>
      <trkpt lat="46.66799" lon="5.81841">
        <ele>595.19</ele>
        <time>2020-08-29T13:25:42Z</time>
      </trkpt>
      <trkpt lat="46.66809" lon="5.81813">
        <ele>598.56</ele>
        <time>2020-08-29T13:26:03Z</time>
      </trkpt>
      <trkpt lat="46.66809" lon="5.81779">
        <ele>600</ele>
        <time>2020-08-29T13:26:24Z</time>
      </trkpt>
      <trkpt lat="46.6681" lon="5.81738">
        <ele>602.4</ele>
        <time>2020-08-29T13:26:48Z</time>
      </trkpt>
      <trkpt lat="46.66816" lon="5.81706">
        <ele>604.33</ele>
        <time>2020-08-29T13:27:08Z</time>
      </trkpt>
      <trkpt lat="46.66823" lon="5.81691">
        <ele>603.36</ele>
        <time>2020-08-29T13:27:23Z</time>
      </trkpt>
      <trkpt lat="46.66825" lon="5.81688">
        <ele>604.33</ele>
        <time>2020-08-29T13:27:25Z</time>
      </trkpt>
      <trkpt lat="46.66841" lon="5.81665">
        <ele>603.36</ele>
        <time>2020-08-29T13:27:44Z</time>
      </trkpt>
      <trkpt lat="46.66853" lon="5.81633">
        <ele>602.88</ele>
        <time>2020-08-29T13:28:08Z</time>
      </trkpt>
      <trkpt lat="46.66874" lon="5.81616">
        <ele>604.33</ele>
        <time>2020-08-29T13:28:22Z</time>
      </trkpt>
      <trkpt lat="46.66875" lon="5.81615">
        <ele>604.33</ele>
        <time>2020-08-29T13:28:23Z</time>
      </trkpt>
      <trkpt lat="46.66885" lon="5.81598">
        <ele>604.33</ele>
        <time>2020-08-29T13:28:39Z</time>
      </trkpt>
      <trkpt lat="46.6689" lon="5.81589">
        <ele>604.33</ele>
        <time>2020-08-29T13:28:47Z</time>
      </trkpt>
      <trkpt lat="46.66891" lon="5.81587">
        <ele>604.33</ele>
        <time>2020-08-29T13:28:48Z</time>
      </trkpt>
      <trkpt lat="46.66896" lon="5.81575">
        <ele>603.36</ele>
        <time>2020-08-29T13:28:57Z</time>
      </trkpt>
      <trkpt lat="46.66918" lon="5.81548">
        <ele>602.88</ele>
        <time>2020-08-29T13:29:19Z</time>
      </trkpt>
      <trkpt lat="46.66937" lon="5.81527">
        <ele>602.88</ele>
        <time>2020-08-29T13:29:38Z</time>
      </trkpt>
      <trkpt lat="46.66949" lon="5.81498">
        <ele>603.85</ele>
        <time>2020-08-29T13:29:59Z</time>
      </trkpt>
      <trkpt lat="46.66959" lon="5.81467">
        <ele>602.4</ele>
        <time>2020-08-29T13:30:21Z</time>
      </trkpt>
      <trkpt lat="46.66959" lon="5.81442">
        <ele>599.04</ele>
        <time>2020-08-29T13:30:42Z</time>
      </trkpt>
      <trkpt lat="46.66958" lon="5.81438">
        <ele>600</ele>
        <time>2020-08-29T13:30:45Z</time>
      </trkpt>
      <trkpt lat="46.66954" lon="5.81426">
        <ele>600</ele>
        <time>2020-08-29T13:31:01Z</time>
      </trkpt>
      <trkpt lat="46.66963" lon="5.81416">
        <ele>600.96</ele>
        <time>2020-08-29T13:31:20Z</time>
      </trkpt>
      <trkpt lat="46.66968" lon="5.81413">
        <ele>599.52</ele>
        <time>2020-08-29T13:31:47Z</time>
      </trkpt>
      <trkpt lat="46.66968" lon="5.81414">
        <ele>599.52</ele>
        <time>2020-08-29T13:31:48Z</time>
      </trkpt>
      <trkpt lat="46.66968" lon="5.81417">
        <ele>599.52</ele>
        <time>2020-08-29T13:32:12Z</time>
      </trkpt>
      <trkpt lat="46.66968" lon="5.81409">
        <ele>599.52</ele>
        <time>2020-08-29T13:32:32Z</time>
      </trkpt>
      <trkpt lat="46.6697" lon="5.81411">
        <ele>600.48</ele>
        <time>2020-08-29T13:32:58Z</time>
      </trkpt>
      <trkpt lat="46.66971" lon="5.81404">
        <ele>600.96</ele>
        <time>2020-08-29T13:33:17Z</time>
      </trkpt>
      <trkpt lat="46.66976" lon="5.8138">
        <ele>601.92</ele>
        <time>2020-08-29T13:33:38Z</time>
      </trkpt>
      <trkpt lat="46.6698" lon="5.81359">
        <ele>600.96</ele>
        <time>2020-08-29T13:33:52Z</time>
      </trkpt>
      <trkpt lat="46.66983" lon="5.81351">
        <ele>600.96</ele>
        <time>2020-08-29T13:34:16Z</time>
      </trkpt>
      <trkpt lat="46.66983" lon="5.81353">
        <ele>602.88</ele>
        <time>2020-08-29T13:34:34Z</time>
      </trkpt>
      <trkpt lat="46.66983" lon="5.81353">
        <ele>601.44</ele>
        <time>2020-08-29T13:34:38Z</time>
      </trkpt>
      <trkpt lat="46.66985" lon="5.81353">
        <ele>602.88</ele>
        <time>2020-08-29T13:35:01Z</time>
      </trkpt>
      <trkpt lat="46.66992" lon="5.81365">
        <ele>601.44</ele>
        <time>2020-08-29T13:35:10Z</time>
      </trkpt>
      <trkpt lat="46.66993" lon="5.81363">
        <ele>601.44</ele>
        <time>2020-08-29T13:35:33Z</time>
      </trkpt>
      <trkpt lat="46.66998" lon="5.8136">
        <ele>601.44</ele>
        <time>2020-08-29T13:36:02Z</time>
      </trkpt>
      <trkpt lat="46.66999" lon="5.81362">
        <ele>601.44</ele>
        <time>2020-08-29T13:36:26Z</time>
      </trkpt>
      <trkpt lat="46.66997" lon="5.81363">
        <ele>602.88</ele>
        <time>2020-08-29T13:36:36Z</time>
      </trkpt>
      <trkpt lat="46.66999" lon="5.81343">
        <ele>603.85</ele>
        <time>2020-08-29T13:36:58Z</time>
      </trkpt>
      <trkpt lat="46.67001" lon="5.81339">
        <ele>602.4</ele>
        <time>2020-08-29T13:37:01Z</time>
      </trkpt>
      <trkpt lat="46.67004" lon="5.81332">
        <ele>603.85</ele>
        <time>2020-08-29T13:37:09Z</time>
      </trkpt>
      <trkpt lat="46.67008" lon="5.8133">
        <ele>604.33</ele>
        <time>2020-08-29T13:37:20Z</time>
      </trkpt>
      <trkpt lat="46.67017" lon="5.81316">
        <ele>604.33</ele>
        <time>2020-08-29T13:37:37Z</time>
      </trkpt>
      <trkpt lat="46.67019" lon="5.81298">
        <ele>605.77</ele>
        <time>2020-08-29T13:38:00Z</time>
      </trkpt>
      <trkpt lat="46.67021" lon="5.81296">
        <ele>605.77</ele>
        <time>2020-08-29T13:38:19Z</time>
      </trkpt>
      <trkpt lat="46.67033" lon="5.81295">
        <ele>605.77</ele>
        <time>2020-08-29T13:38:43Z</time>
      </trkpt>
      <trkpt lat="46.6703" lon="5.81277">
        <ele>605.77</ele>
        <time>2020-08-29T13:39:05Z</time>
      </trkpt>
      <trkpt lat="46.67034" lon="5.81279">
        <ele>605.77</ele>
        <time>2020-08-29T13:39:30Z</time>
      </trkpt>
      <trkpt lat="46.67034" lon="5.81271">
        <ele>604.33</ele>
        <time>2020-08-29T13:39:41Z</time>
      </trkpt>
      <trkpt lat="46.67039" lon="5.81258">
        <ele>603.85</ele>
        <time>2020-08-29T13:40:02Z</time>
      </trkpt>
      <trkpt lat="46.67045" lon="5.81255">
        <ele>603.85</ele>
        <time>2020-08-29T13:40:23Z</time>
      </trkpt>
      <trkpt lat="46.67042" lon="5.81259">
        <ele>603.85</ele>
        <time>2020-08-29T13:40:50Z</time>
      </trkpt>
      <trkpt lat="46.67049" lon="5.81261">
        <ele>603.85</ele>
        <time>2020-08-29T13:41:15Z</time>
      </trkpt>
      <trkpt lat="46.67057" lon="5.81259">
        <ele>604.33</ele>
        <time>2020-08-29T13:41:37Z</time>
      </trkpt>
      <trkpt lat="46.67058" lon="5.81261">
        <ele>604.33</ele>
        <time>2020-08-29T13:41:38Z</time>
      </trkpt>
      <trkpt lat="46.67075" lon="5.81268">
        <ele>602.88</ele>
        <time>2020-08-29T13:41:54Z</time>
      </trkpt>
      <trkpt lat="46.67087" lon="5.81271">
        <ele>599.04</ele>
        <time>2020-08-29T13:42:14Z</time>
      </trkpt>
      <trkpt lat="46.67113" lon="5.81259">
        <ele>597.6</ele>
        <time>2020-08-29T13:42:36Z</time>
      </trkpt>
      <trkpt lat="46.67128" lon="5.81243">
        <ele>596.64</ele>
        <time>2020-08-29T13:42:58Z</time>
      </trkpt>
      <trkpt lat="46.67154" lon="5.81229">
        <ele>594.23</ele>
        <time>2020-08-29T13:43:23Z</time>
      </trkpt>
      <trkpt lat="46.67179" lon="5.81211">
        <ele>593.27</ele>
        <time>2020-08-29T13:43:45Z</time>
      </trkpt>
      <trkpt lat="46.67183" lon="5.81209">
        <ele>594.23</ele>
        <time>2020-08-29T13:44:02Z</time>
      </trkpt>
      <trkpt lat="46.67186" lon="5.81207">
        <ele>592.79</ele>
        <time>2020-08-29T13:44:06Z</time>
      </trkpt>
      <trkpt lat="46.67187" lon="5.81204">
        <ele>594.23</ele>
        <time>2020-08-29T13:44:09Z</time>
      </trkpt>
      <trkpt lat="46.67201" lon="5.81177">
        <ele>594.23</ele>
        <time>2020-08-29T13:44:25Z</time>
      </trkpt>
      <trkpt lat="46.67207" lon="5.81155">
        <ele>594.71</ele>
        <time>2020-08-29T13:44:37Z</time>
      </trkpt>
      <trkpt lat="46.67211" lon="5.81146">
        <ele>595.19</ele>
        <time>2020-08-29T13:44:43Z</time>
      </trkpt>
      <trkpt lat="46.67213" lon="5.81137">
        <ele>595.19</ele>
        <time>2020-08-29T13:44:51Z</time>
      </trkpt>
      <trkpt lat="46.67217" lon="5.81119">
        <ele>593.75</ele>
        <time>2020-08-29T13:45:01Z</time>
      </trkpt>
      <trkpt lat="46.67218" lon="5.81113">
        <ele>593.27</ele>
        <time>2020-08-29T13:45:07Z</time>
      </trkpt>
      <trkpt lat="46.67219" lon="5.81111">
        <ele>593.27</ele>
        <time>2020-08-29T13:45:08Z</time>
      </trkpt>
      <trkpt lat="46.67226" lon="5.81097">
        <ele>593.27</ele>
        <time>2020-08-29T13:45:17Z</time>
      </trkpt>
      <trkpt lat="46.67228" lon="5.81091">
        <ele>592.79</ele>
        <time>2020-08-29T13:45:21Z</time>
      </trkpt>
      <trkpt lat="46.67231" lon="5.81076">
        <ele>592.31</ele>
        <time>2020-08-29T13:45:29Z</time>
      </trkpt>
      <trkpt lat="46.67235" lon="5.81068">
        <ele>592.31</ele>
        <time>2020-08-29T13:45:34Z</time>
      </trkpt>
      <trkpt lat="46.6724" lon="5.8105">
        <ele>591.83</ele>
        <time>2020-08-29T13:45:46Z</time>
      </trkpt>
      <trkpt lat="46.67243" lon="5.81038">
        <ele>591.83</ele>
        <time>2020-08-29T13:45:54Z</time>
      </trkpt>
      <trkpt lat="46.67242" lon="5.81036">
        <ele>591.83</ele>
        <time>2020-08-29T13:45:55Z</time>
      </trkpt>
      <trkpt lat="46.67237" lon="5.81025">
        <ele>591.35</ele>
        <time>2020-08-29T13:46:02Z</time>
      </trkpt>
      <trkpt lat="46.67236" lon="5.81016">
        <ele>591.35</ele>
        <time>2020-08-29T13:46:15Z</time>
      </trkpt>
      <trkpt lat="46.67235" lon="5.81015">
        <ele>592.31</ele>
        <time>2020-08-29T13:46:31Z</time>
      </trkpt>
      <trkpt lat="46.67236" lon="5.81011">
        <ele>592.31</ele>
        <time>2020-08-29T13:46:47Z</time>
      </trkpt>
      <trkpt lat="46.67244" lon="5.80997">
        <ele>592.31</ele>
        <time>2020-08-29T13:47:00Z</time>
      </trkpt>
      <trkpt lat="46.67248" lon="5.8099">
        <ele>592.31</ele>
        <time>2020-08-29T13:47:07Z</time>
      </trkpt>
      <trkpt lat="46.67248" lon="5.80979">
        <ele>592.31</ele>
        <time>2020-08-29T13:47:22Z</time>
      </trkpt>
      <trkpt lat="46.6725" lon="5.80978">
        <ele>592.79</ele>
        <time>2020-08-29T13:47:26Z</time>
      </trkpt>
      <trkpt lat="46.67258" lon="5.80971">
        <ele>594.23</ele>
        <time>2020-08-29T13:47:36Z</time>
      </trkpt>
      <trkpt lat="46.67258" lon="5.80969">
        <ele>594.23</ele>
        <time>2020-08-29T13:47:37Z</time>
      </trkpt>
      <trkpt lat="46.67259" lon="5.80953">
        <ele>594.23</ele>
        <time>2020-08-29T13:47:50Z</time>
      </trkpt>
      <trkpt lat="46.67259" lon="5.80953">
        <ele>594.23</ele>
        <time>2020-08-29T13:48:07Z</time>
      </trkpt>
      <trkpt lat="46.67261" lon="5.8095">
        <ele>594.71</ele>
        <time>2020-08-29T13:48:10Z</time>
      </trkpt>
      <trkpt lat="46.67262" lon="5.80949">
        <ele>594.71</ele>
        <time>2020-08-29T13:48:11Z</time>
      </trkpt>
      <trkpt lat="46.67262" lon="5.80948">
        <ele>594.71</ele>
        <time>2020-08-29T13:48:12Z</time>
      </trkpt>
      <trkpt lat="46.67267" lon="5.80942">
        <ele>595.19</ele>
        <time>2020-08-29T13:48:18Z</time>
      </trkpt>
      <trkpt lat="46.67273" lon="5.80937">
        <ele>595.67</ele>
        <time>2020-08-29T13:48:24Z</time>
      </trkpt>
      <trkpt lat="46.67278" lon="5.80916">
        <ele>595.67</ele>
        <time>2020-08-29T13:48:37Z</time>
      </trkpt>
      <trkpt lat="46.67278" lon="5.80915">
        <ele>595.67</ele>
        <time>2020-08-29T13:48:38Z</time>
      </trkpt>
      <trkpt lat="46.67279" lon="5.80909">
        <ele>596.15</ele>
        <time>2020-08-29T13:48:42Z</time>
      </trkpt>
      <trkpt lat="46.67279" lon="5.80883">
        <ele>595.67</ele>
        <time>2020-08-29T13:48:57Z</time>
      </trkpt>
      <trkpt lat="46.67275" lon="5.80874">
        <ele>596.15</ele>
        <time>2020-08-29T13:49:08Z</time>
      </trkpt>
      <trkpt lat="46.67277" lon="5.80867">
        <ele>596.15</ele>
        <time>2020-08-29T13:49:21Z</time>
      </trkpt>
      <trkpt lat="46.67277" lon="5.80865">
        <ele>596.15</ele>
        <time>2020-08-29T13:49:22Z</time>
      </trkpt>
      <trkpt lat="46.67277" lon="5.80861">
        <ele>596.15</ele>
        <time>2020-08-29T13:49:26Z</time>
      </trkpt>
      <trkpt lat="46.67278" lon="5.80855">
        <ele>596.15</ele>
        <time>2020-08-29T13:49:39Z</time>
      </trkpt>
      <trkpt lat="46.67279" lon="5.80847">
        <ele>596.15</ele>
        <time>2020-08-29T13:49:45Z</time>
      </trkpt>
      <trkpt lat="46.67269" lon="5.80838">
        <ele>595.19</ele>
        <time>2020-08-29T13:49:59Z</time>
      </trkpt>
      <trkpt lat="46.67267" lon="5.80837">
        <ele>594.71</ele>
        <time>2020-08-29T13:50:11Z</time>
      </trkpt>
      <trkpt lat="46.6727" lon="5.80839">
        <ele>594.71</ele>
        <time>2020-08-29T13:50:14Z</time>
      </trkpt>
      <trkpt lat="46.67272" lon="5.80841">
        <ele>594.71</ele>
        <time>2020-08-29T13:50:16Z</time>
      </trkpt>
      <trkpt lat="46.67275" lon="5.80841">
        <ele>595.67</ele>
        <time>2020-08-29T13:50:19Z</time>
      </trkpt>
      <trkpt lat="46.6728" lon="5.8084">
        <ele>595.67</ele>
        <time>2020-08-29T13:50:23Z</time>
      </trkpt>
      <trkpt lat="46.67289" lon="5.80812">
        <ele>595.67</ele>
        <time>2020-08-29T13:50:40Z</time>
      </trkpt>
      <trkpt lat="46.67295" lon="5.80796">
        <ele>594.71</ele>
        <time>2020-08-29T13:50:55Z</time>
      </trkpt>
      <trkpt lat="46.67297" lon="5.8079">
        <ele>594.71</ele>
        <time>2020-08-29T13:50:59Z</time>
      </trkpt>
      <trkpt lat="46.67307" lon="5.80766">
        <ele>594.23</ele>
        <time>2020-08-29T13:51:15Z</time>
      </trkpt>
      <trkpt lat="46.67312" lon="5.80759">
        <ele>595.19</ele>
        <time>2020-08-29T13:51:21Z</time>
      </trkpt>
      <trkpt lat="46.67321" lon="5.80742">
        <ele>595.67</ele>
        <time>2020-08-29T13:51:33Z</time>
      </trkpt>
      <trkpt lat="46.67324" lon="5.8072">
        <ele>595.67</ele>
        <time>2020-08-29T13:51:46Z</time>
      </trkpt>
      <trkpt lat="46.67325" lon="5.80717">
        <ele>595.67</ele>
        <time>2020-08-29T13:51:48Z</time>
      </trkpt>
      <trkpt lat="46.67334" lon="5.80698">
        <ele>595.67</ele>
        <time>2020-08-29T13:52:02Z</time>
      </trkpt>
      <trkpt lat="46.67344" lon="5.80679">
        <ele>595.67</ele>
        <time>2020-08-29T13:52:17Z</time>
      </trkpt>
      <trkpt lat="46.67355" lon="5.80657">
        <ele>594.71</ele>
        <time>2020-08-29T13:52:31Z</time>
      </trkpt>
      <trkpt lat="46.67362" lon="5.80635">
        <ele>594.71</ele>
        <time>2020-08-29T13:52:45Z</time>
      </trkpt>
      <trkpt lat="46.67363" lon="5.80632">
        <ele>594.71</ele>
        <time>2020-08-29T13:52:47Z</time>
      </trkpt>
      <trkpt lat="46.67365" lon="5.80621">
        <ele>594.71</ele>
        <time>2020-08-29T13:52:54Z</time>
      </trkpt>
      <trkpt lat="46.67373" lon="5.80596">
        <ele>596.64</ele>
        <time>2020-08-29T13:53:10Z</time>
      </trkpt>
      <trkpt lat="46.67374" lon="5.80592">
        <ele>596.64</ele>
        <time>2020-08-29T13:53:14Z</time>
      </trkpt>
      <trkpt lat="46.67376" lon="5.80572">
        <ele>597.12</ele>
        <time>2020-08-29T13:53:27Z</time>
      </trkpt>
      <trkpt lat="46.67384" lon="5.80544">
        <ele>598.08</ele>
        <time>2020-08-29T13:53:45Z</time>
      </trkpt>
      <trkpt lat="46.67393" lon="5.80517">
        <ele>598.08</ele>
        <time>2020-08-29T13:54:04Z</time>
      </trkpt>
      <trkpt lat="46.67396" lon="5.80507">
        <ele>596.64</ele>
        <time>2020-08-29T13:54:11Z</time>
      </trkpt>
      <trkpt lat="46.674" lon="5.80497">
        <ele>596.64</ele>
        <time>2020-08-29T13:54:16Z</time>
      </trkpt>
      <trkpt lat="46.67407" lon="5.8047">
        <ele>596.64</ele>
        <time>2020-08-29T13:54:32Z</time>
      </trkpt>
      <trkpt lat="46.67414" lon="5.80452">
        <ele>596.64</ele>
        <time>2020-08-29T13:54:45Z</time>
      </trkpt>
      <trkpt lat="46.67425" lon="5.8043">
        <ele>595.19</ele>
        <time>2020-08-29T13:55:02Z</time>
      </trkpt>
      <trkpt lat="46.67429" lon="5.80423">
        <ele>594.71</ele>
        <time>2020-08-29T13:55:08Z</time>
      </trkpt>
      <trkpt lat="46.67433" lon="5.80416">
        <ele>594.23</ele>
        <time>2020-08-29T13:55:13Z</time>
      </trkpt>
      <trkpt lat="46.67442" lon="5.80401">
        <ele>593.27</ele>
        <time>2020-08-29T13:55:25Z</time>
      </trkpt>
      <trkpt lat="46.67453" lon="5.80384">
        <ele>592.79</ele>
        <time>2020-08-29T13:55:38Z</time>
      </trkpt>
      <trkpt lat="46.67458" lon="5.80369">
        <ele>594.23</ele>
        <time>2020-08-29T13:55:47Z</time>
      </trkpt>
      <trkpt lat="46.67462" lon="5.80342">
        <ele>595.19</ele>
        <time>2020-08-29T13:56:04Z</time>
      </trkpt>
      <trkpt lat="46.67464" lon="5.80326">
        <ele>596.64</ele>
        <time>2020-08-29T13:56:16Z</time>
      </trkpt>
      <trkpt lat="46.67472" lon="5.80309">
        <ele>597.12</ele>
        <time>2020-08-29T13:56:29Z</time>
      </trkpt>
      <trkpt lat="46.67478" lon="5.80292">
        <ele>597.6</ele>
        <time>2020-08-29T13:56:42Z</time>
      </trkpt>
      <trkpt lat="46.6749" lon="5.80269">
        <ele>597.12</ele>
        <time>2020-08-29T13:56:58Z</time>
      </trkpt>
      <trkpt lat="46.67498" lon="5.80243">
        <ele>597.12</ele>
        <time>2020-08-29T13:57:12Z</time>
      </trkpt>
      <trkpt lat="46.67498" lon="5.80241">
        <ele>597.12</ele>
        <time>2020-08-29T13:57:13Z</time>
      </trkpt>
      <trkpt lat="46.67505" lon="5.80221">
        <ele>597.12</ele>
        <time>2020-08-29T13:57:28Z</time>
      </trkpt>
      <trkpt lat="46.67512" lon="5.80193">
        <ele>598.56</ele>
        <time>2020-08-29T13:57:44Z</time>
      </trkpt>
      <trkpt lat="46.67514" lon="5.80173">
        <ele>600.48</ele>
        <time>2020-08-29T13:57:57Z</time>
      </trkpt>
      <trkpt lat="46.67517" lon="5.80148">
        <ele>601.44</ele>
        <time>2020-08-29T13:58:13Z</time>
      </trkpt>
      <trkpt lat="46.67524" lon="5.80124">
        <ele>603.36</ele>
        <time>2020-08-29T13:58:30Z</time>
      </trkpt>
      <trkpt lat="46.67531" lon="5.80108">
        <ele>604.33</ele>
        <time>2020-08-29T13:58:44Z</time>
      </trkpt>
      <trkpt lat="46.67533" lon="5.80092">
        <ele>604.81</ele>
        <time>2020-08-29T13:59:00Z</time>
      </trkpt>
      <trkpt lat="46.67542" lon="5.80082">
        <ele>605.77</ele>
        <time>2020-08-29T13:59:16Z</time>
      </trkpt>
      <trkpt lat="46.67546" lon="5.80074">
        <ele>604.33</ele>
        <time>2020-08-29T13:59:22Z</time>
      </trkpt>
      <trkpt lat="46.67545" lon="5.80064">
        <ele>604.33</ele>
        <time>2020-08-29T13:59:27Z</time>
      </trkpt>
      <trkpt lat="46.67553" lon="5.80031">
        <ele>603.36</ele>
        <time>2020-08-29T13:59:51Z</time>
      </trkpt>
      <trkpt lat="46.67573" lon="5.80009">
        <ele>602.4</ele>
        <time>2020-08-29T14:00:13Z</time>
      </trkpt>
      <trkpt lat="46.67588" lon="5.79988">
        <ele>603.85</ele>
        <time>2020-08-29T14:00:39Z</time>
      </trkpt>
      <trkpt lat="46.67585" lon="5.79974">
        <ele>602.4</ele>
        <time>2020-08-29T14:00:48Z</time>
      </trkpt>
      <trkpt lat="46.67588" lon="5.79986">
        <ele>602.4</ele>
        <time>2020-08-29T14:01:10Z</time>
      </trkpt>
      <trkpt lat="46.6758" lon="5.7999">
        <ele>603.85</ele>
        <time>2020-08-29T14:01:30Z</time>
      </trkpt>
      <trkpt lat="46.67583" lon="5.79979">
        <ele>603.85</ele>
        <time>2020-08-29T14:01:53Z</time>
      </trkpt>
      <trkpt lat="46.67578" lon="5.79988">
        <ele>603.36</ele>
        <time>2020-08-29T14:02:14Z</time>
      </trkpt>
      <trkpt lat="46.67604" lon="5.79971">
        <ele>602.88</ele>
        <time>2020-08-29T14:02:36Z</time>
      </trkpt>
      <trkpt lat="46.67617" lon="5.79955">
        <ele>603.36</ele>
        <time>2020-08-29T14:02:41Z</time>
      </trkpt>
      <trkpt lat="46.67622" lon="5.79944">
        <ele>603.36</ele>
        <time>2020-08-29T14:02:47Z</time>
      </trkpt>
      <trkpt lat="46.67628" lon="5.7994">
        <ele>601.92</ele>
        <time>2020-08-29T14:03:00Z</time>
      </trkpt>
      <trkpt lat="46.67633" lon="5.79935">
        <ele>600.96</ele>
        <time>2020-08-29T14:03:04Z</time>
      </trkpt>
      <trkpt lat="46.67638" lon="5.7993">
        <ele>600</ele>
        <time>2020-08-29T14:03:08Z</time>
      </trkpt>
      <trkpt lat="46.67648" lon="5.79918">
        <ele>598.56</ele>
        <time>2020-08-29T14:03:21Z</time>
      </trkpt>
      <trkpt lat="46.67655" lon="5.79906">
        <ele>598.08</ele>
        <time>2020-08-29T14:03:31Z</time>
      </trkpt>
      <trkpt lat="46.67654" lon="5.799">
        <ele>598.08</ele>
        <time>2020-08-29T14:03:34Z</time>
      </trkpt>
      <trkpt lat="46.6766" lon="5.79888">
        <ele>597.6</ele>
        <time>2020-08-29T14:03:48Z</time>
      </trkpt>
      <trkpt lat="46.67663" lon="5.79885">
        <ele>597.6</ele>
        <time>2020-08-29T14:04:19Z</time>
      </trkpt>
      <trkpt lat="46.67667" lon="5.7989">
        <ele>597.6</ele>
        <time>2020-08-29T14:04:46Z</time>
      </trkpt>
      <trkpt lat="46.67654" lon="5.79875">
        <ele>595.67</ele>
        <time>2020-08-29T14:05:11Z</time>
      </trkpt>
      <trkpt lat="46.67659" lon="5.79849">
        <ele>593.27</ele>
        <time>2020-08-29T14:05:30Z</time>
      </trkpt>
      <trkpt lat="46.67665" lon="5.79827">
        <ele>590.39</ele>
        <time>2020-08-29T14:05:55Z</time>
      </trkpt>
      <trkpt lat="46.67662" lon="5.79807">
        <ele>587.02</ele>
        <time>2020-08-29T14:06:09Z</time>
      </trkpt>
      <trkpt lat="46.67662" lon="5.79806">
        <ele>587.02</ele>
        <time>2020-08-29T14:06:10Z</time>
      </trkpt>
      <trkpt lat="46.67656" lon="5.79786">
        <ele>584.14</ele>
        <time>2020-08-29T14:06:28Z</time>
      </trkpt>
      <trkpt lat="46.67647" lon="5.79772">
        <ele>582.22</ele>
        <time>2020-08-29T14:06:44Z</time>
      </trkpt>
      <trkpt lat="46.67628" lon="5.79751">
        <ele>579.33</ele>
        <time>2020-08-29T14:07:04Z</time>
      </trkpt>
      <trkpt lat="46.67621" lon="5.79724">
        <ele>576.45</ele>
        <time>2020-08-29T14:07:26Z</time>
      </trkpt>
      <trkpt lat="46.67624" lon="5.79718">
        <ele>575.49</ele>
        <time>2020-08-29T14:07:29Z</time>
      </trkpt>
      <trkpt lat="46.6763" lon="5.79704">
        <ele>573.56</ele>
        <time>2020-08-29T14:07:42Z</time>
      </trkpt>
      <trkpt lat="46.67607" lon="5.79676">
        <ele>570.68</ele>
        <time>2020-08-29T14:08:04Z</time>
      </trkpt>
      <trkpt lat="46.676" lon="5.79654">
        <ele>567.32</ele>
        <time>2020-08-29T14:08:23Z</time>
      </trkpt>
      <trkpt lat="46.67588" lon="5.79629">
        <ele>563.95</ele>
        <time>2020-08-29T14:08:41Z</time>
      </trkpt>
      <trkpt lat="46.67593" lon="5.79613">
        <ele>560.11</ele>
        <time>2020-08-29T14:08:55Z</time>
      </trkpt>
      <trkpt lat="46.67596" lon="5.79595">
        <ele>556.74</ele>
        <time>2020-08-29T14:09:14Z</time>
      </trkpt>
      <trkpt lat="46.67588" lon="5.79587">
        <ele>555.3</ele>
        <time>2020-08-29T14:09:20Z</time>
      </trkpt>
      <trkpt lat="46.6757" lon="5.79567">
        <ele>552.41</ele>
        <time>2020-08-29T14:09:35Z</time>
      </trkpt>
      <trkpt lat="46.67565" lon="5.79557">
        <ele>550.97</ele>
        <time>2020-08-29T14:09:49Z</time>
      </trkpt>
      <trkpt lat="46.67562" lon="5.79539">
        <ele>548.09</ele>
        <time>2020-08-29T14:10:03Z</time>
      </trkpt>
      <trkpt lat="46.67558" lon="5.79521">
        <ele>544.72</ele>
        <time>2020-08-29T14:10:20Z</time>
      </trkpt>
      <trkpt lat="46.67557" lon="5.79515">
        <ele>544.72</ele>
        <time>2020-08-29T14:10:23Z</time>
      </trkpt>
      <trkpt lat="46.67563" lon="5.79494">
        <ele>542.8</ele>
        <time>2020-08-29T14:10:38Z</time>
      </trkpt>
      <trkpt lat="46.67564" lon="5.79486">
        <ele>541.84</ele>
        <time>2020-08-29T14:10:42Z</time>
      </trkpt>
      <trkpt lat="46.67566" lon="5.7947">
        <ele>540.88</ele>
        <time>2020-08-29T14:10:54Z</time>
      </trkpt>
      <trkpt lat="46.67565" lon="5.79468">
        <ele>539.44</ele>
        <time>2020-08-29T14:11:09Z</time>
      </trkpt>
      <trkpt lat="46.67564" lon="5.79464">
        <ele>539.92</ele>
        <time>2020-08-29T14:11:29Z</time>
      </trkpt>
      <trkpt lat="46.67562" lon="5.79463">
        <ele>539.92</ele>
        <time>2020-08-29T14:11:41Z</time>
      </trkpt>
      <trkpt lat="46.67563" lon="5.79463">
        <ele>539.92</ele>
        <time>2020-08-29T14:11:59Z</time>
      </trkpt>
      <trkpt lat="46.67566" lon="5.79462">
        <ele>540.88</ele>
        <time>2020-08-29T14:12:21Z</time>
      </trkpt>
      <trkpt lat="46.67569" lon="5.79461">
        <ele>540.88</ele>
        <time>2020-08-29T14:12:30Z</time>
      </trkpt>
      <trkpt lat="46.67569" lon="5.79458">
        <ele>540.88</ele>
        <time>2020-08-29T14:12:36Z</time>
      </trkpt>
      <trkpt lat="46.6757" lon="5.79455">
        <ele>540.88</ele>
        <time>2020-08-29T14:12:40Z</time>
      </trkpt>
      <trkpt lat="46.6757" lon="5.7945">
        <ele>539.92</ele>
        <time>2020-08-29T14:12:44Z</time>
      </trkpt>
      <trkpt lat="46.6757" lon="5.79433">
        <ele>538.96</ele>
        <time>2020-08-29T14:12:55Z</time>
      </trkpt>
      <trkpt lat="46.67572" lon="5.79418">
        <ele>538.48</ele>
        <time>2020-08-29T14:13:06Z</time>
      </trkpt>
      <trkpt lat="46.67577" lon="5.79398">
        <ele>537.03</ele>
        <time>2020-08-29T14:13:19Z</time>
      </trkpt>
      <trkpt lat="46.67581" lon="5.79386">
        <ele>536.07</ele>
        <time>2020-08-29T14:13:32Z</time>
      </trkpt>
      <trkpt lat="46.67583" lon="5.7936">
        <ele>535.11</ele>
        <time>2020-08-29T14:13:45Z</time>
      </trkpt>
      <trkpt lat="46.67594" lon="5.79337">
        <ele>535.11</ele>
        <time>2020-08-29T14:13:59Z</time>
      </trkpt>
      <trkpt lat="46.67606" lon="5.79312">
        <ele>534.63</ele>
        <time>2020-08-29T14:14:16Z</time>
      </trkpt>
      <trkpt lat="46.67613" lon="5.79303">
        <ele>534.63</ele>
        <time>2020-08-29T14:14:25Z</time>
      </trkpt>
      <trkpt lat="46.67626" lon="5.79292">
        <ele>536.07</ele>
        <time>2020-08-29T14:14:38Z</time>
      </trkpt>
      <trkpt lat="46.67627" lon="5.79291">
        <ele>536.07</ele>
        <time>2020-08-29T14:14:39Z</time>
      </trkpt>
      <trkpt lat="46.67644" lon="5.79286">
        <ele>536.55</ele>
        <time>2020-08-29T14:14:56Z</time>
      </trkpt>
      <trkpt lat="46.6765" lon="5.79286">
        <ele>536.55</ele>
        <time>2020-08-29T14:15:01Z</time>
      </trkpt>
      <trkpt lat="46.67667" lon="5.79288">
        <ele>537.03</ele>
        <time>2020-08-29T14:15:16Z</time>
      </trkpt>
      <trkpt lat="46.6768" lon="5.79294">
        <ele>537.99</ele>
        <time>2020-08-29T14:15:31Z</time>
      </trkpt>
      <trkpt lat="46.67696" lon="5.7931">
        <ele>537.99</ele>
        <time>2020-08-29T14:15:49Z</time>
      </trkpt>
      <trkpt lat="46.67702" lon="5.79318">
        <ele>537.99</ele>
        <time>2020-08-29T14:15:56Z</time>
      </trkpt>
      <trkpt lat="46.67704" lon="5.79321">
        <ele>537.99</ele>
        <time>2020-08-29T14:15:58Z</time>
      </trkpt>
      <trkpt lat="46.6772" lon="5.79334">
        <ele>536.07</ele>
        <time>2020-08-29T14:16:12Z</time>
      </trkpt>
      <trkpt lat="46.67741" lon="5.79332">
        <ele>535.59</ele>
        <time>2020-08-29T14:16:28Z</time>
      </trkpt>
      <trkpt lat="46.67757" lon="5.7932">
        <ele>535.11</ele>
        <time>2020-08-29T14:16:42Z</time>
      </trkpt>
      <trkpt lat="46.67774" lon="5.79307">
        <ele>534.63</ele>
        <time>2020-08-29T14:16:59Z</time>
      </trkpt>
      <trkpt lat="46.67797" lon="5.79309">
        <ele>534.15</ele>
        <time>2020-08-29T14:17:18Z</time>
      </trkpt>
      <trkpt lat="46.67814" lon="5.7931">
        <ele>533.67</ele>
        <time>2020-08-29T14:17:34Z</time>
      </trkpt>
      <trkpt lat="46.67835" lon="5.7931">
        <ele>533.19</ele>
        <time>2020-08-29T14:17:50Z</time>
      </trkpt>
      <trkpt lat="46.67848" lon="5.79303">
        <ele>532.23</ele>
        <time>2020-08-29T14:18:03Z</time>
      </trkpt>
      <trkpt lat="46.67849" lon="5.79302">
        <ele>532.23</ele>
        <time>2020-08-29T14:18:04Z</time>
      </trkpt>
      <trkpt lat="46.67867" lon="5.79287">
        <ele>532.23</ele>
        <time>2020-08-29T14:18:21Z</time>
      </trkpt>
      <trkpt lat="46.67885" lon="5.7927">
        <ele>531.27</ele>
        <time>2020-08-29T14:18:39Z</time>
      </trkpt>
      <trkpt lat="46.67902" lon="5.79253">
        <ele>530.3</ele>
        <time>2020-08-29T14:18:56Z</time>
      </trkpt>
      <trkpt lat="46.67916" lon="5.79243">
        <ele>528.86</ele>
        <time>2020-08-29T14:19:11Z</time>
      </trkpt>
      <trkpt lat="46.67939" lon="5.79232">
        <ele>525.98</ele>
        <time>2020-08-29T14:19:31Z</time>
      </trkpt>
      <trkpt lat="46.67958" lon="5.79224">
        <ele>523.58</ele>
        <time>2020-08-29T14:19:51Z</time>
      </trkpt>
      <trkpt lat="46.67978" lon="5.79214">
        <ele>521.17</ele>
        <time>2020-08-29T14:20:09Z</time>
      </trkpt>
      <trkpt lat="46.67987" lon="5.792">
        <ele>519.25</ele>
        <time>2020-08-29T14:20:21Z</time>
      </trkpt>
      <trkpt lat="46.67988" lon="5.79199">
        <ele>519.25</ele>
        <time>2020-08-29T14:20:22Z</time>
      </trkpt>
      <trkpt lat="46.67999" lon="5.79176">
        <ele>517.81</ele>
        <time>2020-08-29T14:20:38Z</time>
      </trkpt>
      <trkpt lat="46.68007" lon="5.79156">
        <ele>515.88</ele>
        <time>2020-08-29T14:20:53Z</time>
      </trkpt>
      <trkpt lat="46.68018" lon="5.79128">
        <ele>513.96</ele>
        <time>2020-08-29T14:21:10Z</time>
      </trkpt>
      <trkpt lat="46.68025" lon="5.79104">
        <ele>512.52</ele>
        <time>2020-08-29T14:21:27Z</time>
      </trkpt>
      <trkpt lat="46.68027" lon="5.79095">
        <ele>512.04</ele>
        <time>2020-08-29T14:21:32Z</time>
      </trkpt>
      <trkpt lat="46.68028" lon="5.79093">
        <ele>511.56</ele>
        <time>2020-08-29T14:21:33Z</time>
      </trkpt>
      <trkpt lat="46.68029" lon="5.79092">
        <ele>511.56</ele>
        <time>2020-08-29T14:21:34Z</time>
      </trkpt>
      <trkpt lat="46.68029" lon="5.7909">
        <ele>511.56</ele>
        <time>2020-08-29T14:21:35Z</time>
      </trkpt>
      <trkpt lat="46.6803" lon="5.79088">
        <ele>511.56</ele>
        <time>2020-08-29T14:21:36Z</time>
      </trkpt>
      <trkpt lat="46.6803" lon="5.79087">
        <ele>511.56</ele>
        <time>2020-08-29T14:21:37Z</time>
      </trkpt>
      <trkpt lat="46.68034" lon="5.79071">
        <ele>510.6</ele>
        <time>2020-08-29T14:21:46Z</time>
      </trkpt>
      <trkpt lat="46.68035" lon="5.79069">
        <ele>510.6</ele>
        <time>2020-08-29T14:21:47Z</time>
      </trkpt>
      <trkpt lat="46.68038" lon="5.79051">
        <ele>509.64</ele>
        <time>2020-08-29T14:22:00Z</time>
      </trkpt>
      <trkpt lat="46.6804" lon="5.79029">
        <ele>509.16</ele>
        <time>2020-08-29T14:22:13Z</time>
      </trkpt>
      <trkpt lat="46.68043" lon="5.79007">
        <ele>508.67</ele>
        <time>2020-08-29T14:22:27Z</time>
      </trkpt>
      <trkpt lat="46.68049" lon="5.78997">
        <ele>508.67</ele>
        <time>2020-08-29T14:22:37Z</time>
      </trkpt>
      <trkpt lat="46.68051" lon="5.78996">
        <ele>508.67</ele>
        <time>2020-08-29T14:22:38Z</time>
      </trkpt>
      <trkpt lat="46.68068" lon="5.78978">
        <ele>508.19</ele>
        <time>2020-08-29T14:22:53Z</time>
      </trkpt>
      <trkpt lat="46.6807" lon="5.78975">
        <ele>508.19</ele>
        <time>2020-08-29T14:22:58Z</time>
      </trkpt>
      <trkpt lat="46.68071" lon="5.78974">
        <ele>508.19</ele>
        <time>2020-08-29T14:22:59Z</time>
      </trkpt>
      <trkpt lat="46.68083" lon="5.78945">
        <ele>508.19</ele>
        <time>2020-08-29T14:23:15Z</time>
      </trkpt>
      <trkpt lat="46.68084" lon="5.78919">
        <ele>508.19</ele>
        <time>2020-08-29T14:23:29Z</time>
      </trkpt>
      <trkpt lat="46.68084" lon="5.78915">
        <ele>509.64</ele>
        <time>2020-08-29T14:23:31Z</time>
      </trkpt>
      <trkpt lat="46.68082" lon="5.78908">
        <ele>509.64</ele>
        <time>2020-08-29T14:23:35Z</time>
      </trkpt>
      <trkpt lat="46.68082" lon="5.78907">
        <ele>509.64</ele>
        <time>2020-08-29T14:23:36Z</time>
      </trkpt>
      <trkpt lat="46.68079" lon="5.78886">
        <ele>511.56</ele>
        <time>2020-08-29T14:23:50Z</time>
      </trkpt>
      <trkpt lat="46.68079" lon="5.78882">
        <ele>511.56</ele>
        <time>2020-08-29T14:23:52Z</time>
      </trkpt>
      <trkpt lat="46.68079" lon="5.78881">
        <ele>511.56</ele>
        <time>2020-08-29T14:23:53Z</time>
      </trkpt>
      <trkpt lat="46.68075" lon="5.78864">
        <ele>512.52</ele>
        <time>2020-08-29T14:24:04Z</time>
      </trkpt>
      <trkpt lat="46.68074" lon="5.78861">
        <ele>513</ele>
        <time>2020-08-29T14:24:06Z</time>
      </trkpt>
      <trkpt lat="46.68073" lon="5.7886">
        <ele>513</ele>
        <time>2020-08-29T14:24:07Z</time>
      </trkpt>
      <trkpt lat="46.68072" lon="5.78846">
        <ele>513.96</ele>
        <time>2020-08-29T14:24:17Z</time>
      </trkpt>
      <trkpt lat="46.68072" lon="5.78844">
        <ele>513.96</ele>
        <time>2020-08-29T14:24:18Z</time>
      </trkpt>
      <trkpt lat="46.68072" lon="5.78842">
        <ele>513.96</ele>
        <time>2020-08-29T14:24:19Z</time>
      </trkpt>
      <trkpt lat="46.68072" lon="5.78841">
        <ele>513.96</ele>
        <time>2020-08-29T14:24:20Z</time>
      </trkpt>
      <trkpt lat="46.68072" lon="5.78839">
        <ele>513.96</ele>
        <time>2020-08-29T14:24:21Z</time>
      </trkpt>
      <trkpt lat="46.68072" lon="5.78837">
        <ele>514.44</ele>
        <time>2020-08-29T14:24:22Z</time>
      </trkpt>
      <trkpt lat="46.68072" lon="5.78835">
        <ele>514.44</ele>
        <time>2020-08-29T14:24:23Z</time>
      </trkpt>
      <trkpt lat="46.68071" lon="5.78833">
        <ele>514.44</ele>
        <time>2020-08-29T14:24:24Z</time>
      </trkpt>
      <trkpt lat="46.68071" lon="5.78831">
        <ele>514.44</ele>
        <time>2020-08-29T14:24:25Z</time>
      </trkpt>
      <trkpt lat="46.68071" lon="5.78829">
        <ele>514.44</ele>
        <time>2020-08-29T14:24:26Z</time>
      </trkpt>
      <trkpt lat="46.68066" lon="5.78804">
        <ele>515.4</ele>
        <time>2020-08-29T14:24:41Z</time>
      </trkpt>
      <trkpt lat="46.68065" lon="5.78785">
        <ele>516.37</ele>
        <time>2020-08-29T14:24:51Z</time>
      </trkpt>
      <trkpt lat="46.68065" lon="5.78778">
        <ele>516.85</ele>
        <time>2020-08-29T14:24:56Z</time>
      </trkpt>
      <trkpt lat="46.68065" lon="5.78759">
        <ele>517.33</ele>
        <time>2020-08-29T14:25:11Z</time>
      </trkpt>
      <trkpt lat="46.68067" lon="5.78745">
        <ele>517.81</ele>
        <time>2020-08-29T14:25:24Z</time>
      </trkpt>
      <trkpt lat="46.68067" lon="5.78743">
        <ele>517.81</ele>
        <time>2020-08-29T14:25:25Z</time>
      </trkpt>
      <trkpt lat="46.68068" lon="5.78718">
        <ele>519.73</ele>
        <time>2020-08-29T14:25:39Z</time>
      </trkpt>
      <trkpt lat="46.68069" lon="5.78716">
        <ele>519.73</ele>
        <time>2020-08-29T14:25:40Z</time>
      </trkpt>
      <trkpt lat="46.68068" lon="5.78714">
        <ele>519.73</ele>
        <time>2020-08-29T14:25:41Z</time>
      </trkpt>
      <trkpt lat="46.6807" lon="5.78704">
        <ele>520.21</ele>
        <time>2020-08-29T14:25:48Z</time>
      </trkpt>
      <trkpt lat="46.68076" lon="5.78688">
        <ele>521.17</ele>
        <time>2020-08-29T14:26:01Z</time>
      </trkpt>
      <trkpt lat="46.68084" lon="5.78662">
        <ele>522.13</ele>
        <time>2020-08-29T14:26:18Z</time>
      </trkpt>
      <trkpt lat="46.6809" lon="5.78647">
        <ele>522.61</ele>
        <time>2020-08-29T14:26:29Z</time>
      </trkpt>
      <trkpt lat="46.6809" lon="5.78646">
        <ele>522.61</ele>
        <time>2020-08-29T14:26:30Z</time>
      </trkpt>
      <trkpt lat="46.68091" lon="5.78644">
        <ele>522.61</ele>
        <time>2020-08-29T14:26:31Z</time>
      </trkpt>
      <trkpt lat="46.68092" lon="5.78643">
        <ele>522.61</ele>
        <time>2020-08-29T14:26:32Z</time>
      </trkpt>
      <trkpt lat="46.68092" lon="5.78641">
        <ele>522.61</ele>
        <time>2020-08-29T14:26:33Z</time>
      </trkpt>
      <trkpt lat="46.68098" lon="5.78617">
        <ele>522.61</ele>
        <time>2020-08-29T14:26:48Z</time>
      </trkpt>
      <trkpt lat="46.68102" lon="5.78592">
        <ele>525.02</ele>
        <time>2020-08-29T14:27:04Z</time>
      </trkpt>
      <trkpt lat="46.68103" lon="5.78573">
        <ele>526.46</ele>
        <time>2020-08-29T14:27:19Z</time>
      </trkpt>
      <trkpt lat="46.68108" lon="5.78573">
        <ele>526.94</ele>
        <time>2020-08-29T14:27:26Z</time>
      </trkpt>
      <trkpt lat="46.68107" lon="5.78569">
        <ele>527.42</ele>
        <time>2020-08-29T14:27:38Z</time>
      </trkpt>
      <trkpt lat="46.68105" lon="5.78541">
        <ele>527.9</ele>
        <time>2020-08-29T14:27:55Z</time>
      </trkpt>
      <trkpt lat="46.68105" lon="5.78535">
        <ele>527.9</ele>
        <time>2020-08-29T14:28:02Z</time>
      </trkpt>
      <trkpt lat="46.68104" lon="5.78533">
        <ele>527.9</ele>
        <time>2020-08-29T14:28:03Z</time>
      </trkpt>
      <trkpt lat="46.68104" lon="5.78527">
        <ele>527.9</ele>
        <time>2020-08-29T14:28:06Z</time>
      </trkpt>
      <trkpt lat="46.68104" lon="5.78524">
        <ele>527.9</ele>
        <time>2020-08-29T14:28:07Z</time>
      </trkpt>
      <trkpt lat="46.68105" lon="5.78521">
        <ele>527.9</ele>
        <time>2020-08-29T14:28:08Z</time>
      </trkpt>
      <trkpt lat="46.68105" lon="5.78519">
        <ele>527.9</ele>
        <time>2020-08-29T14:28:09Z</time>
      </trkpt>
      <trkpt lat="46.68106" lon="5.78496">
        <ele>527.9</ele>
        <time>2020-08-29T14:28:21Z</time>
      </trkpt>
      <trkpt lat="46.68106" lon="5.78492">
        <ele>527.9</ele>
        <time>2020-08-29T14:28:23Z</time>
      </trkpt>
      <trkpt lat="46.68107" lon="5.78491">
        <ele>527.9</ele>
        <time>2020-08-29T14:28:24Z</time>
      </trkpt>
      <trkpt lat="46.68107" lon="5.7849">
        <ele>527.9</ele>
        <time>2020-08-29T14:28:25Z</time>
      </trkpt>
      <trkpt lat="46.68107" lon="5.78475">
        <ele>527.42</ele>
        <time>2020-08-29T14:28:37Z</time>
      </trkpt>
      <trkpt lat="46.6811" lon="5.78462">
        <ele>527.42</ele>
        <time>2020-08-29T14:28:48Z</time>
      </trkpt>
      <trkpt lat="46.6811" lon="5.7846">
        <ele>527.42</ele>
        <time>2020-08-29T14:28:49Z</time>
      </trkpt>
      <trkpt lat="46.68113" lon="5.78437">
        <ele>527.42</ele>
        <time>2020-08-29T14:29:00Z</time>
      </trkpt>
      <trkpt lat="46.68117" lon="5.78414">
        <ele>527.42</ele>
        <time>2020-08-29T14:29:13Z</time>
      </trkpt>
      <trkpt lat="46.6812" lon="5.78397">
        <ele>527.42</ele>
        <time>2020-08-29T14:29:25Z</time>
      </trkpt>
      <trkpt lat="46.68124" lon="5.78377">
        <ele>527.42</ele>
        <time>2020-08-29T14:29:38Z</time>
      </trkpt>
      <trkpt lat="46.68124" lon="5.78375">
        <ele>527.42</ele>
        <time>2020-08-29T14:29:40Z</time>
      </trkpt>
      <trkpt lat="46.68125" lon="5.78371">
        <ele>527.42</ele>
        <time>2020-08-29T14:29:42Z</time>
      </trkpt>
      <trkpt lat="46.68125" lon="5.78369">
        <ele>526.46</ele>
        <time>2020-08-29T14:29:43Z</time>
      </trkpt>
      <trkpt lat="46.68125" lon="5.78366">
        <ele>526.46</ele>
        <time>2020-08-29T14:29:44Z</time>
      </trkpt>
      <trkpt lat="46.68126" lon="5.78364">
        <ele>526.46</ele>
        <time>2020-08-29T14:29:45Z</time>
      </trkpt>
      <trkpt lat="46.68126" lon="5.78361">
        <ele>526.46</ele>
        <time>2020-08-29T14:29:46Z</time>
      </trkpt>
      <trkpt lat="46.68126" lon="5.78359">
        <ele>526.46</ele>
        <time>2020-08-29T14:29:47Z</time>
      </trkpt>
      <trkpt lat="46.68126" lon="5.78357">
        <ele>526.46</ele>
        <time>2020-08-29T14:29:48Z</time>
      </trkpt>
      <trkpt lat="46.68129" lon="5.78349">
        <ele>526.46</ele>
        <time>2020-08-29T14:29:56Z</time>
      </trkpt>
      <trkpt lat="46.68149" lon="5.78338">
        <ele>525.98</ele>
        <time>2020-08-29T14:30:09Z</time>
      </trkpt>
      <trkpt lat="46.6815" lon="5.7833">
        <ele>525.98</ele>
        <time>2020-08-29T14:30:20Z</time>
      </trkpt>
      <trkpt lat="46.68154" lon="5.78332">
        <ele>525.98</ele>
        <time>2020-08-29T14:30:26Z</time>
      </trkpt>
      <trkpt lat="46.68156" lon="5.78333">
        <ele>525.98</ele>
        <time>2020-08-29T14:30:27Z</time>
      </trkpt>
      <trkpt lat="46.68158" lon="5.78333">
        <ele>525.98</ele>
        <time>2020-08-29T14:30:28Z</time>
      </trkpt>
      <trkpt lat="46.6816" lon="5.78333">
        <ele>525.98</ele>
        <time>2020-08-29T14:30:29Z</time>
      </trkpt>
      <trkpt lat="46.68161" lon="5.78333">
        <ele>525.98</ele>
        <time>2020-08-29T14:30:30Z</time>
      </trkpt>
      <trkpt lat="46.68163" lon="5.78334">
        <ele>525.98</ele>
        <time>2020-08-29T14:30:31Z</time>
      </trkpt>
      <trkpt lat="46.68176" lon="5.78341">
        <ele>525.98</ele>
        <time>2020-08-29T14:30:43Z</time>
      </trkpt>
      <trkpt lat="46.68194" lon="5.78341">
        <ele>525.98</ele>
        <time>2020-08-29T14:31:02Z</time>
      </trkpt>
      <trkpt lat="46.682" lon="5.7834">
        <ele>525.98</ele>
        <time>2020-08-29T14:31:08Z</time>
      </trkpt>
      <trkpt lat="46.68201" lon="5.7834">
        <ele>525.98</ele>
        <time>2020-08-29T14:31:09Z</time>
      </trkpt>
      <trkpt lat="46.68204" lon="5.78341">
        <ele>525.98</ele>
        <time>2020-08-29T14:31:15Z</time>
      </trkpt>
      <trkpt lat="46.68206" lon="5.7834">
        <ele>525.98</ele>
        <time>2020-08-29T14:31:16Z</time>
      </trkpt>
      <trkpt lat="46.68207" lon="5.7834">
        <ele>525.98</ele>
        <time>2020-08-29T14:31:17Z</time>
      </trkpt>
      <trkpt lat="46.68209" lon="5.7834">
        <ele>525.98</ele>
        <time>2020-08-29T14:31:18Z</time>
      </trkpt>
      <trkpt lat="46.68211" lon="5.7834">
        <ele>525.98</ele>
        <time>2020-08-29T14:31:19Z</time>
      </trkpt>
      <trkpt lat="46.68218" lon="5.78337">
        <ele>525.5</ele>
        <time>2020-08-29T14:31:27Z</time>
      </trkpt>
      <trkpt lat="46.6822" lon="5.78336">
        <ele>525.5</ele>
        <time>2020-08-29T14:31:28Z</time>
      </trkpt>
      <trkpt lat="46.68221" lon="5.78336">
        <ele>525.5</ele>
        <time>2020-08-29T14:31:29Z</time>
      </trkpt>
      <trkpt lat="46.68222" lon="5.78336">
        <ele>525.5</ele>
        <time>2020-08-29T14:31:30Z</time>
      </trkpt>
      <trkpt lat="46.68233" lon="5.78331">
        <ele>525.5</ele>
        <time>2020-08-29T14:31:41Z</time>
      </trkpt>
      <trkpt lat="46.68235" lon="5.78329">
        <ele>525.5</ele>
        <time>2020-08-29T14:31:42Z</time>
      </trkpt>
      <trkpt lat="46.68236" lon="5.78328">
        <ele>525.5</ele>
        <time>2020-08-29T14:31:43Z</time>
      </trkpt>
      <trkpt lat="46.68237" lon="5.78328">
        <ele>525.5</ele>
        <time>2020-08-29T14:31:44Z</time>
      </trkpt>
      <trkpt lat="46.68243" lon="5.78324">
        <ele>525.5</ele>
        <time>2020-08-29T14:31:52Z</time>
      </trkpt>
      <trkpt lat="46.68244" lon="5.78323">
        <ele>525.5</ele>
        <time>2020-08-29T14:31:53Z</time>
      </trkpt>
      <trkpt lat="46.68245" lon="5.78321">
        <ele>525.5</ele>
        <time>2020-08-29T14:31:54Z</time>
      </trkpt>
      <trkpt lat="46.68256" lon="5.78308">
        <ele>525.5</ele>
        <time>2020-08-29T14:32:05Z</time>
      </trkpt>
      <trkpt lat="46.68264" lon="5.78288">
        <ele>525.5</ele>
        <time>2020-08-29T14:32:17Z</time>
      </trkpt>
      <trkpt lat="46.68273" lon="5.78269">
        <ele>525.02</ele>
        <time>2020-08-29T14:32:30Z</time>
      </trkpt>
      <trkpt lat="46.68277" lon="5.78263">
        <ele>525.02</ele>
        <time>2020-08-29T14:32:38Z</time>
      </trkpt>
      <trkpt lat="46.68277" lon="5.78262">
        <ele>525.02</ele>
        <time>2020-08-29T14:32:39Z</time>
      </trkpt>
      <trkpt lat="46.68279" lon="5.78256">
        <ele>524.54</ele>
        <time>2020-08-29T14:32:46Z</time>
      </trkpt>
      <trkpt lat="46.6828" lon="5.78253">
        <ele>524.54</ele>
        <time>2020-08-29T14:32:48Z</time>
      </trkpt>
      <trkpt lat="46.68281" lon="5.78251">
        <ele>524.54</ele>
        <time>2020-08-29T14:32:49Z</time>
      </trkpt>
      <trkpt lat="46.68281" lon="5.7825">
        <ele>524.54</ele>
        <time>2020-08-29T14:32:50Z</time>
      </trkpt>
      <trkpt lat="46.6828" lon="5.78238">
        <ele>524.54</ele>
        <time>2020-08-29T14:33:02Z</time>
      </trkpt>
      <trkpt lat="46.68279" lon="5.78235">
        <ele>524.54</ele>
        <time>2020-08-29T14:33:19Z</time>
      </trkpt>
    </trkseg>
  </trk>
</gpx>